[[{"header":{"parameterUnit":"m.s-1","parameterCategory":1,"la1":30.6,"la2":29.2853,"lo1":-89.7004,"lo2":-87.6739,"dy":0.0162,"dx":0.0183,"nx":112,"ny":82,"refTime":"2024-03-21T06:00:00:Z","depth":0,"parameterNumber":2,"parameterNumberName":"U-component_of_WINDS"},"data":[0.0,0.0,0.0,0.0,0.0,0.0,0.0,0.0,0.0,0.0,0.0,0.0,0.0,0.0,0.0,0.0,0.0,0.0,0.0,0.0,0.0,0.0,0.0,0.0,0.0,0.0,0.0,0.0,0.0,0.0,0.0,0.0,0.0,0.0,0.0,0.0,0.0,0.0,0.0,0.0,0.0,0.0,0.0,0.0,0.0,0.0,0.0,0.0,0.0,0.0,0.0,0.0,0.0,0.0,0.0,0.0,0.0,0.0,0.0,0.0,0.0,0.0,0.0,0.0,0.0,0.0,0.0,0.0,0.0,0.0,0.0,0.0,0.0,0.0,0.0,0.0,0.0,0.0,0.0,0.0,0.0,0.0,0.0,0.0,0.0,0.0,0.0,0.0,0.0,0.0,1.0975,1.1765,1.3244,1.3966,1.365,1.3434,1.2371,1.0068,0.0,0.0,0.0,0.0,0.0,0.0,0.0,0.0,0.0,0.0,0.0,0.0,0.0,0.0,0.0,0.0,0.0,0.0,0.0,0.0,0.0,0.0,0.0,0.0,0.0,0.0,0.0,0.0,0.0,0.0,0.0,0.0,0.0,0.0,0.0,0.0,0.0,0.0,0.0,0.0,0.0,0.0,0.0,0.0,0.0,0.0,0.0,0.0,0.0,0.0,0.0,0.0,0.0,0.0,0.0,0.0,0.0,0.0,0.0,0.0,0.0,0.0,0.0,0.0,0.0,0.0,0.0,0.0,0.0,0.0,0.0,0.0,0.0,0.0,0.0,0.0,0.0,0.0,0.0,0.0,0.0,0.0,0.0,0.0,0.0,0.0,0.0,0.0,0.0,0.0,0.0,0.0,0.0,0.0,0.0,0.0,0.0,0.0,0.0,0.0,0.0,0.0,0.0,0.0,1.1498,1.2827,1.3733,1.4209,1.3966,1.302,1.2104,1.1207,0.0,0.0,0.0,0.0,0.0,0.0,0.0,0.0,0.0,0.0,0.0,0.0,0.0,0.0,0.0,0.0,0.0,0.0,0.0,0.0,0.0,0.0,0.0,0.0,0.0,0.0,0.0,0.0,0.0,0.0,0.0,0.0,0.0,0.0,0.0,0.0,0.0,0.0,0.0,0.0,0.0,0.0,0.0,0.0,0.0,0.0,0.0,0.0,0.0,0.0,0.0,0.0,0.0,0.0,0.0,0.0,0.0,0.0,0.0,0.0,0.0,0.0,0.0,0.0,0.0,0.0,0.0,0.0,0.0,0.0,0.0,0.0,0.0,0.0,0.0,0.0,0.0,0.0,0.0,0.0,0.0,0.0,0.0,0.0,0.0,0.0,0.0,0.0,0.0,0.0,0.0,0.0,0.0,0.0,0.0,0.0,0.0,0.0,0.0,0.0,0.0,0.0,0.0,1.1243,1.1945,1.3404,1.4019,1.4283,1.4047,1.3292,1.2249,1.1076,0.9722,0.0,0.0,0.0,0.0,0.0,0.0,0.0,0.0,0.0,0.0,0.0,0.0,0.0,0.0,0.0,0.0,0.0,0.0,0.0,0.0,0.0,0.0,0.0,0.0,0.0,0.0,0.0,0.0,0.0,0.0,0.0,0.0,0.0,0.0,0.0,0.0,0.0,0.0,0.0,0.0,0.0,0.0,0.0,0.0,0.0,0.0,0.0,0.0,0.0,0.0,0.0,0.0,0.0,0.0,0.0,0.0,0.0,0.0,0.0,0.0,0.0,0.0,0.0,0.0,0.0,0.0,0.0,0.0,0.0,0.0,0.0,0.0,0.0,0.0,0.0,0.0,0.0,0.0,0.0,0.0,0.0,0.0,0.0,0.0,0.0,0.0,0.0,0.0,0.0,0.0,0.0,0.0,0.0,0.0,0.0,0.0,0.0,0.0,0.0,0.0,0.0,0.0,1.203,1.2459,1.3789,1.4227,1.4266,1.3895,1.3333,1.2368,1.0779,0.9409,0.0,0.0,0.0,0.0,0.0,0.0,0.0,0.0,0.0,0.0,0.0,0.0,0.0,0.0,0.0,0.0,0.0,0.0,0.0,0.0,0.0,0.0,0.0,0.0,0.0,0.0,0.0,0.0,0.0,0.0,0.0,0.0,0.0,0.0,0.0,0.0,0.0,0.0,0.0,0.0,0.0,0.0,0.0,0.0,0.0,0.0,0.0,0.0,0.0,0.0,0.0,0.0,0.0,0.0,0.0,0.0,0.0,0.0,0.0,0.0,0.0,0.0,0.0,0.0,0.0,0.0,0.0,0.0,0.0,0.0,0.0,0.0,0.0,0.0,0.0,0.0,0.0,0.0,0.0,0.0,0.0,0.0,0.0,0.0,0.0,0.0,0.0,0.0,0.0,0.0,0.0,0.0,0.0,0.0,0.0,0.0,0.0,0.0,0.0,0.0,0.0,0.0,1.2484,1.3011,1.3897,1.4213,1.409,1.332,1.2719,1.1984,1.1009,0.9148,0.0,0.0,0.0,0.0,0.0,0.0,0.0,0.0,0.0,0.0,0.0,0.0,0.0,0.0,0.0,0.0,0.0,0.0,0.0,0.0,0.0,0.0,0.0,0.0,0.0,0.0,0.0,0.0,0.0,0.0,0.0,0.0,0.0,0.0,0.0,0.0,0.0,0.0,0.0,0.0,0.0,0.0,0.0,0.0,0.0,0.0,0.0,0.0,0.0,0.0,0.0,0.0,0.0,0.0,0.0,0.0,0.0,0.0,0.0,0.0,0.0,0.0,0.0,0.0,0.0,0.0,0.0,0.0,0.0,0.0,0.0,0.0,0.0,0.0,0.0,0.0,0.0,0.0,0.0,0.0,0.0,0.0,0.0,0.0,0.0,0.0,0.0,0.0,0.0,0.0,0.0,0.0,0.0,0.0,0.0,0.0,0.0,0.0,0.0,0.0,0.0,0.0,1.2263,1.2843,1.3939,1.3924,1.379,1.3507,1.2759,1.1931,1.1049,0.0,0.0,0.0,0.0,0.0,0.0,0.0,0.0,0.0,0.0,0.0,0.0,0.0,0.0,0.0,0.0,0.0,0.0,0.0,0.0,0.0,0.0,0.0,0.0,0.0,0.0,0.0,0.0,0.0,0.0,0.0,0.0,0.0,0.0,0.0,0.0,0.0,0.0,0.0,0.0,0.0,0.0,0.0,0.0,0.0,0.0,0.0,0.0,0.0,0.0,0.0,0.0,0.0,0.0,0.0,0.0,0.0,0.0,0.0,0.0,0.0,0.0,0.0,0.0,0.0,0.0,0.0,0.0,0.0,0.0,0.0,0.0,0.0,0.0,0.0,0.0,0.0,0.0,0.0,0.0,0.0,0.0,0.0,0.0,0.0,0.0,0.0,0.0,0.0,0.0,0.0,0.0,0.0,0.0,0.0,0.0,0.0,0.0,0.0,0.0,0.0,0.0,1.1667,1.2136,1.2845,1.3935,1.3814,1.3614,1.3507,1.2505,1.1597,1.0902,0.0,0.0,0.0,0.0,0.0,0.0,0.0,0.0,0.0,0.0,0.0,0.0,0.0,0.0,0.0,0.0,0.0,0.0,0.0,0.0,0.0,0.0,0.0,0.0,0.0,0.0,0.0,0.0,0.0,0.0,0.0,0.0,0.0,0.0,0.0,0.0,0.0,0.0,0.0,0.0,0.0,0.0,0.0,0.0,0.0,0.0,0.0,0.0,0.0,0.0,0.0,0.0,0.0,0.0,0.0,0.0,0.0,0.0,0.0,0.0,0.0,0.0,0.0,0.0,0.0,0.0,0.0,0.0,0.0,0.0,0.0,0.0,0.0,0.0,0.0,0.0,0.0,0.0,0.0,0.0,0.0,0.0,0.0,0.0,0.0,0.0,0.0,0.0,0.0,0.0,0.0,0.0,0.0,0.0,0.0,0.0,0.0,0.0,0.0,0.0,0.0,0.0,1.1478,1.2158,1.2988,1.3961,1.3814,1.352,1.324,1.185,1.0875,0.0,0.0,0.0,0.0,0.0,0.0,0.0,0.0,0.0,0.0,0.0,0.0,0.0,0.0,0.0,0.0,0.0,0.0,0.0,0.0,0.0,0.0,0.0,0.0,0.0,0.0,0.0,0.0,0.0,0.0,0.0,0.0,0.0,0.0,0.0,0.0,0.0,0.0,0.0,0.0,0.0,0.0,0.0,0.0,0.0,0.0,0.0,0.0,0.0,0.0,0.0,0.0,0.0,0.0,0.0,0.0,0.0,0.0,0.0,0.0,0.0,0.0,0.0,0.0,0.0,0.0,0.0,0.0,0.0,0.0,0.0,0.0,0.0,0.0,0.0,0.0,0.0,0.0,0.0,0.0,0.0,0.0,0.0,0.0,0.0,0.0,0.0,0.0,0.0,0.0,0.0,0.0,0.0,0.0,0.0,0.0,0.0,0.0,0.0,0.0,0.0,0.0,0.0,1.2063,1.2417,1.2988,1.3961,1.3641,1.3373,1.3437,1.1908,1.094,1.0835,0.0,0.0,0.0,0.0,0.0,0.0,0.0,0.0,0.0,0.0,0.0,0.0,0.0,0.0,0.0,0.0,0.0,0.0,0.0,0.0,0.0,0.0,0.0,0.0,0.0,0.0,0.0,0.0,0.0,0.0,0.0,0.0,0.0,0.0,0.0,0.0,0.0,0.0,0.0,0.0,0.0,0.0,0.0,0.0,0.0,0.0,0.0,0.0,0.0,0.0,0.0,0.0,0.0,0.0,0.0,0.0,0.0,0.0,0.0,0.0,0.0,0.0,0.0,0.0,0.0,0.0,0.0,0.0,0.0,0.0,0.0,0.0,0.0,0.0,0.0,0.0,0.0,0.0,0.0,0.0,0.0,0.0,0.0,0.0,0.0,0.0,0.0,0.0,0.0,0.0,0.0,0.0,0.0,0.0,0.0,0.0,0.0,0.0,0.0,0.0,0.0,0.0,1.1925,1.2317,1.2831,1.3641,1.3427,1.3239,1.326,1.1841,1.094,1.0771,0.0,0.0,0.0,0.0,0.0,0.0,0.0,0.0,0.0,0.0,0.0,0.0,0.0,0.0,0.0,0.0,0.0,0.0,0.0,0.0,0.0,0.0,0.0,0.0,0.0,0.0,0.0,0.0,0.0,0.0,0.0,0.0,0.0,0.0,0.0,0.0,0.0,0.0,0.0,0.0,0.0,0.0,0.0,0.0,0.0,0.0,0.0,0.0,0.0,0.0,0.0,0.0,0.0,0.0,0.0,0.0,0.0,0.0,0.0,0.0,0.0,0.0,0.0,0.0,0.0,0.0,0.0,0.0,0.0,0.0,0.0,0.0,0.0,0.0,0.0,0.0,0.0,0.0,0.0,0.0,0.0,0.0,0.0,0.0,0.0,0.0,0.0,0.0,0.0,0.0,0.0,0.0,0.0,0.0,0.0,0.0,0.0,0.0,0.0,0.0,0.0,0.0,1.1383,1.1944,1.2505,1.3146,1.3186,1.3053,1.2849,1.1663,1.0875,1.0685,0.0,0.0,0.0,0.0,0.0,0.0,0.0,0.0,0.0,0.0,0.0,0.0,0.0,0.0,0.0,0.0,0.0,0.0,0.0,0.0,0.0,0.0,0.0,0.0,0.0,0.0,0.0,0.0,0.0,0.0,0.0,0.0,0.0,0.0,0.0,0.0,0.0,0.0,0.0,0.0,0.0,0.0,0.0,0.0,0.0,0.0,0.0,0.0,0.0,0.0,0.0,0.0,0.0,0.0,0.0,0.0,0.0,0.0,0.0,0.0,2.296,2.3213,0.0,0.0,0.0,0.0,0.0,0.0,0.0,0.0,0.0,0.0,0.0,0.0,0.0,0.0,0.0,0.0,0.0,0.0,0.0,0.0,0.0,0.0,0.0,0.0,0.0,0.0,0.0,0.0,0.0,0.0,0.0,0.0,0.0,0.0,0.0,0.0,0.0,0.0,0.0,0.0,1.1944,1.2024,1.2278,1.312,1.2986,1.2889,1.2974,1.1733,1.1034,1.1163,0.9064,0.0,0.0,0.0,0.0,0.0,0.0,0.0,0.0,0.0,0.0,0.0,0.0,0.0,0.0,0.0,0.0,0.0,0.0,0.0,0.0,0.0,0.0,0.0,0.0,0.0,0.0,0.0,0.0,0.0,0.0,0.0,0.0,0.0,0.0,0.0,0.0,0.0,0.0,0.0,0.0,0.0,0.0,0.0,0.0,0.0,0.0,0.0,0.0,0.0,0.0,0.0,0.0,0.0,0.0,0.0,0.0,0.0,0.0,0.0,2.5302,2.4476,0.0,0.0,0.0,0.0,0.0,0.0,0.0,0.0,0.0,0.0,0.0,0.0,0.0,0.0,0.0,0.0,0.0,0.0,0.0,0.0,0.0,0.0,0.0,0.0,0.0,0.0,0.0,0.0,0.0,0.0,0.0,0.0,0.0,0.0,0.0,0.0,0.0,0.0,0.0,0.0,1.2144,1.2291,1.2532,1.3146,1.3066,1.2983,1.2912,1.2002,1.1357,1.1141,0.9396,0.0,0.0,0.0,0.0,0.0,0.0,0.0,0.0,0.0,0.0,0.0,0.0,0.0,0.0,0.0,0.0,0.0,0.0,0.0,0.0,0.0,0.0,0.0,0.0,0.0,0.0,0.0,0.0,0.0,0.0,0.0,0.0,0.0,0.0,0.0,0.0,0.0,0.0,0.0,0.0,0.0,0.0,0.0,0.0,0.0,0.0,0.0,0.0,0.0,0.0,0.0,0.0,0.0,2.9412,2.9986,3.0859,3.0468,3.0491,3.0767,2.8677,2.6818,2.5325,2.6221,0.0,0.0,0.0,0.0,0.0,0.0,0.0,0.0,0.0,0.0,0.0,0.0,0.0,0.0,0.0,0.0,0.0,0.0,0.0,0.0,0.0,0.0,1.7209,1.7586,1.7367,1.6624,1.5122,0.0,0.0,0.0,0.0,0.0,0.0,0.0,0.0,0.0,0.0,0.0,1.2198,1.2518,1.2812,1.3173,1.3213,1.308,1.2849,1.2325,1.169,1.0969,0.9667,0.8602,0.0,0.0,0.0,0.0,0.0,0.0,0.0,0.0,0.0,0.0,0.0,0.0,0.0,0.0,0.0,0.0,0.0,0.0,0.0,0.0,0.0,0.0,0.0,0.0,0.0,0.0,0.0,0.0,0.0,0.0,0.0,0.0,2.8282,2.8189,0.0,0.0,0.0,0.0,0.0,0.0,0.0,0.0,0.0,0.0,0.0,0.0,0.0,2.8632,2.9091,2.9642,3.0399,3.1341,3.2259,3.2971,3.3499,3.343,3.3453,3.3476,3.3155,0.0,2.9297,2.7759,0.0,0.0,0.0,0.0,0.0,0.0,0.0,0.0,0.0,0.0,0.0,0.0,0.0,0.0,0.0,0.0,0.0,0.0,0.0,0.0,0.0,0.0,1.798,1.8357,1.8121,1.7755,1.7482,1.6079,1.4759,1.4007,1.3432,1.2854,0.0,0.0,0.0,0.0,0.0,0.0,1.2225,1.2331,1.2585,1.3146,1.3213,1.308,1.2849,1.2438,1.1768,1.0573,0.9491,0.855,0.776,0.6703,0.0,0.0,0.0,0.0,0.0,0.0,0.0,0.0,0.0,0.0,0.0,0.0,0.0,0.0,0.0,0.0,0.0,0.0,0.0,0.0,0.0,0.0,0.0,0.0,0.0,0.0,0.0,0.0,0.0,2.9075,2.9859,2.8624,2.9341,2.9302,0.0,0.0,0.0,0.0,0.0,0.0,0.0,0.0,0.0,3.1645,3.1612,3.1763,3.203,3.281,3.3706,3.4716,3.5175,3.5657,3.6117,3.5841,3.5864,3.6117,3.5818,3.5083,3.3843,3.1249,2.9458,2.8379,0.0,0.0,0.0,0.0,2.7843,2.7347,2.7469,2.6212,2.4493,2.4514,0.0,0.0,0.0,0.0,0.0,0.0,0.0,1.7699,1.858,1.8794,1.8888,1.9675,1.9326,1.8742,1.8539,1.7204,1.5913,1.5042,1.4436,1.3899,1.3241,1.2771,0.0,0.0,0.0,1.2276,1.2732,1.2959,1.3227,1.3654,1.3547,1.34,1.3267,1.2826,1.2074,1.0852,0.981,0.8706,0.7709,0.6684,0.6139,0.0,0.0,0.0,0.0,0.0,0.0,0.0,0.0,0.0,0.0,0.0,0.0,0.0,0.0,0.0,0.0,0.0,0.0,0.0,0.0,0.0,0.0,0.0,0.0,0.0,0.0,0.0,0.0,3.0478,3.1331,2.8925,3.0518,3.0685,0.0,0.0,0.0,0.0,0.0,0.0,3.1882,3.3247,3.4292,3.4912,3.4999,3.5231,3.5543,3.63,3.7265,3.839,3.839,3.8665,3.9124,3.8619,3.8527,3.8734,3.8229,3.7862,3.7356,3.405,3.141,2.9504,2.978,2.9573,2.916,2.9688,2.9804,2.967,2.9575,2.8649,2.7431,2.664,2.5309,2.3655,2.211,0.0,0.0,0.0,0.0,1.8737,1.9609,1.9782,1.9864,2.0721,2.0389,1.9657,1.9082,1.8148,1.7067,1.5794,1.5205,1.4714,1.4079,1.3532,0.0,1.2865,1.2832,1.2947,1.3253,1.3507,1.3761,1.4055,1.3895,1.3694,1.3547,1.312,1.2285,1.081,0.985,0.8842,0.7587,0.664,0.6179,0.6191,0.0,0.0,0.0,0.0,0.0,0.0,0.0,0.0,0.0,0.0,0.0,0.0,0.0,0.0,0.0,0.0,0.0,0.0,0.0,0.0,0.0,0.0,0.0,0.0,0.0,0.0,0.0,0.0,0.0,2.9424,3.1921,0.0,0.0,0.0,0.0,3.0032,3.1066,3.2367,3.3953,3.4876,3.6177,3.7722,3.8199,3.8873,3.9744,3.979,4.0594,4.2063,4.2063,4.2339,4.2798,4.2293,4.1811,4.1352,4.0846,4.0089,3.8872,3.4877,3.2581,3.1547,3.1111,3.0606,3.0193,3.0744,3.0555,3.0086,3.0108,2.9117,2.8052,2.9324,2.811,2.5839,2.4047,2.2988,0.0,0.0,2.1743,2.132,2.1552,2.1235,2.0883,2.1145,2.085,2.0297,1.931,1.8758,1.8039,1.6198,1.5365,1.4845,1.4574,0.0,1.3995,1.3526,1.3447,1.3491,1.3574,1.3546,1.3761,1.4055,1.4068,1.3841,1.328,1.32,1.2196,0.9834,0.9477,0.8704,0.7078,0.6634,0.6424,0.6596,0.6252,0.0,0.0,0.0,0.0,0.0,0.0,0.0,0.0,0.0,0.0,0.0,0.0,0.0,0.0,0.0,0.0,0.0,0.0,0.0,0.0,0.0,0.0,0.0,0.0,0.0,0.0,0.0,0.0,3.2896,3.5466,0.0,3.4222,3.3863,3.3886,3.4193,3.5456,3.674,3.7965,3.9651,4.0731,4.107,4.1563,4.1923,4.1994,4.2017,4.2431,4.328,4.2637,4.2431,4.2591,4.2086,4.1742,4.1558,4.1374,4.0915,4.0135,3.8367,3.6461,3.4601,3.4096,3.3201,3.2282,3.3132,3.2619,3.1672,3.1891,3.1055,2.9579,2.8586,2.7241,2.586,2.4796,2.4326,2.3965,2.2851,2.2483,2.2222,2.1952,2.1479,2.1226,2.1412,2.0925,2.0163,1.9545,1.8844,1.8134,1.7267,1.6448,1.5731,1.5238,1.4822,1.4453,1.4016,1.3985,1.3992,1.3858,1.3884,1.3975,1.4082,1.4082,1.4001,1.3788,1.293,1.1787,1.0264,0.9269,0.8212,0.7032,0.6857,0.678,0.6707,0.6504,0.6444,0.0,0.0,0.0,0.0,0.0,0.0,0.0,0.0,0.0,0.0,0.0,0.0,0.0,0.0,0.0,0.0,0.0,0.0,0.0,0.0,0.0,0.0,0.0,0.0,0.0,3.3503,3.5694,3.5206,3.7959,3.9004,3.6825,3.6749,3.6906,3.7161,3.8618,3.9825,4.0787,4.2518,4.3393,4.3435,4.3974,4.4067,4.3602,4.3602,4.3671,4.3808,4.3142,4.2752,4.2568,4.2247,4.1994,4.1834,4.1834,4.1535,4.1053,4.0709,3.9469,3.7701,3.6691,3.5474,3.4372,3.4827,3.4223,3.3099,3.3009,3.2061,3.0748,2.8956,2.7779,2.6919,2.6398,2.6054,2.5464,2.4216,2.3523,2.3098,2.2494,2.1862,2.1428,2.1473,2.0704,1.9994,1.9456,1.8914,1.8335,1.7896,1.7121,1.636,1.5833,1.5482,1.5122,1.4741,1.454,1.4392,1.4324,1.4183,1.4082,1.4082,1.4082,1.4001,1.3814,1.277,1.1652,1.0439,0.9346,0.8259,0.7393,0.7291,0.7281,0.7198,0.6965,0.6824,0.6776,0.0,0.0,0.0,0.0,0.0,0.0,0.0,0.0,0.0,0.0,0.0,0.0,0.0,0.0,0.0,0.0,0.0,0.0,0.0,0.0,0.0,0.0,0.0,3.1502,3.5325,3.7604,3.6335,3.9196,3.9992,3.6479,3.7816,3.8914,3.885,4.0112,4.1374,4.2385,4.3326,4.4084,4.4589,4.5094,4.5117,4.4612,4.4612,4.4336,4.3808,4.3785,4.3533,4.3074,4.3074,4.2821,4.2362,4.2339,4.2063,4.1627,4.1604,4.1306,4.064,3.8665,3.7242,3.6214,3.5666,3.5069,3.4267,3.3048,3.2147,3.1319,3.0864,3.0098,2.927,2.8794,2.8046,2.7216,2.6397,2.5256,2.4128,2.3306,2.2417,2.1522,2.1027,2.0498,1.9789,1.8964,1.8803,1.8599,1.7969,1.7326,1.6784,1.6448,1.6126,1.5835,1.5648,1.5106,0.0,1.4888,1.4426,1.4095,1.4095,1.4095,1.3868,1.32,1.2729,1.1838,1.0293,0.9507,0.881,0.7992,0.7845,0.7853,0.7959,0.7532,0.719,0.6946,0.0,0.0,0.0,0.0,0.0,0.0,0.0,0.0,0.0,0.0,0.0,0.0,0.0,0.0,0.0,0.0,0.0,0.0,0.0,0.0,0.0,3.3028,3.4552,3.499,3.7781,4.0186,4.1297,4.3142,4.385,4.2867,4.2825,4.2892,4.3298,4.3456,4.3854,4.4497,4.4773,4.4841,4.4612,4.5094,4.5117,4.4612,4.4612,4.4336,4.3808,4.3464,4.3028,4.2545,4.2545,4.266,4.2867,4.25,4.2477,4.2637,4.227,4.1559,4.049,4.0099,3.8684,3.6725,3.6994,3.5637,3.3727,3.2955,3.2354,3.1795,3.134,3.0781,3.0222,2.9766,2.8978,2.8042,2.6912,2.5785,2.4571,2.3393,2.2109,2.113,2.0925,2.0205,1.945,1.9155,1.895,1.873,1.8555,1.7999,1.7369,1.6813,1.6462,1.617,1.5864,1.5205,1.4685,1.4768,1.4375,1.4162,1.4376,1.4402,1.3985,1.3104,1.2099,1.092,0.9356,0.8449,0.7802,0.7447,0.7764,0.7947,0.7956,0.7614,0.7408,0.0,0.0,0.0,0.0,0.0,0.0,0.0,0.0,0.0,0.0,0.0,0.0,0.0,0.0,0.0,0.0,0.0,0.0,0.0,0.0,0.0,0.0,3.5652,3.7893,3.9118,4.0425,4.2019,4.3962,4.4711,4.5102,4.5076,4.4813,4.4688,4.4833,4.493,4.5048,4.5347,4.537,4.5232,4.4933,4.5209,4.5117,4.4612,4.4382,4.4015,4.351,4.3005,4.2614,4.2339,4.2339,4.2614,4.3051,4.2545,4.25,4.2752,4.2454,4.1765,4.0841,0.0,0.0,0.0,0.0,3.5251,3.3455,3.3111,3.2582,3.1961,3.1526,3.1071,3.0594,3.0139,2.9343,2.8542,2.7843,2.6293,2.4787,2.4001,2.244,2.1043,2.082,2.0106,1.9447,1.9301,1.9125,1.895,1.8818,1.8482,0.0,1.7545,1.696,1.6506,1.633,1.5476,1.4979,1.5105,1.4484,1.4148,1.4322,1.3991,1.3433,1.2722,1.1486,0.0,0.0,0.0,0.8,0.7894,0.8175,0.0,0.0,0.0,0.7724,0.7468,0.6889,0.0,0.0,0.3135,0.1566,0.0,0.0,0.0,0.0,0.0,0.0,0.0,0.0,0.0,0.0,0.0,0.0,0.0,0.0,0.0,0.0,3.8418,4.0922,4.3302,4.3294,4.3565,4.4937,4.5131,4.4976,4.4792,4.5064,4.5157,4.4933,4.5301,4.553,4.553,4.553,0.0,0.0,0.0,4.5209,4.4704,4.4176,4.3648,4.3165,4.266,4.2385,4.2339,4.2339,4.2637,4.3142,4.2637,4.2477,4.2591,4.2349,4.1787,4.1001,3.9579,3.8299,3.7023,3.5478,3.4232,3.3368,3.3368,0.0,0.0,3.1547,3.1133,3.0739,3.016,2.9384,2.8641,2.8601,2.6816,2.4843,2.4541,2.2938,2.1286,2.0711,2.0181,1.9667,1.9345,1.9272,1.9184,1.8891,1.8818,1.8701,1.8408,1.7545,1.6916,1.6916,1.6006,1.5357,1.5637,1.4729,1.4148,1.4188,1.3284,0.0,1.2206,1.0958,0.9948,0.9377,0.8903,0.8747,0.8787,0.8643,0.8567,0.8363,0.8211,0.8034,0.7651,0.7557,0.6463,0.461,0.3854,0.2559,0.0,0.0,0.0,0.0,0.0,0.0,0.0,0.0,0.0,0.0,0.0,0.0,0.0,0.0,0.0,3.9043,4.1282,4.3449,4.5559,4.5936,4.5939,4.5615,4.6258,4.6563,4.5708,4.6242,4.6749,4.7023,4.677,4.6586,4.6586,4.6586,4.6196,4.5393,4.576,4.5737,4.5209,4.4704,4.4176,4.3671,4.3188,0.0,4.2339,4.2339,4.2821,4.3648,4.3165,4.3418,4.4107,4.2605,4.0729,3.8503,3.8437,3.7689,3.6417,3.4882,3.39,3.3368,3.3368,3.3037,3.2457,3.165,3.1567,3.1547,3.0367,2.916,0.0,2.7803,2.608,2.4235,2.3653,2.2706,2.1676,2.0757,2.0181,1.9667,1.9345,1.9272,1.9257,1.9199,1.8964,1.8774,1.8701,1.7882,1.7145,1.6973,1.6154,1.5506,1.5411,1.4832,1.4536,1.4776,1.3774,1.2644,1.1701,1.0722,0.9561,0.8338,0.8213,0.8308,0.8601,0.8241,0.8177,0.8534,0.816,0.7931,0.7957,0.7063,0.5981,0.4698,0.3925,0.2745,0.0,0.0,0.0,0.0,0.0,0.0,0.0,0.0,0.0,0.0,0.0,3.2711,3.3837,0.0,3.8856,4.1707,4.3836,4.5591,4.6744,4.7748,4.7813,4.6681,4.6982,4.7051,4.682,4.6864,4.6977,4.7229,4.7023,4.6885,4.6885,4.7115,4.6908,4.6127,4.6357,4.6265,4.576,4.4979,4.4474,4.4199,4.3693,4.3326,4.3074,4.2821,4.3119,4.3785,4.3303,4.3248,4.3487,4.2059,4.0127,3.8103,3.8014,3.7143,3.5827,3.4773,3.4113,3.3699,3.3451,3.3099,3.2623,3.194,3.1359,3.0843,2.9951,2.881,2.7649,2.7441,2.5901,2.4356,2.3871,2.2796,2.1526,2.0813,2.0456,2.015,1.9828,1.9755,1.9755,1.9755,1.9491,1.9272,1.9272,1.8599,1.7858,1.7251,1.6621,1.5979,1.5568,1.5102,1.4559,1.4103,1.3093,1.1926,1.0819,0.9854,0.9035,0.8422,0.8333,0.8495,0.8758,0.8336,0.8206,0.8503,0.8146,0.7986,0.8038,0.6936,0.5832,0.4822,0.3785,0.2697,0.0,0.0,0.0,0.0,0.0,0.0,0.0,3.0999,3.1577,3.2539,3.4102,3.5689,3.7084,3.9402,4.1875,4.4189,4.587,4.7181,4.7586,4.8724,4.8968,4.7872,4.7505,4.739,4.762,4.7344,4.7206,4.7298,4.7229,4.7206,4.7298,4.7712,4.7643,4.7046,4.7115,4.6839,4.6127,4.5301,4.4796,4.4589,4.4176,4.39,4.3785,4.3395,4.3441,4.3785,4.3379,4.2877,4.246,4.1262,3.984,3.8206,3.772,3.6771,3.55,3.4962,3.4465,3.3989,3.3534,3.3099,3.2664,3.2188,3.1279,3.0266,2.954,2.8494,2.7375,2.7206,2.5847,2.4384,2.4105,2.2879,2.145,2.0847,2.072,2.0633,2.0311,2.0237,2.0237,2.0237,1.9974,1.9769,1.9769,1.9272,1.8484,1.7611,1.7007,1.6494,1.5978,1.5454,1.4591,1.3355,1.236,1.1232,0.9795,0.9067,0.8714,0.8812,0.8723,0.8695,0.8956,0.8555,0.8335,0.8428,0.8137,0.8038,0.8038,0.6936,0.5832,0.4822,0.3723,0.2622,3.4646,3.2779,3.1937,3.2659,3.2106,3.213,0.0,3.5665,3.5857,3.6459,3.8238,3.9874,4.0523,4.2328,4.438,4.6741,4.7302,4.7697,4.8498,4.8511,4.8423,4.8331,4.863,4.8538,4.7712,4.7987,4.84,4.8837,4.8469,4.84,4.8837,4.8905,4.8515,4.7574,4.7987,4.7551,4.6127,4.6012,4.5507,4.4612,4.4543,4.4267,4.3808,4.3762,4.3762,4.3831,4.3555,4.2839,4.1834,4.0958,3.9474,3.7577,3.712,3.6621,3.5935,3.5066,3.4465,3.3989,3.3534,3.3099,3.2664,3.2188,3.1572,3.0908,2.9719,2.8477,2.7115,2.639,2.5186,2.3855,2.3328,2.2636,2.1866,2.0906,2.072,2.0633,2.0311,2.0237,2.0237,2.0237,1.9974,1.9769,1.9769,1.9252,1.8697,1.802,1.7471,1.6884,1.6276,1.5685,1.4956,1.3878,1.2553,1.0967,0.8928,0.8943,0.8974,0.8828,0.8766,0.8753,0.8964,0.8475,0.8258,0.8428,0.8137,0.8038,0.8038,0.6936,0.5832,0.4822,0.3723,0.2622,3.4411,3.3332,3.3236,3.3982,3.4775,3.5857,3.7829,3.8743,3.9345,3.9874,4.1918,4.3673,4.389,4.5605,4.7337,4.8724,4.8732,4.8891,4.9603,4.8858,4.8056,4.7183,4.7252,4.7551,4.8033,4.8263,4.8469,4.8676,4.8515,4.8607,4.9089,4.9112,4.9066,4.8974,4.8308,4.7643,4.7023,4.6127,4.5461,4.5048,4.5048,4.4933,4.4704,4.4405,4.4001,4.3578,4.2704,4.2049,4.1409,4.0446,3.9312,3.8212,3.7488,3.6929,3.637,3.519,3.4631,3.4362,3.3637,3.3265,3.3037,3.2582,3.1808,3.0769,2.942,2.8108,2.6709,2.5266,2.4128,2.3247,2.2683,2.2002,2.1517,2.1042,2.1013,2.0969,2.0837,2.0808,2.0808,2.0808,2.0545,2.0267,2.0077,1.9556,1.8921,1.8282,1.7761,1.7158,1.641,1.6059,1.5184,1.3251,1.1344,0.9857,0.8968,0.9015,0.9104,0.9129,0.8909,0.8737,0.8909,0.8452,0.8181,0.8131,0.8038,0.7739,0.7036,0.6032,0.4926,0.3823,0.2723,0.2019,3.4054,3.3982,3.4751,3.5857,3.7517,3.9248,4.0787,4.1942,4.2856,4.3385,4.5261,4.6752,4.6607,4.794,4.9331,4.9859,4.97,4.974,5.0092,4.9021,4.7734,4.6472,4.5829,4.6035,4.7413,4.7803,4.8033,4.8171,4.8446,4.8814,4.9296,4.9457,4.9709,5.0099,4.8768,4.7918,4.7643,4.6265,4.5507,4.537,4.537,4.537,4.5347,4.4841,4.4118,4.3287,4.2254,4.1532,4.0912,3.9896,3.9206,3.8585,3.7798,3.7281,3.6846,3.5583,3.4983,3.4631,3.3699,3.3368,3.3306,3.2506,3.1431,3.0254,2.9144,2.7639,2.6074,2.458,2.3568,2.2683,2.223,2.166,2.1203,2.1203,2.1203,2.1203,2.1203,2.1203,2.1203,2.1203,2.094,2.0647,2.0413,1.9708,1.9042,1.859,1.7984,1.7395,1.6679,1.5875,1.4595,1.2416,1.0441,0.9202,0.9104,0.9185,0.9275,0.9348,0.8989,0.8764,0.8817,0.8427,0.8133,0.8038,0.8038,0.7441,0.6437,0.5327,0.4225,0.3224,0.212,0.1617,3.4174,3.4775,3.6194,3.8815,4.0282,4.1774,4.4371,4.579,4.6704,4.7233,4.8219,4.882,4.8315,4.8834,4.9462,5.0009,4.9932,4.97,4.9723,4.8575,4.7459,4.6908,4.5094,4.429,4.5347,4.6334,4.7115,4.762,4.8538,4.9319,4.9847,5.0329,5.0582,5.0605,4.9594,4.8607,4.7643,4.6609,4.5852,4.537,4.537,4.537,4.5347,4.4841,4.3936,4.2839,4.2474,4.1467,3.9997,3.9625,3.9019,3.815,3.7674,3.7488,3.7363,3.6411,3.5521,3.4631,3.3699,3.3368,3.3169,3.1772,3.0704,2.9713,2.8899,2.6928,2.5044,2.519,2.3648,2.2116,2.2116,2.166,2.1203,2.1203,2.1203,2.1203,2.1203,2.1203,2.1203,2.1203,2.094,2.072,2.0706,1.9728,1.8884,1.887,1.8181,1.7462,1.7154,1.4891,1.2787,1.1385,1.0288,0.947,0.9129,0.9413,0.9535,0.9364,0.9022,0.881,0.8825,0.8329,0.8031,0.8038,0.8038,0.7441,0.6437,0.5327,0.4225,0.3224,0.212,0.1617,3.6447,3.8415,4.1022,4.2945,4.4402,4.5694,4.6944,4.805,4.8459,4.7233,4.7257,4.7233,4.6108,4.6514,4.7399,4.8481,4.885,4.9365,5.0045,4.8974,4.7436,4.5599,4.4773,4.4199,4.3877,4.4451,4.5347,4.6541,4.7574,4.8354,4.8882,4.9709,5.0306,5.0627,4.8997,4.8125,4.8148,4.6449,4.553,4.537,4.537,4.5074,4.464,4.4143,4.3306,4.2224,4.1796,4.1124,4.0159,3.9737,3.9185,3.8585,3.8129,3.7757,3.7446,3.7136,3.6453,3.5521,3.461,3.4093,3.3762,3.2936,3.1872,3.0587,2.8838,2.724,2.5558,2.3926,2.2839,2.2002,2.166,2.1318,2.1203,2.1203,2.1203,2.1203,2.1203,2.1203,2.1203,2.1203,2.1115,2.0984,2.0764,1.9975,1.925,1.8415,1.7728,1.7041,1.611,1.4435,1.2829,1.1506,1.0388,0.9705,0.947,0.9559,0.9501,0.9249,0.8992,0.8777,0.8686,0.839,0.8194,0.8194,0.8194,0.7226,0.5327,0.4989,0.3974,0.2122,0.1863,0.1665,3.9297,4.1663,4.424,4.6464,4.7865,4.8772,4.9301,4.9517,4.9084,4.7353,4.6405,4.551,4.4141,4.4022,4.4714,4.6347,4.6775,4.7631,4.96,4.8233,4.6632,4.5553,4.429,4.3418,4.3119,4.3211,4.3992,4.5714,4.7138,4.8056,4.8377,4.9525,5.0398,5.0903,4.8768,4.7941,4.863,4.6472,4.537,4.537,4.537,4.4755,4.3713,4.3578,4.2672,4.1273,4.1295,4.0709,3.9723,3.9599,3.9164,3.8585,3.8295,3.8005,3.7715,3.755,3.7115,3.6453,3.4984,3.4207,3.3618,3.2435,3.1149,2.9879,2.841,2.6724,2.5076,2.3684,2.2751,2.2019,2.1671,2.1467,2.1379,2.1379,2.1291,2.1203,2.1203,2.1203,2.1203,2.1203,2.1203,2.1145,2.0812,2.0104,1.9193,1.7715,1.7128,1.6453,1.5083,1.4123,1.2895,1.1214,1.0433,0.9941,0.9827,0.9819,0.9718,0.9415,0.9112,0.8925,0.867,0.8473,0.8241,0.8187,0.8187,0.7041,0.4875,0.483,0.3817,0.165,0.1686,0.1695,4.2526,4.4642,4.6231,4.927,5.0335,5.0888,5.1321,5.0167,4.8676,4.7521,4.5701,4.395,4.24,4.152,4.1659,4.3631,4.3893,4.5007,4.8492,4.6704,4.5461,4.6793,4.3992,4.2316,4.3188,4.2821,4.3326,4.5301,4.7252,4.8354,4.8354,4.9824,5.088,5.1339,4.8974,4.8171,4.9135,4.6678,4.5415,4.537,4.537,4.4437,4.2884,4.3332,4.221,3.9905,4.0954,4.0393,3.8895,3.9351,3.8999,3.8191,3.8191,3.8191,3.8129,3.7695,3.7508,3.704,3.4712,3.3579,3.2838,3.0562,2.903,2.8009,2.7522,2.5561,2.3641,2.4118,2.333,2.2184,2.2184,2.195,2.1715,2.1715,2.1467,2.1233,2.1233,2.1218,2.1203,2.1203,2.1203,2.1089,2.0716,2.0018,1.8811,1.6943,1.6441,1.5717,1.418,1.3954,1.2971,1.0642,1.0282,1.0176,1.016,1.016,1.0064,0.9758,0.9436,0.9057,0.8706,0.8494,0.8221,0.7965,0.7965,0.6917,0.4866,0.487,0.3767,0.1704,0.1707,0.1708,4.4878,4.7757,5.0404,5.1481,5.1839,5.1586,5.0527,4.9036,4.7257,4.4996,4.209,3.9569,3.8185,3.8382,3.9518,4.1742,4.4277,4.6726,4.9189,4.9513,4.9273,4.8148,4.7528,4.6862,4.5989,4.5461,4.553,4.6426,4.7321,4.7826,4.7826,4.9985,5.0926,5.0306,4.9663,4.9457,4.9709,4.7574,4.6104,4.537,4.537,4.4527,4.3024,4.3156,4.2064,4.0188,4.0751,4.0132,3.8895,3.9351,3.8999,3.8191,3.8191,3.8191,3.8171,3.8046,3.7248,3.609,3.4677,3.3992,3.3414,3.2076,2.997,2.7921,2.6694,2.5024,2.3581,2.3112,2.2586,2.2184,2.2184,2.2125,2.2052,2.2052,2.1818,2.1569,2.1569,2.1379,2.1203,2.1203,2.096,2.073,2.05,1.979,1.8878,1.7187,1.6549,1.5459,1.3317,1.29,1.2178,1.0551,1.0396,1.0314,1.0176,0.9951,0.9797,0.9602,0.918,0.8948,0.8701,0.8594,0.8098,0.7015,0.7106,0.6061,0.3698,0.3746,0.3112,0.1705,0.175,0.176,4.8158,5.0429,5.2214,5.2809,5.2354,5.1105,4.9253,4.7233,4.4876,4.1609,3.8966,3.672,3.5113,3.5479,3.6843,3.964,4.2279,4.5157,4.8608,4.9167,4.9342,4.9089,4.8699,4.8125,4.7298,4.716,4.7229,4.7528,4.7803,4.8056,4.8263,5.0053,5.0926,5.0582,4.9916,4.925,4.8584,4.7436,4.6472,4.5691,4.5188,4.4228,4.3097,4.2384,4.1252,3.993,3.9972,3.9558,3.8874,3.9123,3.8812,3.8191,3.8191,3.7904,3.7482,3.7482,3.6629,3.5297,3.4566,3.3633,3.2562,3.1174,2.9049,2.6804,2.6041,2.481,2.3544,2.3171,2.2828,2.2593,2.2593,2.2491,2.2374,2.2374,2.2023,2.173,2.1876,2.154,2.1203,2.1203,2.0845,2.05,2.027,1.9314,1.8045,1.6646,1.5613,1.4354,1.2443,1.233,1.1946,1.0666,1.055,1.0509,1.0404,1.0289,1.0007,0.9667,0.9377,0.9126,0.871,0.871,0.81,0.6685,0.6749,0.5705,0.3337,0.3371,0.2839,0.1745,0.1779,0.1786,5.1147,5.2445,5.2596,5.351,5.2139,4.9998,4.7714,4.502,4.1849,3.8084,3.6105,3.4651,3.2928,3.2984,3.436,3.7734,3.9775,4.265,4.7584,4.7578,4.7895,4.987,4.8951,4.8125,4.8033,4.8423,4.8676,4.8676,4.8676,4.8837,4.9204,5.0122,5.0834,5.1293,5.0076,4.8722,4.7298,4.7206,4.6862,4.6219,4.4864,4.388,4.3097,4.1559,4.0309,3.9516,3.9185,3.8957,3.8854,3.8916,3.8709,3.8357,3.8295,3.7583,3.6598,3.6598,3.5743,3.4552,3.4097,3.2683,3.084,2.9462,2.7413,2.5672,2.554,2.468,2.3662,2.3662,2.3427,2.3179,2.3179,2.293,2.2681,2.2681,2.2242,2.1906,2.2184,2.1759,2.1335,2.122,2.083,2.0326,2.0095,1.8648,1.6985,1.5569,1.4202,1.2903,1.1618,1.1959,1.1836,1.0839,1.0729,1.072,1.0696,1.0586,1.0374,0.9846,0.9721,0.9421,0.8743,0.8743,0.8025,0.6515,0.6531,0.5409,0.3201,0.3201,0.267,0.1808,0.1808,0.1805,5.1728,5.2598,5.298,5.3149,5.1586,4.9229,4.6223,4.2808,3.9378,3.6319,3.3929,3.209,3.1204,3.2268,3.428,3.7399,3.9836,4.3165,4.8148,4.8768,4.9319,5.0972,5.0926,5.0605,5.0145,5.0191,5.0237,5.0237,5.0237,5.0099,4.9778,5.0306,5.0673,5.0765,5.0926,5.049,4.9388,4.8951,4.8056,4.6747,4.55,4.4191,4.3097,4.2107,4.0941,3.9558,3.9868,3.9558,3.8874,3.9268,3.9371,3.9268,3.8874,3.8031,3.7054,3.7054,3.5563,3.3381,3.3073,3.1333,2.9255,2.9489,2.8051,2.5889,2.5368,2.4643,2.3998,2.3998,2.3764,2.3515,2.3515,2.3267,2.3018,2.3018,2.274,2.2476,2.2535,2.2271,2.1889,2.1637,2.1185,2.0296,1.8983,1.8071,1.6738,1.4381,1.3613,1.2903,1.1618,1.1397,1.1297,1.094,1.0923,1.0858,1.0704,1.0257,0.9987,1.0017,0.9342,0.9037,0.8899,0.8899,0.7778,0.5541,0.5613,0.4448,0.2211,0.2211,0.2098,0.187,0.187,0.1857,5.2716,5.3461,5.3726,5.3197,5.0624,4.7401,4.4202,4.029,3.6566,3.3647,3.2018,3.0971,3.0443,3.155,3.3315,3.5818,3.7907,4.0892,4.5668,4.7275,4.8607,5.0421,5.1339,5.1615,5.1087,5.1041,5.1041,5.1041,5.1041,5.0949,5.0719,5.0926,5.0926,5.0627,5.088,5.0513,4.9502,4.8997,4.8377,4.7643,4.546,4.4286,4.3818,4.172,4.0229,3.9537,3.9268,3.904,3.8874,3.9081,3.933,3.9516,3.9288,3.8085,3.6654,3.6421,3.4519,3.1976,3.1657,3.0157,2.8442,2.8821,2.7478,2.5695,2.5437,2.4847,2.4335,2.4335,2.4101,2.3852,2.3852,2.3603,2.3354,2.3354,2.3106,2.2784,2.2462,2.2403,2.2238,2.1824,2.0695,1.9627,1.8663,1.6971,1.5276,1.3965,1.3147,1.2457,1.1774,1.1565,1.1403,1.1126,1.1102,1.107,1.0972,1.0514,1.0175,1.0062,0.9617,0.9243,0.9055,0.9123,0.8022,0.5508,0.543,0.4312,0.1885,0.1885,0.1885,0.1885,0.1885,0.1879,5.3678,5.4207,5.4207,5.3293,4.9782,4.5718,4.2519,3.8299,3.4171,3.1404,3.0524,3.0163,2.9894,3.0744,3.2099,3.4142,3.5634,3.8183,4.2844,4.5163,4.7229,4.9479,5.1087,5.1867,5.1454,5.1523,5.1546,5.1431,5.1316,5.1201,5.111,5.1316,5.1087,5.0329,5.0627,5.0306,4.9296,4.8905,4.8561,4.8217,4.5323,4.408,4.4167,4.1067,3.962,3.9495,3.8688,3.8585,3.8999,3.8999,3.9172,3.9388,3.9286,3.7766,3.5669,3.5473,3.3393,3.0821,3.0447,2.9329,2.813,2.7855,2.684,2.5725,2.5652,2.5227,2.4759,2.4701,2.4437,2.4188,2.4188,2.3896,2.3574,2.3501,2.3296,2.2974,2.2491,2.2442,2.2407,2.154,2.0077,1.8803,1.7942,1.5794,1.4107,1.3587,1.267,1.1979,1.1849,1.1801,1.1663,1.137,1.1305,1.1265,1.1109,1.0763,1.0471,1.0114,0.9889,0.9435,0.8863,0.8967,0.7752,0.5193,0.5193,0.4142,0.1906,0.1906,0.1906,0.1906,0.1906,0.1902,5.4135,5.4231,5.375,5.3197,4.9493,4.5164,4.1966,3.7379,3.3173,3.0767,2.9706,2.9144,2.8925,2.9665,3.1019,3.3086,3.4326,3.6759,4.1765,4.3831,4.5898,4.8837,5.0559,5.1477,5.1431,5.1844,5.1913,5.1454,5.0972,5.0513,5.0076,5.0926,5.0765,4.9296,5.0627,5.0857,4.9847,4.9801,4.9066,4.7689,4.5478,4.4036,4.3206,4.1088,3.9909,3.9516,3.8999,3.9061,3.9475,3.9475,3.9271,3.9102,3.8704,3.6885,3.4559,3.4504,3.2733,3.0348,2.9921,2.9101,2.8,2.7274,2.6735,2.6354,2.6061,2.5725,2.5388,2.5096,2.4774,2.4525,2.4525,2.4057,2.3515,2.3223,2.3135,2.3091,2.3032,2.2798,2.2173,2.0472,1.9638,1.8214,1.5443,1.4528,1.3779,1.2658,1.2134,1.202,1.2012,1.1874,1.176,1.1727,1.1573,1.1286,1.0771,1.0532,1.0178,0.9816,0.9606,0.8904,0.7602,0.7613,0.6377,0.3962,0.3842,0.3268,0.1969,0.1969,0.1969,0.1969,0.1969,0.1954,5.3077,5.3991,5.4015,5.2884,4.8988,4.4539,4.0913,3.62,3.2085,3.029,2.9183,2.8648,2.9435,2.9435,2.9871,3.1639,3.1731,3.3063,3.7219,3.9101,4.1627,4.5898,4.801,4.9732,5.127,5.189,5.2097,5.189,5.1408,5.088,5.0375,5.0719,5.0536,4.9617,5.0788,5.0926,4.9916,4.9916,4.9136,4.7784,4.5644,4.4046,4.2827,4.1095,4.0116,3.993,3.9475,3.9101,3.8769,3.8769,3.8561,3.8078,3.7904,3.6732,3.5082,3.3996,3.2321,3.0308,2.9148,2.8252,2.742,2.7129,2.6896,2.6735,2.6413,2.6076,2.5754,2.5432,2.5242,2.5096,2.4905,2.4379,2.3852,2.372,2.3545,2.333,2.3391,2.2521,2.1421,2.0194,1.8395,1.6613,1.5058,1.3949,1.3225,1.2603,1.2402,1.2312,1.2207,1.2134,1.2093,1.2093,1.1841,1.1638,1.1328,1.0837,1.0554,1.0347,0.9116,0.8164,0.7498,0.6841,0.5714,0.3956,0.3799,0.3198,0.2001,0.1985,0.1977,0.1977,0.1977,0.1979,5.161,5.3125,5.3654,5.2548,4.8435,4.3647,4.0129,3.526,3.1082,2.9811,2.8734,2.8402,2.9757,2.9412,2.9343,3.0583,3.0308,3.1019,3.4142,3.5979,3.8573,4.2775,4.5025,4.7275,4.9824,5.1339,5.212,5.1959,5.1477,5.1018,5.065,5.0352,5.0099,4.9916,5.0903,5.0926,4.9916,4.9755,4.8964,4.7701,4.561,4.4011,4.2677,4.1184,4.0203,3.9616,3.9167,3.8648,3.7871,3.7754,3.7451,3.6922,3.6791,3.6017,3.4776,3.3457,3.1793,3.0108,2.8742,2.764,2.6983,2.6983,2.6983,2.6925,2.6603,2.6281,2.593,2.5505,2.5388,2.5315,2.4993,2.4569,2.4203,2.4101,2.391,2.3536,2.2972,2.1951,2.0687,1.9041,1.7023,1.5395,1.459,1.3652,1.2929,1.2751,1.2678,1.258,1.2402,1.2337,1.2304,1.2304,1.2085,1.1914,1.1736,1.1233,1.0815,1.0583,0.8885,0.768,0.7235,0.5945,0.4758,0.3422,0.3387,0.2886,0.2031,0.2012,0.2003,0.2003,0.2003,0.2012,4.9854,5.1489,5.2307,5.2283,4.7748,4.2496,3.9849,3.4775,3.0299,2.93,2.8503,2.8287,2.932,2.9504,2.9642,3.0147,3.0652,3.1708,3.3729,3.5749,3.7793,3.9859,4.1903,4.413,4.6678,5.0099,5.1959,5.1477,5.0949,5.0627,5.0627,4.9663,4.9365,4.9893,5.0903,5.0926,4.9916,4.9388,4.8418,4.7186,4.5477,4.3889,4.2699,4.1519,4.0024,3.8422,3.8006,3.7358,3.6702,3.6304,3.5903,3.5569,3.5154,3.4274,3.3272,3.2342,3.1121,2.9644,2.8927,2.7834,2.6983,2.6983,2.6983,2.6925,2.6603,2.6281,2.5886,2.5242,2.5066,2.4993,2.4657,2.4569,2.4481,2.4159,2.4086,2.3536,2.1674,2.1014,1.9808,1.6581,1.5653,1.4982,1.3634,1.3368,1.3303,1.3116,1.2946,1.2767,1.2588,1.241,1.2304,1.2304,1.2304,1.2097,1.1549,1.1162,1.0915,1.0543,0.9034,0.7576,0.6293,0.4756,0.3475,0.2191,0.2063,0.2063,0.2064,0.2063,0.2063,0.2063,0.2063,0.2063,4.4082,4.5501,4.6126,4.5405,4.276,3.9387,3.6422,3.3243,3.0571,2.9565,2.8671,2.8402,2.9734,2.9711,2.9894,3.1088,3.141,3.1846,3.2833,3.5014,3.7655,4.0732,4.5645,4.9227,5.0398,5.088,5.1201,5.1408,5.0926,5.049,5.0145,5.049,5.0605,5.0398,5.0719,5.0719,5.0398,5.0237,4.911,4.6933,4.5998,4.437,4.2,4.1565,4.0494,3.8898,3.8759,3.7624,3.5999,3.587,3.524,3.4423,3.4284,3.3949,3.3481,3.1841,3.0852,2.9976,2.8429,2.7408,2.6983,2.6983,2.6983,2.6925,2.6603,2.6427,2.6266,2.5827,2.571,2.5681,2.5593,2.5388,2.5257,2.5374,2.4682,2.3612,2.2406,2.0614,1.8595,1.6603,1.5319,1.4407,1.3595,1.3555,1.3498,1.3311,1.3238,1.3181,1.3124,1.3068,1.2986,1.2856,1.2743,1.2419,1.1736,1.1336,1.0573,0.9305,0.7684,0.617,0.4759,0.3348,0.246,0.2094,0.2075,0.2074,0.2095,0.2074,0.2064,0.2064,0.2086,0.2095,3.9618,4.1301,4.2233,4.1705,3.9698,3.7086,3.4657,3.2348,3.0438,2.9685,2.8999,2.8907,3.0009,2.9963,3.0078,3.1019,3.118,3.141,3.2099,3.4395,3.7448,4.1397,4.6495,4.9893,5.0398,5.0903,5.111,5.088,5.0903,5.0536,4.9663,5.0398,5.0788,5.0627,5.0834,5.0926,5.0926,5.0026,4.8681,4.6852,4.5233,4.3236,4.0963,4.0525,3.9386,3.7786,3.7786,3.6627,0.0,3.4716,3.4301,3.382,3.3683,3.3717,3.35,3.175,3.0759,3.015,2.8313,2.7364,2.6983,2.6983,2.691,2.6764,2.6559,2.6413,2.6281,2.6076,2.6018,2.6018,2.6018,2.5871,2.563,2.5397,2.4427,2.3051,2.1366,1.938,1.7448,1.6022,1.4846,1.4205,1.3977,1.3945,1.3855,1.3612,1.3571,1.3522,1.3384,1.3368,1.3327,1.3214,1.31,1.268,1.168,1.097,1.0088,0.8928,0.677,0.5099,0.4188,0.2882,0.2108,0.2125,0.2108,0.2108,0.2127,0.2108,0.2098,0.2098,0.2117,0.2127,0.0,3.8413,3.9907,3.9997,3.784,3.5258,3.3814,3.1808,0.0,2.9642,2.9527,2.9665,3.017,3.0239,3.0262,3.0354,3.0376,3.0721,3.1708,3.4234,3.7655,4.2132,4.5347,4.7367,4.7757,5.0398,5.1477,5.0076,5.0811,5.0673,4.9181,4.964,5.0168,5.0605,5.111,5.1362,5.1362,4.9141,4.7626,4.6636,4.3276,4.0928,3.977,3.8567,3.7166,3.5605,3.5605,3.4875,3.382,3.346,3.3528,3.3802,3.3443,3.3528,3.3534,3.2009,3.095,3.0033,2.8401,2.7525,2.6983,2.6983,2.6778,2.6544,2.6544,2.631,2.6047,2.6047,2.6061,2.6091,2.595,2.5935,2.5653,2.4506,2.3469,2.2025,1.9144,1.7829,1.6664,1.4761,1.4473,1.4464,1.4456,1.4448,1.4335,1.3993,1.3937,1.3823,1.349,1.3449,1.3441,1.3433,1.3417,1.285,1.1317,1.0105,0.9347,0.9074,0.6137,0.4305,0.4166,0.2959,0.2155,0.2155,0.2155,0.2155,0.2155,0.2155,0.2155,0.2155,0.2155,0.2155,3.1597,0.0,3.3148,3.2818,3.2158,3.1433,0.0,3.0345,2.9889,2.9986,2.9757,2.978,3.0652,3.0491,3.0606,3.1754,3.1961,3.2167,3.2833,3.7425,4.1994,4.5415,4.8492,5.0237,4.9939,5.0559,5.0834,5.049,5.0329,4.9939,4.9158,4.9962,5.0513,5.0627,5.0742,5.0811,5.0811,4.9299,4.7804,4.6304,4.3443,4.138,3.977,3.8567,3.7166,3.5605,3.5605,3.4875,3.3837,3.3751,3.3751,3.3837,3.3734,3.3297,3.2757,3.184,3.0631,2.9287,2.8251,2.7525,2.6983,2.6983,2.6939,2.6881,2.6881,2.6647,2.6383,2.6383,2.6574,2.6619,2.5576,2.543,2.5139,2.381,2.2313,2.0671,1.9329,1.7689,1.6045,1.499,1.4838,1.4797,1.4667,1.4643,1.4562,1.4343,1.4302,1.4278,1.4196,1.418,1.4131,1.4002,1.3863,1.3154,1.1895,1.0567,0.8764,0.6517,0.504,0.3806,0.2694,0.2423,0.2155,0.2155,0.2155,0.2155,0.2155,0.2155,0.2155,0.2155,0.2155,0.2155,3.0163,3.0279,3.0621,3.0407,3.0248,3.0159,2.9981,2.9981,3.005,3.0147,3.0009,2.9986,3.0537,3.0422,3.056,3.1639,3.18,3.2718,3.5336,3.9744,4.39,4.7183,4.9434,5.088,5.1293,5.1339,5.1247,5.1018,5.0972,5.0513,4.9525,5.0444,5.046,4.9198,4.9175,4.9175,4.9,4.7528,4.5621,4.3339,4.0773,3.9044,3.7854,3.6662,3.5653,3.4724,3.4724,3.4423,3.3837,3.3837,3.3837,3.3837,3.3837,3.3365,3.2419,3.151,3.0338,2.9106,2.8073,2.7408,2.6983,2.6983,2.6983,2.6983,2.6983,2.6969,2.6954,2.6954,2.6733,2.6369,2.5758,2.5052,2.4201,2.3017,2.165,2.0125,1.8754,1.7461,1.6294,1.5376,1.522,1.5187,1.5098,1.5009,1.4887,1.4708,1.4611,1.4529,1.444,1.4432,1.4391,1.4302,1.3688,1.2676,1.1442,0.9871,0.7898,0.5957,0.4572,0.3445,0.2313,0.2176,0.2169,0.2155,0.2155,0.2155,0.2155,0.2155,0.2155,0.2155,0.2155,0.2162,3.0399,3.0331,3.0308,3.0418,3.0281,3.0101,3.0101,3.017,3.0216,3.0216,3.0216,3.0239,3.0331,3.0468,3.0767,3.1364,3.1731,3.3614,3.8481,4.1558,4.4543,4.7872,4.9388,5.0582,5.173,5.1982,5.1844,5.1339,5.1707,5.1385,5.0099,5.0437,4.9846,4.7575,4.7247,4.6615,4.5809,4.4416,4.2399,3.9798,3.7332,3.593,3.5605,3.4273,3.3837,3.3837,3.3837,3.3837,3.3837,3.3837,3.3837,3.3837,3.3837,3.3213,3.225,3.1349,3.0109,2.8852,2.7896,2.732,2.713,2.7086,2.71,2.713,2.6836,2.7054,2.7314,2.7165,2.6542,2.5935,2.5478,2.4531,2.329,2.2095,2.1164,2.0077,1.8077,1.7253,1.6573,1.5663,1.5496,1.548,1.5512,1.5382,1.522,1.5033,1.4903,1.4757,1.4538,1.4538,1.4396,1.4215,1.3163,1.1884,1.0558,0.8826,0.7242,0.5955,0.4369,0.3075,0.2208,0.2198,0.2185,0.2169,0.2163,0.2163,0.2169,0.2169,0.2166,0.2162,0.2166,0.218,3.0859,3.0882,3.0675,2.9915,2.9619,2.9619,2.9619,2.9917,3.0216,3.0216,3.0216,3.0354,3.0813,3.157,3.2443,3.3384,3.4992,3.7425,4.1237,4.328,4.5209,4.7482,4.9778,5.0949,5.0306,5.1041,5.1316,5.0788,5.0811,5.0765,5.0536,4.9,4.8014,4.7553,4.551,4.287,4.0137,4.0773,4.0604,3.9347,3.6905,3.5659,3.5605,3.4273,3.3837,3.3837,3.3837,3.3837,3.3837,3.3837,3.3837,3.3837,3.3837,3.2926,3.1533,3.1331,3.0161,2.8424,2.7686,2.7627,2.7759,2.7495,2.7583,2.7502,2.6418,2.6322,2.6402,2.5321,2.5484,2.5478,2.3482,2.2686,2.2187,2.1124,2.0188,1.924,1.8141,1.7244,1.6268,1.5647,1.539,1.5333,1.5488,1.5496,1.5407,1.5228,1.5309,1.5268,1.4927,1.5017,1.4585,1.3355,1.2899,1.1901,0.9628,0.9071,0.7642,0.5233,0.4064,0.3119,0.224,0.2189,0.2184,0.223,0.2206,0.2206,0.2232,0.2232,0.2218,0.2193,0.2219,0.2221,3.0537,3.0399,3.0216,3.0466,3.0399,3.017,2.9619,2.9871,3.0285,3.0583,3.0652,3.0813,3.1318,3.2443,3.4004,3.614,3.8413,4.0663,4.2821,4.4681,4.6472,4.8217,4.9732,5.0627,5.0719,5.0588,5.0143,4.9652,4.8806,4.8205,4.7944,4.6609,4.5328,4.4153,4.2485,4.021,3.7062,3.7427,3.7222,3.6289,3.5096,3.4574,3.4574,3.3988,3.3837,3.3837,3.3614,3.3528,3.3528,3.3528,3.3528,3.3546,3.3751,3.2773,3.1209,3.01,2.906,2.8139,2.7832,2.7832,2.792,2.7788,2.7832,2.7647,2.6392,2.6293,2.6074,2.4202,2.4058,2.4227,2.3139,2.2088,2.1368,2.0906,2.0432,1.9947,1.8996,1.8698,1.7938,1.6751,1.6377,1.6182,1.5788,1.5723,1.5626,1.5536,1.552,1.5455,1.5285,1.4618,1.3945,1.3396,1.1792,1.0445,0.9381,0.8521,0.7105,0.499,0.3551,0.2768,0.2318,0.226,0.2241,0.227,0.224,0.2232,0.2245,0.2245,0.2238,0.2225,0.2238,0.2247,3.0329,3.0032,2.9848,3.0904,3.0997,3.0836,3.0537,3.0675,3.1066,3.1731,3.1892,3.1984,3.2236,3.3821,3.6002,3.8826,4.1397,4.3441,4.4543,4.6265,4.7918,4.9296,4.9824,5.0224,5.0517,4.9806,4.8836,4.7885,4.6816,4.599,4.5271,4.4329,4.2859,4.0955,3.9639,3.7821,3.5344,3.4786,3.4346,3.37,3.37,3.37,3.37,3.37,3.3751,3.382,3.3528,3.3409,3.3391,3.3306,3.3323,3.3426,3.3631,3.269,3.1209,2.9408,2.8541,2.8154,2.8081,2.811,2.8154,2.8081,2.7806,2.7392,2.6153,2.5684,2.5231,2.304,2.2556,2.2705,2.2705,2.1927,2.0985,2.0985,2.0985,2.0665,1.9875,1.9806,1.941,1.7682,1.7328,1.6975,1.6205,1.5926,1.5821,1.578,1.5699,1.5449,1.5042,1.4147,1.3282,1.2615,1.0693,0.9191,0.8726,0.754,0.6111,0.4596,0.3158,0.2378,0.2378,0.2328,0.2304,0.2311,0.2289,0.2277,0.2277,0.2277,0.227,0.2256,0.227,0.2282,3.0675,3.056,3.0193,3.0262,3.0443,3.1112,3.2971,3.3064,3.3059,3.4234,3.4532,3.4395,3.3935,3.6254,3.8941,4.1007,4.3487,4.5668,4.716,4.8286,4.9342,5.0398,5.0559,4.9972,4.8454,4.8342,4.7367,4.5315,4.5533,4.5387,4.4494,4.2611,4.105,4.0053,3.7446,3.5515,3.4546,3.3845,3.3388,3.3306,3.3306,3.3306,3.3306,3.3306,3.3511,3.3837,3.3802,3.3802,3.3768,3.3426,3.3477,3.3768,3.3443,3.2609,3.1225,3.0268,2.9464,2.8783,2.8505,2.8593,2.8769,2.8491,2.7805,2.6779,2.5516,2.4418,2.3152,2.1728,2.1427,2.1438,2.1438,2.1427,2.1254,2.1254,2.1254,2.1082,2.011,1.9785,1.9223,1.7647,1.7214,1.682,1.618,1.6032,1.5967,1.5796,1.591,1.5396,1.3778,1.3696,1.2747,1.0206,0.9864,0.8889,0.6798,0.571,0.4719,0.3978,0.2899,0.2378,0.2378,0.2348,0.2343,0.2371,0.2369,0.2369,0.2369,0.2369,0.2341,0.2289,0.2343,0.2341,2.9477,2.9665,2.9917,3.0743,3.1205,3.1809,3.273,3.3584,3.4475,3.5887,3.6438,3.6691,3.6828,3.8045,3.9905,4.2545,4.4566,4.6472,4.8308,4.8882,4.9365,5.0099,4.9238,4.8452,4.7641,4.5754,4.4254,4.332,4.2012,4.0933,4.0492,3.8956,3.7896,3.733,3.5742,3.4665,3.4102,3.3898,3.344,3.2912,3.2912,3.2912,3.2912,3.2912,3.3117,3.346,3.2981,3.3049,3.346,3.3066,3.3135,3.3494,3.2978,3.2337,3.1241,3.0454,2.9664,2.8871,2.8754,2.8316,2.7762,2.7493,2.6751,2.5568,2.4295,2.3656,2.2854,2.1599,2.1276,2.1276,2.1276,2.1276,2.1276,2.1276,2.1276,2.1276,2.0952,2.0716,2.019,1.8482,1.8109,1.7584,1.6196,1.6048,1.6024,1.5951,1.5999,1.5499,1.4052,1.318,1.183,0.9993,0.8959,0.7956,0.6661,0.5605,0.4785,0.3876,0.2978,0.2463,0.2463,0.2433,0.2423,0.2435,0.2416,0.2406,0.2406,0.2406,0.2395,0.2373,0.2395,0.2394,2.8648,2.8976,2.9481,3.0697,3.153,3.2314,3.3591,3.4981,3.6478,3.8504,3.8964,3.9055,3.9262,3.9561,4.0617,4.3165,4.514,4.7,4.886,4.925,4.9331,4.9095,4.8031,4.6854,4.5736,4.3432,4.1736,4.0985,3.9254,3.8016,3.7466,3.6549,3.5834,3.5285,3.4451,3.4019,3.3727,3.343,3.312,3.2689,3.2689,3.2741,3.2861,3.2861,3.3083,3.3426,3.2895,3.2963,3.3426,3.3032,3.3032,3.3306,3.3079,3.2452,3.1686,3.0763,2.9974,2.9197,2.8573,2.779,2.6991,2.6517,2.5568,2.4295,2.3496,2.2854,2.2384,2.1599,2.1276,2.1276,2.1276,2.1276,2.1276,2.1276,2.1276,2.1276,2.1276,2.1276,2.079,1.8981,1.8654,1.8164,1.6369,1.6048,1.6048,1.6048,1.5711,1.4878,1.3549,1.2136,1.0766,0.9448,0.838,0.7363,0.624,0.5509,0.4683,0.3595,0.2891,0.2533,0.2515,0.2495,0.2484,0.2484,0.2472,0.2466,0.2466,0.2466,0.2457,0.2438,0.2458,0.2457,2.8648,2.87,2.8953,2.9986,3.1019,3.2718,3.6254,3.7696,3.9198,4.2385,4.2316,4.1443,4.0938,4.0846,4.1329,4.2844,4.5209,4.739,4.8905,4.9571,4.9269,4.7684,4.6963,4.5422,4.2171,4.1328,4.0142,3.819,3.7631,3.7062,3.6237,3.5815,3.5267,3.4577,3.3768,3.3321,3.3256,3.2474,3.233,3.2689,3.2689,3.2895,3.3272,3.3272,3.3477,3.3837,3.3837,3.3837,3.3802,3.3426,3.3272,3.3306,3.37,3.3365,3.2452,3.1686,3.0917,2.9819,2.7776,2.6991,2.6833,2.5409,2.4295,2.3175,2.3175,2.2223,2.1276,2.1276,2.1276,2.1276,2.1276,2.1276,2.1276,2.1276,2.1276,2.1276,2.1276,2.1276,2.0779,1.8981,1.8654,1.8164,1.6369,1.6048,1.6048,1.6048,1.4878,1.3549,1.2222,1.0893,0.9559,0.8227,0.7987,0.7308,0.5541,0.527,0.4413,0.2645,0.2619,0.2575,0.2518,0.2515,0.2515,0.2515,0.2545,0.256,0.256,0.256,0.2529,0.247,0.2532,0.2527,2.8241,2.8723,2.9596,3.0973,3.2604,3.4831,3.8344,3.9127,4.0094,4.3877,4.4153,4.3441,4.2568,4.2408,4.2683,4.3464,4.514,4.6885,4.8377,4.7795,4.6839,4.6063,4.3778,4.2028,4.0974,3.9375,3.8186,3.7613,3.6952,3.6219,3.543,3.499,3.4554,3.4018,3.3625,3.3321,3.329,3.3008,3.2981,3.31,3.3374,3.3272,3.2861,3.2861,3.3066,3.3426,3.3152,3.334,3.3837,3.3717,3.3665,3.3683,3.3802,3.3365,3.2588,3.2299,3.0732,2.8715,2.809,2.6346,2.4295,2.3816,2.2866,2.1911,2.1911,2.1599,2.1276,2.1276,2.1276,2.1276,2.1276,2.1276,2.1276,2.1276,2.1276,2.1276,2.1276,2.079,2.013,1.8981,1.8164,1.7355,1.6213,1.6048,1.6048,1.6048,1.4878,1.3217,1.1059,0.9559,0.8562,0.806,0.804,0.7531,0.6382,0.5636,0.4791,0.3679,0.2958,0.2594,0.2577,0.2575,0.2575,0.2575,0.2585,0.2579,0.256,0.256,0.254,0.2502,0.2541,0.2549,2.8356,2.9022,3.0193,3.1938,3.3729,3.6117,4.0066,4.1971,4.3602,4.6058,4.6173,4.5438,4.4222,4.3648,4.3533,4.4038,4.4528,4.5405,4.669,4.5515,4.406,4.3194,4.1384,3.9907,3.8822,3.7669,3.6806,3.6494,3.587,3.5357,3.5045,3.4623,3.4193,3.3786,3.3661,3.3423,3.3223,3.33,3.334,3.3494,3.3734,3.3597,3.3135,3.3135,3.3272,3.3477,3.3237,3.3409,3.3837,3.3837,3.3837,3.3685,3.3061,3.2435,3.196,3.104,2.9323,2.7605,2.6819,2.5079,2.3175,2.2545,2.1911,2.1276,2.1276,2.1276,2.1276,2.1276,2.1276,2.1276,2.1276,2.1276,2.1276,2.1276,2.1276,2.1276,2.1276,2.0617,1.9795,1.8818,1.801,1.7035,1.6213,1.6048,1.5883,1.5216,1.3549,1.1718,0.9559,0.8562,0.806,0.806,0.806,0.7725,0.6717,0.5843,0.5005,0.4034,0.3155,0.2638,0.2638,0.2615,0.2607,0.2619,0.262,0.2612,0.2594,0.2594,0.2572,0.2533,0.2575,0.2587,2.8838,2.9573,3.0859,3.2971,3.4854,3.7311,4.1581,4.5576,4.8377,4.8331,4.8033,4.7298,4.5783,4.4727,4.4222,4.4612,4.3982,4.3631,4.4507,4.3294,4.1662,4.0046,3.9687,3.859,3.6367,3.6127,3.5779,3.5027,3.466,3.4605,3.4954,3.4642,3.4375,3.3925,3.3907,3.3775,3.3272,3.3237,3.3391,3.3734,3.3734,3.3734,3.3734,3.3768,3.3785,3.3785,3.382,3.3837,3.3837,3.3802,3.3634,3.3314,3.1912,3.113,3.0823,2.8515,2.7278,2.6648,2.4602,2.3496,2.2866,2.1761,2.1276,2.1276,2.1276,2.1276,2.1276,2.1276,2.1276,2.1276,2.1276,2.1276,2.1276,2.1276,2.1276,2.1114,2.1114,2.0455,1.9479,1.8818,1.7846,1.7035,1.6213,1.5883,1.5381,1.388,1.1558,0.9559,0.8227,0.806,0.806,0.806,0.806,0.7725,0.6717,0.5879,0.5043,0.4036,0.3195,0.2692,0.2692,0.2639,0.2623,0.265,0.2652,0.265,0.2647,0.2647,0.2619,0.2564,0.262,0.2632,2.9894,3.0629,3.1984,3.444,3.8275,4.1926,4.3716,4.6334,4.8286,4.7872,4.8331,4.8331,4.6816,4.6357,4.5989,4.5301,4.5348,4.5292,4.4717,4.2852,4.117,3.9574,3.7682,3.6367,3.576,3.5467,3.5082,3.4568,3.4752,3.4788,3.455,3.477,3.4649,3.4297,3.4031,3.3775,3.3272,3.2963,3.2844,3.2929,3.2929,3.2929,3.2946,3.3254,3.3391,3.3409,3.3717,3.3837,3.382,3.3511,3.2609,3.1523,3.107,3.0143,2.8937,2.8584,2.7435,2.5859,2.5066,2.3656,2.2073,2.1438,2.1276,2.1276,2.1276,2.1276,2.1276,2.1276,2.1276,2.1276,2.1276,2.1276,2.1276,2.1276,2.079,2.0292,2.0292,1.899,1.7846,1.7691,1.6871,1.6213,1.6048,1.5208,1.3714,1.1225,1.0393,0.9559,0.8227,0.806,0.806,0.806,0.806,0.7725,0.6717,0.5879,0.5043,0.4036,0.3195,0.2692,0.2692,0.268,0.2676,0.2683,0.2683,0.2671,0.2647,0.2647,0.2628,0.2593,0.263,0.2643,3.0216,3.1318,3.3315,3.6828,4.0778,4.4015,4.4796,4.6357,4.7597,4.7321,4.8079,4.8377,4.7115,4.6678,4.6034,4.43,4.3636,4.2818,4.1268,3.9493,3.8078,3.7391,3.616,3.5265,3.5064,3.4844,3.4568,3.4147,3.4495,3.4715,3.4697,3.4938,3.4829,3.4439,3.4115,3.3569,3.2981,3.2792,3.2689,3.2689,3.2689,3.2587,3.2433,3.2809,3.2998,3.2998,3.3203,3.2926,3.2307,3.2126,3.1109,2.9595,2.8981,2.8028,2.7158,2.654,2.5555,2.4455,2.3976,2.3027,2.1761,2.1438,2.1276,2.1276,2.1276,2.1276,2.1276,2.1276,2.1276,2.1276,2.1276,2.1276,2.1276,2.1276,2.0617,1.9967,1.9967,1.8664,1.7363,1.7363,1.6542,1.6048,1.6048,1.4383,1.2388,1.0393,0.9559,0.8896,0.8227,0.806,0.806,0.806,0.806,0.7725,0.6717,0.5879,0.5043,0.4036,0.3195,0.2692,0.2692,0.2692,0.2692,0.2692,0.2692,0.2677,0.2647,0.2661,0.2646,0.2602,0.2662,0.2683,3.0331,3.2099,3.49,3.8918,4.2224,4.4589,4.5002,4.5944,4.6747,4.6747,4.7482,4.7849,4.6908,4.6334,4.5256,4.2919,4.1305,3.9708,3.7547,3.6199,3.5222,3.5027,3.4917,3.4715,3.4422,3.433,3.4202,3.3927,3.422,3.4587,3.5009,3.483,3.4719,3.4351,3.3863,3.3197,3.2501,3.2364,3.2296,3.2296,3.2364,3.2261,3.2039,3.2347,3.2518,3.2587,3.2363,3.1663,3.0712,3.041,2.9351,2.7856,2.6615,2.5976,2.5335,2.4209,2.352,2.3211,2.2728,2.2406,2.1922,2.1438,2.1276,2.1276,2.1276,2.1276,2.1276,2.1276,2.1276,2.1276,2.1276,2.1276,2.1276,2.1114,2.0455,1.9805,1.9805,1.8337,1.7199,1.7026,1.6542,1.5875,1.5381,1.3549,1.1558,1.006,0.8896,0.806,0.806,0.806,0.806,0.806,0.7893,0.7558,0.655,0.5712,0.4707,0.3868,0.3029,0.2692,0.2692,0.2692,0.2692,0.2692,0.2692,0.268,0.2656,0.268,0.2667,0.2619,0.2695,0.2717,3.079,3.366,3.6989,3.8918,4.1673,4.3923,4.3992,4.5163,4.6219,4.6219,4.6678,4.6908,4.6334,4.5806,4.4846,4.2853,4.2005,4.0477,3.7648,3.6774,3.6138,3.5134,3.4403,3.4092,3.4367,3.4092,3.4018,3.4293,3.4367,3.4587,3.5009,3.4448,3.4037,3.3961,3.2685,3.1861,3.1713,3.1063,3.072,3.0737,3.108,3.1388,3.1645,3.1696,3.1902,3.2083,3.1203,3.0627,3.0362,2.8852,2.733,2.5837,2.5838,2.5023,2.3793,2.3744,2.384,2.368,2.2889,2.2567,2.2406,2.1599,2.1276,2.1276,2.1276,2.1276,2.1276,2.1276,2.1276,2.1276,2.1276,2.1276,2.1114,2.0292,1.9469,1.8818,1.8818,1.7519,1.6213,1.6213,1.6048,1.5216,1.3052,1.2388,1.1225,0.8729,0.8227,0.806,0.806,0.806,0.806,0.806,0.7391,0.655,0.5712,0.4707,0.3868,0.2861,0.2692,0.2692,0.2692,0.2692,0.2692,0.2692,0.2692,0.269,0.2687,0.269,0.2688,0.268,0.2692,0.2697,3.1915,3.3775,3.6048,3.8987,4.0938,4.2431,4.3556,4.4336,4.4819,4.4819,4.5002,4.5255,4.5622,4.4709,4.2989,4.0843,3.9595,3.8001,3.573,3.5123,3.4947,3.433,3.4037,3.3963,3.4367,3.4238,3.422,3.4385,3.4623,3.4642,3.4367,3.4036,3.3643,3.3233,3.2158,3.1442,3.1251,3.0703,3.0429,3.0429,3.06,3.0772,3.0943,3.0293,3.0151,3.0513,2.9937,2.878,2.7329,2.6749,2.5617,2.4136,2.4579,2.4194,2.349,2.3744,2.368,2.3359,2.2728,2.2406,2.2084,2.1438,2.1276,2.1276,2.1276,2.1276,2.1276,2.1276,2.1276,2.1276,2.1276,2.0952,2.0486,2.0129,1.9077,1.8037,1.8147,1.6931,1.6073,1.617,1.5443,1.4246,1.2489,1.1605,1.0393,0.8395,0.806,0.806,0.806,0.806,0.806,0.806,0.7725,0.6888,0.5544,0.5043,0.4204,0.2861,0.2692,0.2692,0.2692,0.2692,0.2692,0.2692,0.2692,0.2692,0.2692,0.271,0.2709,0.2692,0.2728,0.2392,3.2282,3.3338,3.4762,3.793,3.9675,4.1053,4.2683,4.3349,4.3648,4.3785,4.3808,4.4015,4.4658,4.3354,4.1337,3.9146,3.7445,3.5915,3.3992,3.3817,3.3817,3.3817,3.3725,3.378,3.4073,3.4,3.3982,3.4092,3.4293,3.4238,3.3696,3.3408,3.2967,3.2438,3.1566,3.0909,3.0737,3.0343,3.0189,3.0292,3.0292,3.0072,2.9883,2.9126,2.8428,2.7946,2.8038,2.691,2.4943,2.4783,2.4048,2.3092,2.3562,2.3512,2.3416,2.3608,2.3371,2.305,2.2567,2.2245,2.1761,2.1438,2.1276,2.1276,2.1276,2.1276,2.1276,2.1276,2.1276,2.1276,2.1276,2.0617,2.0008,1.9851,1.8613,1.7399,1.7207,1.6634,1.6081,1.6211,1.4961,1.3583,1.2527,1.1121,0.9726,0.8227,0.806,0.806,0.806,0.806,0.806,0.806,0.7893,0.7056,0.5544,0.5211,0.4372,0.2861,0.2692,0.2692,0.2692,0.2692,0.2692,0.2692,0.2692,0.2692,0.2692,0.2716,0.2714,0.2694,0.2397,0.1717,3.1111,3.2535,3.4165,3.49,3.7609,4.0249,4.0846,4.2086,4.3257,4.3716,4.3808,4.3693,4.328,4.21,4.0558,3.9041,3.7184,3.5431,3.3955,3.3817,3.3817,3.3817,3.3486,3.3266,3.3285,3.2918,3.2845,3.3248,3.2936,3.2911,3.3224,3.1962,3.129,3.172,3.0252,2.959,2.995,2.9573,2.9556,2.9932,2.9932,2.9412,2.8355,2.8551,2.7154,2.4458,2.4769,2.4757,2.4502,2.3304,2.2967,2.3068,2.3357,2.3305,2.3187,2.3199,2.305,2.2567,2.2084,2.1922,2.1761,2.1438,2.1276,2.1276,2.1276,2.1276,2.1276,2.1276,2.1276,2.1276,2.1276,2.0617,1.9805,1.9,1.8019,1.7199,1.6221,1.6048,1.6048,1.6056,1.4886,1.3549,1.2395,1.1059,0.9726,0.8227,0.806,0.806,0.806,0.806,0.806,0.806,0.7223,0.6382,0.5544,0.4539,0.37,0.2692,0.2692,0.2692,0.2692,0.2692,0.2692,0.2692,0.2692,0.2692,0.2692,0.2694,0.2694,0.2692,0.1347,0.0842,3.1502,3.203,3.2833,3.4004,3.5497,3.6989,3.8137,3.9561,4.08,4.1306,4.1926,4.2431,4.2568,4.0979,3.934,3.8491,3.6171,3.4352,3.3817,3.3817,3.3817,3.3817,3.3468,3.3321,3.3578,3.323,3.3175,3.3578,3.323,3.2874,3.2503,3.1819,3.1202,3.0833,3.0032,2.9641,2.9521,2.9145,2.9162,2.9521,2.9521,2.8893,2.7868,2.7107,2.5811,2.4024,2.3459,2.3141,2.3179,2.3022,2.2805,2.2614,2.3052,2.3128,2.2889,2.2889,2.2567,2.2084,2.1922,2.1761,2.1438,2.1276,2.1276,2.1276,2.1276,2.1276,2.1276,2.1276,2.1276,2.1114,2.0617,1.9905,1.8891,1.7688,1.7146,1.6833,1.6259,1.6121,1.6081,1.6186,1.4282,1.258,1.234,1.0273,0.8729,0.8227,0.806,0.806,0.806,0.806,0.8085,0.8142,0.7812,0.7131,0.5606,0.5097,0.4236,0.2862,0.2692,0.2692,0.2692,0.2692,0.2692,0.2692,0.2692,0.2692,0.2692,0.2692,0.2692,0.2692,0.1346,0.0168,3.18,3.1754,3.2167,3.3843,3.428,3.4762,3.6622,3.7678,3.8481,3.9147,4.0112,4.0838,4.0841,3.9347,3.8067,3.8067,3.5569,3.3615,3.3615,3.3486,3.3413,3.3413,3.3065,3.2973,3.3376,3.2918,3.2771,3.3175,3.271,3.215,3.1738,3.1194,3.0618,3.0091,2.9722,2.9453,2.9316,2.8956,2.8956,2.9316,2.8774,2.7963,2.6707,2.563,2.4378,2.3168,2.2399,2.2157,2.2416,2.2613,2.271,2.2588,2.2782,2.2648,2.2406,2.2406,2.2084,2.1761,2.1761,2.1599,2.1276,2.1276,2.1276,2.1276,2.1276,2.1276,2.1297,2.1373,2.1231,2.0742,2.0242,1.9309,1.809,1.6784,1.6584,1.66,1.6357,1.6211,1.6146,1.6211,1.395,1.2081,1.2173,0.9943,0.806,0.806,0.806,0.806,0.806,0.806,0.8085,0.8146,0.8154,0.7473,0.5608,0.5439,0.4743,0.2862,0.2692,0.2697,0.2707,0.2698,0.2698,0.2707,0.2698,0.2692,0.2692,0.2692,0.2698,0.2707,0.0842,-0.101,0.0,0.0,0.0,3.4211,3.3958,3.3866,3.63,3.6507,3.6461,3.7494,3.8527,3.9021,3.8309,3.7276,3.697,3.786,3.5297,3.3211,3.3211,3.2863,3.2625,3.2625,3.2258,3.2184,3.257,3.1873,3.1561,3.2001,3.1374,3.0912,3.091,3.0162,2.9674,2.9282,2.8939,2.8939,2.9299,2.8939,2.8956,2.9316,2.7833,2.6501,2.5037,2.4008,2.2885,2.1523,2.1597,2.2115,2.2645,2.22,2.2353,2.2665,2.236,2.2031,2.1922,2.1922,2.1599,2.1276,2.1276,2.1276,2.1276,2.1276,2.1276,2.1276,2.1276,2.1276,2.1319,2.1545,2.0951,2.0126,2.0291,1.8825,1.7087,1.6451,1.6324,1.6316,1.6316,1.6316,1.6259,1.5916,1.388,1.2056,1.2056,0.9893,0.806,0.806,0.806,0.806,0.806,0.806,0.8064,0.8064,0.8064,0.7394,0.5549,0.5382,0.4544,0.2864,0.2695,0.2709,0.2737,0.2712,0.2709,0.2737,0.2709,0.2694,0.2692,0.2694,0.2709,0.2566,-0.0,-0.2877,3.242,0.0,0.0,0.0,0.0,0.0,3.2604,3.343,3.4395,3.5405,3.6714,3.7816,3.8335,3.6932,3.5935,3.6515,3.4464,3.2771,3.2771,3.2936,3.3046,3.3046,3.268,3.2588,3.301,3.2038,3.1541,3.1987,3.1389,3.0781,3.0513,2.99,2.9189,2.8511,2.8408,2.8545,2.8922,2.8545,2.8682,2.9316,2.7833,2.6476,2.5222,2.4104,2.2844,2.1337,2.1668,2.1813,2.1754,2.1774,2.1894,2.1896,2.1916,2.1706,2.1438,2.1438,2.1438,2.1276,2.1276,2.1276,2.1276,2.1276,2.1276,2.1276,2.1276,2.1276,2.1297,2.1351,2.0711,1.9801,1.8783,1.7539,1.6676,1.6779,1.6787,1.6698,1.6698,1.5732,1.5049,1.46,1.2388,1.0726,1.0726,0.9226,0.806,0.806,0.806,0.806,0.806,0.806,0.8089,0.8154,0.765,0.6823,0.5676,0.4994,0.3962,0.293,0.2758,0.2762,0.277,0.2762,0.2752,0.2737,0.2729,0.2714,0.2692,0.2714,0.2729,0.2566,-0.0172,-0.293,3.2902,3.265,3.2558,3.2833,0.0,0.0,3.219,3.2627,3.3063,3.3453,3.4716,3.5808,3.6139,3.4941,3.3916,3.4065,3.2535,3.1634,3.2478,3.2514,3.2459,3.2459,3.2093,3.1946,3.2184,3.1431,3.1156,3.1529,3.0871,3.0248,2.9813,2.9189,2.8648,2.8203,2.8032,2.8134,2.8528,2.8152,2.834,2.9093,2.6814,2.5502,2.4861,2.309,2.1667,2.0839,2.1049,2.1197,2.1153,2.1234,2.1323,2.1567,2.1552,2.134,2.1276,2.1276,2.1276,2.1276,2.1276,2.1276,2.1276,2.1276,2.1276,2.1276,2.1276,2.1276,2.1297,2.0895,2.0005,1.8976,1.7704,1.6842,1.6519,1.6909,1.6925,1.6836,1.6755,1.5101,1.3756,1.4027,1.1926,1.006,1.006,0.9063,0.806,0.806,0.806,0.806,0.806,0.806,0.8081,0.8134,0.7293,0.6476,0.5515,0.468,0.3825,0.2784,0.2795,0.2801,0.2801,0.2789,0.2774,0.2757,0.2744,0.2735,0.2731,0.2722,0.2043,0.1026,-0.0698,-0.2978,3.3453,3.3109,3.3155,3.4854,3.3637,0.0,3.3476,3.3063,3.2282,3.1846,3.2833,3.3481,3.27,3.212,3.1656,3.1231,3.0276,3.0167,3.2056,3.1744,3.1304,3.1304,3.1011,3.0809,3.0846,3.0393,3.0392,3.066,2.9977,2.9396,2.8665,2.8357,2.8152,2.8066,2.7775,2.7775,2.8117,2.7775,2.7997,2.8639,2.5449,2.4004,2.4167,2.1469,2.0306,2.0184,2.0385,2.0569,2.0649,2.0548,2.0943,2.1501,2.109,2.106,2.1243,2.1265,2.1276,2.1276,2.1276,2.1276,2.1276,2.1276,2.1276,2.1276,2.1276,2.1276,2.1157,2.0364,1.907,1.773,1.6916,1.6584,1.6633,1.6836,1.6852,1.6787,1.6641,1.4515,1.2911,1.381,1.1813,0.9893,0.9893,0.8896,0.806,0.806,0.8068,0.8072,0.8064,0.8068,0.8076,0.8076,0.7234,0.6259,0.5482,0.4502,0.366,0.2793,0.2819,0.2833,0.2833,0.2807,0.2791,0.2784,0.2754,0.2751,0.2778,0.2731,0.1361,-0.1375,-0.1416,-0.284,3.4509,3.444,3.4257,3.3821,3.3637,0.0,3.2397,3.203,3.1892,3.1777,3.1984,3.2036,3.1416,3.1042,3.0595,3.0049,2.9464,2.947,3.0516,3.0809,3.0901,3.0901,3.0846,3.0792,3.0864,3.0176,2.9708,2.9608,2.8963,2.8363,2.786,2.8066,2.7912,2.7313,2.7501,2.7638,2.7723,2.7638,2.773,2.7831,2.5171,2.3736,2.3515,2.1339,2.0161,1.9893,2.0236,2.0318,2.0071,2.0114,2.0396,2.0819,2.105,2.1114,2.0996,2.12,2.1276,2.1276,2.1276,2.1276,2.1276,2.1276,2.1276,2.1276,2.1276,2.1276,2.0962,1.9519,1.8367,1.7565,1.6713,1.6584,1.6657,1.6982,1.6844,1.6665,1.6779,1.4508,1.2458,1.2602,1.0472,0.8562,0.8562,0.8227,0.806,0.806,0.8125,0.8146,0.8072,0.8125,0.817,0.817,0.6639,0.5667,0.5605,0.4046,0.3007,0.2855,0.2861,0.2866,0.2866,0.2859,0.2833,0.2784,0.2754,0.274,0.2747,0.2784,0.1408,-0.1421,-0.143,-0.2863,3.4854,3.4808,3.4739,3.4463,3.4188,0.0,0.0,3.2695,3.2374,3.1846,3.1349,3.0935,3.0668,2.9576,2.874,2.8878,2.8314,2.8046,2.8664,2.955,3.0112,2.9646,2.9646,2.9523,2.9259,2.9012,2.8817,2.8697,2.8243,2.7809,2.7621,2.7621,2.7364,2.6799,2.7141,2.7244,2.7056,2.7244,2.7334,2.7437,2.4654,2.3181,2.2983,2.0769,1.958,1.9468,1.9938,2.0145,1.9854,1.9984,2.0102,2.0253,2.0737,2.091,2.0931,2.119,2.1276,2.1276,2.1276,2.1276,2.1276,2.1276,2.1276,2.1276,2.1276,2.0617,1.9805,1.8981,1.7817,1.6827,1.6582,1.6576,1.6763,1.6942,1.6844,1.6714,1.6714,1.4451,1.224,1.2173,0.9933,0.8076,0.8121,0.813,0.813,0.813,0.8207,0.8232,0.8142,0.8211,0.8264,0.8264,0.7063,0.607,0.5643,0.426,0.3393,0.2872,0.2887,0.2889,0.2875,0.2874,0.2852,0.2807,0.2791,0.2784,0.2784,0.2121,0.0712,-0.1424,-0.2158,-0.3593,3.5634,3.552,3.5543,3.5634,3.5198,3.4601,0.0,0.0,0.0,3.2099,3.0912,3.0166,2.997,2.8227,2.7137,2.7795,2.7142,2.6727,2.714,2.8183,2.8773,2.8282,2.802,2.7759,2.7328,2.7537,2.7678,2.7741,2.7467,2.7278,2.7278,2.7073,2.6782,2.6388,2.6833,2.6884,2.6491,2.6747,2.6957,2.6902,2.3883,2.2525,2.2513,2.0221,1.9176,1.9241,1.9661,1.9844,1.9865,2.0059,2.0027,1.9898,2.0382,2.0673,2.0867,2.1114,2.1243,2.1276,2.1276,2.1276,2.1276,2.1276,2.1114,2.1114,2.1114,1.9805,1.8491,1.8491,1.7321,1.6308,1.6349,1.66,1.686,1.6893,1.6852,1.6763,1.6609,1.4372,1.2185,1.2075,0.9893,0.8085,0.8158,0.817,0.817,0.817,0.8248,0.8281,0.8207,0.826,0.8321,0.8358,0.7302,0.646,0.5662,0.4644,0.3769,0.2874,0.2896,0.2898,0.2875,0.2868,0.2853,0.2829,0.2829,0.2829,0.2829,0.1071,-0.0357,-0.1599,-0.3065,-0.4324,3.816,3.816,3.7839,3.6507,3.6782,3.6759,3.4509,0.0,3.3637,3.2604,0.0,2.9851,2.8964,0.0,0.0,2.6865,2.6583,2.6501,2.6778,2.6768,2.675,2.7071,2.6501,2.6211,2.6504,2.6295,2.6148,2.6182,2.6148,2.6131,2.6131,2.6405,2.6388,2.6011,2.6696,2.6884,2.6491,2.6248,2.6183,2.6136,2.3233,2.1975,2.2128,2.0025,1.9262,1.9478,1.9736,1.9844,1.9854,1.9876,1.9876,1.9898,2.0382,2.0576,2.063,2.0867,2.1093,2.1276,2.1276,2.1276,2.1276,2.1276,2.079,2.013,2.013,1.899,1.7527,1.7519,1.6833,1.6341,1.6503,1.6698,1.6893,1.7047,1.6844,1.6609,1.6584,1.4287,1.2075,1.2056,0.9893,0.8064,0.8076,0.8076,0.8076,0.8076,0.8154,0.8211,0.8199,0.8207,0.8277,0.844,0.6812,0.5605,0.5719,0.4126,0.3053,0.2874,0.2876,0.2878,0.2874,0.2848,0.2831,0.2829,0.2829,0.2829,0.2829,0.0178,-0.1261,-0.1452,-0.2883,-0.4328,3.8665,3.878,3.878,3.7839,3.7701,3.7425,3.6071,3.5083,3.4349,3.3912,0.0,0.0,0.0,0.0,0.0,0.0,2.5675,2.574,2.5804,2.5377,2.529,2.5898,2.5652,2.5488,2.5466,2.5594,2.5515,2.5309,2.5686,2.584,2.5617,2.596,2.5994,2.5617,2.5982,2.5963,2.5578,2.5545,2.5577,2.5494,2.2986,2.1776,2.1786,1.981,1.9068,1.9305,1.9542,1.9725,1.9844,1.9844,1.9844,1.9876,2.0231,2.0447,2.0587,2.0823,2.106,2.1276,2.1276,2.1276,2.1276,2.1276,2.079,1.9967,1.9967,1.8827,1.7363,1.7363,1.6833,1.6316,1.6397,1.6633,1.6868,1.6942,1.6844,1.6738,1.6738,1.4479,1.2307,1.2386,1.0184,0.8301,0.8301,0.8256,0.824,0.8293,0.8334,0.8358,0.8358,0.8358,0.8407,0.8538,0.7275,0.6216,0.5736,0.4487,0.3412,0.2874,0.2874,0.2874,0.2874,0.2861,0.2855,0.2855,0.2855,0.2855,0.2855,-0.0,-0.1456,-0.1654,-0.3818,-0.5261,3.9193,3.9446,3.9721,3.8803,3.839,3.7999,3.7219,3.6415,3.568,3.5106,3.3394,0.0,0.0,0.0,2.6609,2.5785,0.0,2.5318,2.5423,2.4803,2.4597,2.4982,2.5023,2.481,2.4521,2.4847,2.4949,2.4675,2.5172,2.5395,2.5223,2.548,2.5383,2.4998,2.5344,2.5255,2.476,2.4754,2.4953,2.5123,2.3,2.1897,2.171,1.9968,1.9238,1.9252,1.9424,1.9628,1.9844,1.9844,1.9844,1.9876,2.0113,2.0361,2.0587,2.0823,2.106,2.1276,2.1276,2.1276,2.1276,2.0952,2.0292,1.9642,1.9316,1.8174,1.7035,1.7026,1.6634,1.6259,1.6357,1.6576,1.6803,1.6901,1.6885,1.6852,1.6852,1.4485,1.2533,1.2637,1.0389,0.8489,0.8534,0.8448,0.8395,0.846,0.8452,0.8452,0.8501,0.8464,0.8481,0.8595,0.7691,0.6793,0.5739,0.4845,0.3949,0.2874,0.2874,0.2874,0.2874,0.2874,0.2874,0.2874,0.2882,0.2886,0.2886,-0.0,-0.1469,-0.1665,-0.4591,-0.5856,4.041,4.0732,4.103,3.9078,3.8918,3.8872,3.7379,3.777,3.7907,3.591,3.4202,3.2559,3.1023,2.8333,2.6458,2.6824,2.6054,0.0,0.0,2.5258,2.4812,2.4812,2.4487,2.411,2.3768,2.4059,2.4264,2.4247,2.4264,2.4453,2.4812,2.4847,2.4513,2.3937,2.4977,2.5001,2.4039,2.413,2.4451,2.5123,2.3275,2.2284,2.2013,2.0898,2.0048,1.9488,1.9499,1.9628,1.9844,1.9844,1.9844,1.9876,2.0113,2.0361,2.0587,2.0823,2.106,2.1276,2.1276,2.1276,2.1114,2.0292,1.9469,1.8654,1.7682,1.6871,1.6048,1.6048,1.6048,1.6137,1.6479,1.6584,1.6674,1.7023,1.6974,1.6852,1.6852,1.4569,1.2649,1.2649,1.0389,0.8526,0.8697,0.8583,0.8468,0.8473,0.8395,0.8403,0.8579,0.8448,0.8407,0.8591,0.764,0.6738,0.5736,0.4845,0.3949,0.2874,0.2874,0.2874,0.2874,0.2874,0.2874,0.2874,0.2901,0.2915,0.2915,-0.0,-0.1479,-0.1665,-0.4438,-0.5921,4.2201,4.2545,4.2568,4.0571,4.0433,4.0318,3.8481,3.8573,3.8549,3.6725,3.5945,3.4763,3.221,2.9909,2.8095,2.7276,2.6353,2.5703,0.0,2.5343,2.5189,2.5189,2.4624,2.4093,2.3717,2.3802,2.3871,2.3853,2.4093,2.4299,2.4419,2.4675,2.4597,2.4267,2.4396,2.4261,2.3654,2.3503,2.3821,2.4476,2.3014,2.2191,2.1735,2.0635,1.9798,1.9273,1.9273,1.9488,1.9844,1.9844,1.9844,1.9887,2.0285,2.049,2.0587,2.0823,2.106,2.1276,2.1276,2.1276,2.1114,2.0292,1.9469,1.8519,1.7835,1.6875,1.6219,1.6219,1.6308,1.6397,1.6397,1.6576,1.6787,1.6909,1.708,1.721,1.721,1.4963,1.3083,1.3169,1.0826,0.8844,0.8905,0.8864,0.8807,0.8746,0.8611,0.8558,0.8677,0.8587,0.8538,0.8603,0.7732,0.6838,0.5741,0.4307,0.3233,0.2874,0.2874,0.2874,0.2874,0.2874,0.2883,0.2901,0.2931,0.2956,0.2976,-0.0,-0.1514,-0.1714,-0.473,-0.6019,4.2959,4.3303,4.3418,4.1765,4.1604,4.1374,3.9538,3.951,3.922,3.7417,3.6566,3.5593,3.3341,3.0898,2.888,2.7893,2.6784,2.6011,0.0,2.5566,2.5566,2.5566,2.4898,2.4282,2.3905,2.3888,2.3768,2.3494,2.3939,2.4299,2.4436,2.4336,2.4228,2.4284,2.3927,2.35,2.3217,2.3192,2.3442,2.4086,2.342,2.2804,2.2284,2.1183,2.0368,1.9726,1.9289,1.9413,1.9844,1.9844,1.9844,1.9898,2.0382,2.0565,2.0608,2.092,2.119,2.1405,2.1405,2.1448,2.136,2.02,1.9367,1.8735,1.7539,1.6902,1.6414,1.6479,1.6487,1.6487,1.6495,1.6674,1.6868,1.6933,1.7218,1.7298,1.6759,1.484,1.3102,1.2639,1.0591,0.8922,0.8954,0.8958,0.895,0.8922,0.8766,0.8685,0.8771,0.8681,0.8619,0.8648,0.8159,0.7262,0.5954,0.3958,0.2874,0.2874,0.2883,0.2889,0.2889,0.2909,0.2941,0.298,0.2999,0.3031,0.3071,-0.0,-0.1542,-0.1546,-0.4802,-0.6098]},{"header":{"parameterUnit":"m.s-1","parameterCategory":1,"la1":30.6,"la2":29.2853,"lo1":-89.7004,"lo2":-87.6739,"dy":0.0162,"dx":0.0183,"nx":112,"ny":82,"refTime":"2024-03-21T06:00:00:Z","depth":0,"parameterNumber":3,"parameterNumberName":"V-component_of_WINDS"},"data":[0.0,0.0,0.0,0.0,0.0,0.0,0.0,0.0,0.0,0.0,0.0,0.0,0.0,0.0,0.0,0.0,0.0,0.0,0.0,0.0,0.0,0.0,0.0,0.0,0.0,0.0,0.0,0.0,0.0,0.0,0.0,0.0,0.0,0.0,0.0,0.0,0.0,0.0,0.0,0.0,0.0,0.0,0.0,0.0,0.0,0.0,0.0,0.0,0.0,0.0,0.0,0.0,0.0,0.0,0.0,0.0,0.0,0.0,0.0,0.0,0.0,0.0,0.0,0.0,0.0,0.0,0.0,0.0,0.0,0.0,0.0,0.0,0.0,0.0,0.0,0.0,0.0,0.0,0.0,0.0,0.0,0.0,0.0,0.0,0.0,0.0,0.0,0.0,0.0,0.0,-2.7164,-2.9119,-3.3408,-3.6146,-3.6266,-3.593,-3.399,-2.9872,0.0,0.0,0.0,0.0,0.0,0.0,0.0,0.0,0.0,0.0,0.0,0.0,0.0,0.0,0.0,0.0,0.0,0.0,0.0,0.0,0.0,0.0,0.0,0.0,0.0,0.0,0.0,0.0,0.0,0.0,0.0,0.0,0.0,0.0,0.0,0.0,0.0,0.0,0.0,0.0,0.0,0.0,0.0,0.0,0.0,0.0,0.0,0.0,0.0,0.0,0.0,0.0,0.0,0.0,0.0,0.0,0.0,0.0,0.0,0.0,0.0,0.0,0.0,0.0,0.0,0.0,0.0,0.0,0.0,0.0,0.0,0.0,0.0,0.0,0.0,0.0,0.0,0.0,0.0,0.0,0.0,0.0,0.0,0.0,0.0,0.0,0.0,0.0,0.0,0.0,0.0,0.0,0.0,0.0,0.0,0.0,0.0,0.0,0.0,0.0,0.0,0.0,0.0,0.0,-2.8637,-3.2355,-3.5314,-3.7015,-3.7107,-3.5292,-3.3256,-3.1213,0.0,0.0,0.0,0.0,0.0,0.0,0.0,0.0,0.0,0.0,0.0,0.0,0.0,0.0,0.0,0.0,0.0,0.0,0.0,0.0,0.0,0.0,0.0,0.0,0.0,0.0,0.0,0.0,0.0,0.0,0.0,0.0,0.0,0.0,0.0,0.0,0.0,0.0,0.0,0.0,0.0,0.0,0.0,0.0,0.0,0.0,0.0,0.0,0.0,0.0,0.0,0.0,0.0,0.0,0.0,0.0,0.0,0.0,0.0,0.0,0.0,0.0,0.0,0.0,0.0,0.0,0.0,0.0,0.0,0.0,0.0,0.0,0.0,0.0,0.0,0.0,0.0,0.0,0.0,0.0,0.0,0.0,0.0,0.0,0.0,0.0,0.0,0.0,0.0,0.0,0.0,0.0,0.0,0.0,0.0,0.0,0.0,0.0,0.0,0.0,0.0,0.0,0.0,-2.836,-3.0519,-3.5148,-3.7004,-3.7948,-3.8077,-3.6274,-3.4118,-3.1715,-3.0602,0.0,0.0,0.0,0.0,0.0,0.0,0.0,0.0,0.0,0.0,0.0,0.0,0.0,0.0,0.0,0.0,0.0,0.0,0.0,0.0,0.0,0.0,0.0,0.0,0.0,0.0,0.0,0.0,0.0,0.0,0.0,0.0,0.0,0.0,0.0,0.0,0.0,0.0,0.0,0.0,0.0,0.0,0.0,0.0,0.0,0.0,0.0,0.0,0.0,0.0,0.0,0.0,0.0,0.0,0.0,0.0,0.0,0.0,0.0,0.0,0.0,0.0,0.0,0.0,0.0,0.0,0.0,0.0,0.0,0.0,0.0,0.0,0.0,0.0,0.0,0.0,0.0,0.0,0.0,0.0,0.0,0.0,0.0,0.0,0.0,0.0,0.0,0.0,0.0,0.0,0.0,0.0,0.0,0.0,0.0,0.0,0.0,0.0,0.0,0.0,0.0,0.0,-3.0737,-3.2247,-3.6881,-3.8052,-3.8413,-3.8175,-3.6633,-3.4448,-3.1528,-2.9841,0.0,0.0,0.0,0.0,0.0,0.0,0.0,0.0,0.0,0.0,0.0,0.0,0.0,0.0,0.0,0.0,0.0,0.0,0.0,0.0,0.0,0.0,0.0,0.0,0.0,0.0,0.0,0.0,0.0,0.0,0.0,0.0,0.0,0.0,0.0,0.0,0.0,0.0,0.0,0.0,0.0,0.0,0.0,0.0,0.0,0.0,0.0,0.0,0.0,0.0,0.0,0.0,0.0,0.0,0.0,0.0,0.0,0.0,0.0,0.0,0.0,0.0,0.0,0.0,0.0,0.0,0.0,0.0,0.0,0.0,0.0,0.0,0.0,0.0,0.0,0.0,0.0,0.0,0.0,0.0,0.0,0.0,0.0,0.0,0.0,0.0,0.0,0.0,0.0,0.0,0.0,0.0,0.0,0.0,0.0,0.0,0.0,0.0,0.0,0.0,0.0,0.0,-3.1692,-3.3458,-3.6924,-3.8016,-3.7937,-3.6597,-3.4945,-3.2926,-3.0454,-2.8366,0.0,0.0,0.0,0.0,0.0,0.0,0.0,0.0,0.0,0.0,0.0,0.0,0.0,0.0,0.0,0.0,0.0,0.0,0.0,0.0,0.0,0.0,0.0,0.0,0.0,0.0,0.0,0.0,0.0,0.0,0.0,0.0,0.0,0.0,0.0,0.0,0.0,0.0,0.0,0.0,0.0,0.0,0.0,0.0,0.0,0.0,0.0,0.0,0.0,0.0,0.0,0.0,0.0,0.0,0.0,0.0,0.0,0.0,0.0,0.0,0.0,0.0,0.0,0.0,0.0,0.0,0.0,0.0,0.0,0.0,0.0,0.0,0.0,0.0,0.0,0.0,0.0,0.0,0.0,0.0,0.0,0.0,0.0,0.0,0.0,0.0,0.0,0.0,0.0,0.0,0.0,0.0,0.0,0.0,0.0,0.0,0.0,0.0,0.0,0.0,0.0,0.0,-3.1946,-3.3899,-3.7784,-3.7998,-3.7631,-3.711,-3.5055,-3.2779,-3.0356,0.0,0.0,0.0,0.0,0.0,0.0,0.0,0.0,0.0,0.0,0.0,0.0,0.0,0.0,0.0,0.0,0.0,0.0,0.0,0.0,0.0,0.0,0.0,0.0,0.0,0.0,0.0,0.0,0.0,0.0,0.0,0.0,0.0,0.0,0.0,0.0,0.0,0.0,0.0,0.0,0.0,0.0,0.0,0.0,0.0,0.0,0.0,0.0,0.0,0.0,0.0,0.0,0.0,0.0,0.0,0.0,0.0,0.0,0.0,0.0,0.0,0.0,0.0,0.0,0.0,0.0,0.0,0.0,0.0,0.0,0.0,0.0,0.0,0.0,0.0,0.0,0.0,0.0,0.0,0.0,0.0,0.0,0.0,0.0,0.0,0.0,0.0,0.0,0.0,0.0,0.0,0.0,0.0,0.0,0.0,0.0,0.0,0.0,0.0,0.0,0.0,0.0,-3.0794,-3.2245,-3.4357,-3.8285,-3.7955,-3.7404,-3.711,-3.4357,-3.1861,-2.9953,0.0,0.0,0.0,0.0,0.0,0.0,0.0,0.0,0.0,0.0,0.0,0.0,0.0,0.0,0.0,0.0,0.0,0.0,0.0,0.0,0.0,0.0,0.0,0.0,0.0,0.0,0.0,0.0,0.0,0.0,0.0,0.0,0.0,0.0,0.0,0.0,0.0,0.0,0.0,0.0,0.0,0.0,0.0,0.0,0.0,0.0,0.0,0.0,0.0,0.0,0.0,0.0,0.0,0.0,0.0,0.0,0.0,0.0,0.0,0.0,0.0,0.0,0.0,0.0,0.0,0.0,0.0,0.0,0.0,0.0,0.0,0.0,0.0,0.0,0.0,0.0,0.0,0.0,0.0,0.0,0.0,0.0,0.0,0.0,0.0,0.0,0.0,0.0,0.0,0.0,0.0,0.0,0.0,0.0,0.0,0.0,0.0,0.0,0.0,0.0,0.0,0.0,-3.0906,-3.2737,-3.4971,-3.8358,-3.7955,-3.7147,-3.6376,-3.2559,-2.9879,0.0,0.0,0.0,0.0,0.0,0.0,0.0,0.0,0.0,0.0,0.0,0.0,0.0,0.0,0.0,0.0,0.0,0.0,0.0,0.0,0.0,0.0,0.0,0.0,0.0,0.0,0.0,0.0,0.0,0.0,0.0,0.0,0.0,0.0,0.0,0.0,0.0,0.0,0.0,0.0,0.0,0.0,0.0,0.0,0.0,0.0,0.0,0.0,0.0,0.0,0.0,0.0,0.0,0.0,0.0,0.0,0.0,0.0,0.0,0.0,0.0,0.0,0.0,0.0,0.0,0.0,0.0,0.0,0.0,0.0,0.0,0.0,0.0,0.0,0.0,0.0,0.0,0.0,0.0,0.0,0.0,0.0,0.0,0.0,0.0,0.0,0.0,0.0,0.0,0.0,0.0,0.0,0.0,0.0,0.0,0.0,0.0,0.0,0.0,0.0,0.0,0.0,0.0,-3.2481,-3.3433,-3.4971,-3.8358,-3.7477,-3.6494,-3.6179,-3.2496,-2.9855,-2.8978,0.0,0.0,0.0,0.0,0.0,0.0,0.0,0.0,0.0,0.0,0.0,0.0,0.0,0.0,0.0,0.0,0.0,0.0,0.0,0.0,0.0,0.0,0.0,0.0,0.0,0.0,0.0,0.0,0.0,0.0,0.0,0.0,0.0,0.0,0.0,0.0,0.0,0.0,0.0,0.0,0.0,0.0,0.0,0.0,0.0,0.0,0.0,0.0,0.0,0.0,0.0,0.0,0.0,0.0,0.0,0.0,0.0,0.0,0.0,0.0,0.0,0.0,0.0,0.0,0.0,0.0,0.0,0.0,0.0,0.0,0.0,0.0,0.0,0.0,0.0,0.0,0.0,0.0,0.0,0.0,0.0,0.0,0.0,0.0,0.0,0.0,0.0,0.0,0.0,0.0,0.0,0.0,0.0,0.0,0.0,0.0,0.0,0.0,0.0,0.0,0.0,0.0,-3.2324,-3.3386,-3.4779,-3.7477,-3.689,-3.6127,-3.5703,-3.2313,-2.9855,-2.9002,0.0,0.0,0.0,0.0,0.0,0.0,0.0,0.0,0.0,0.0,0.0,0.0,0.0,0.0,0.0,0.0,0.0,0.0,0.0,0.0,0.0,0.0,0.0,0.0,0.0,0.0,0.0,0.0,0.0,0.0,0.0,0.0,0.0,0.0,0.0,0.0,0.0,0.0,0.0,0.0,0.0,0.0,0.0,0.0,0.0,0.0,0.0,0.0,0.0,0.0,0.0,0.0,0.0,0.0,0.0,0.0,0.0,0.0,0.0,0.0,0.0,0.0,0.0,0.0,0.0,0.0,0.0,0.0,0.0,0.0,0.0,0.0,0.0,0.0,0.0,0.0,0.0,0.0,0.0,0.0,0.0,0.0,0.0,0.0,0.0,0.0,0.0,0.0,0.0,0.0,0.0,0.0,0.0,0.0,0.0,0.0,0.0,0.0,0.0,0.0,0.0,0.0,-3.1274,-3.2816,-3.4357,-3.6119,-3.6229,-3.5862,-3.5064,-3.2045,-2.9879,-2.9159,0.0,0.0,0.0,0.0,0.0,0.0,0.0,0.0,0.0,0.0,0.0,0.0,0.0,0.0,0.0,0.0,0.0,0.0,0.0,0.0,0.0,0.0,0.0,0.0,0.0,0.0,0.0,0.0,0.0,0.0,0.0,0.0,0.0,0.0,0.0,0.0,0.0,0.0,0.0,0.0,0.0,0.0,0.0,0.0,0.0,0.0,0.0,0.0,0.0,0.0,0.0,0.0,0.0,0.0,0.0,0.0,0.0,0.0,0.0,0.0,-3.1602,-3.195,0.0,0.0,0.0,0.0,0.0,0.0,0.0,0.0,0.0,0.0,0.0,0.0,0.0,0.0,0.0,0.0,0.0,0.0,0.0,0.0,0.0,0.0,0.0,0.0,0.0,0.0,0.0,0.0,0.0,0.0,0.0,0.0,0.0,0.0,0.0,0.0,0.0,0.0,0.0,0.0,-3.2816,-3.3036,-3.3733,-3.6046,-3.5679,-3.5174,-3.4934,-3.2019,-3.0112,-2.9856,-2.8106,0.0,0.0,0.0,0.0,0.0,0.0,0.0,0.0,0.0,0.0,0.0,0.0,0.0,0.0,0.0,0.0,0.0,0.0,0.0,0.0,0.0,0.0,0.0,0.0,0.0,0.0,0.0,0.0,0.0,0.0,0.0,0.0,0.0,0.0,0.0,0.0,0.0,0.0,0.0,0.0,0.0,0.0,0.0,0.0,0.0,0.0,0.0,0.0,0.0,0.0,0.0,0.0,0.0,0.0,0.0,0.0,0.0,0.0,0.0,-3.4826,-3.3688,0.0,0.0,0.0,0.0,0.0,0.0,0.0,0.0,0.0,0.0,0.0,0.0,0.0,0.0,0.0,0.0,0.0,0.0,0.0,0.0,0.0,0.0,0.0,0.0,0.0,0.0,0.0,0.0,0.0,0.0,0.0,0.0,0.0,0.0,0.0,0.0,0.0,0.0,0.0,0.0,-3.3366,-3.377,-3.4431,-3.6119,-3.5899,-3.543,-3.4999,-3.2753,-3.0992,-3.0198,-2.9353,0.0,0.0,0.0,0.0,0.0,0.0,0.0,0.0,0.0,0.0,0.0,0.0,0.0,0.0,0.0,0.0,0.0,0.0,0.0,0.0,0.0,0.0,0.0,0.0,0.0,0.0,0.0,0.0,0.0,0.0,0.0,0.0,0.0,0.0,0.0,0.0,0.0,0.0,0.0,0.0,0.0,0.0,0.0,0.0,0.0,0.0,0.0,0.0,0.0,0.0,0.0,0.0,0.0,-4.0482,-4.1272,-4.2473,-4.1936,-4.1968,-4.2347,-3.9471,-3.6911,-3.4857,-3.609,0.0,0.0,0.0,0.0,0.0,0.0,0.0,0.0,0.0,0.0,0.0,0.0,0.0,0.0,0.0,0.0,0.0,0.0,0.0,0.0,0.0,0.0,-3.5285,-3.6057,-3.6207,-3.565,-3.3375,0.0,0.0,0.0,0.0,0.0,0.0,0.0,0.0,0.0,0.0,0.0,-3.3513,-3.4394,-3.5202,-3.6193,-3.6303,-3.5936,-3.5064,-3.3633,-3.2118,-3.0551,-3.066,-3.0246,0.0,0.0,0.0,0.0,0.0,0.0,0.0,0.0,0.0,0.0,0.0,0.0,0.0,0.0,0.0,0.0,0.0,0.0,0.0,0.0,0.0,0.0,0.0,0.0,0.0,0.0,0.0,0.0,0.0,0.0,0.0,0.0,-3.2968,-3.3151,0.0,0.0,0.0,0.0,0.0,0.0,0.0,0.0,0.0,0.0,0.0,0.0,0.0,-3.9408,-4.004,-4.0798,-4.1841,-4.3137,-4.4401,-4.5381,-4.6108,-4.6013,-4.6044,-4.6076,-4.5634,0.0,-4.0324,-3.8207,0.0,0.0,0.0,0.0,0.0,0.0,0.0,0.0,0.0,0.0,0.0,0.0,0.0,0.0,0.0,0.0,0.0,0.0,0.0,0.0,0.0,0.0,-3.6865,-3.7637,-3.7361,-3.7017,-3.7491,-3.6327,-3.4983,-3.4238,-3.3038,-3.2218,0.0,0.0,0.0,0.0,0.0,0.0,-3.3587,-3.388,-3.4578,-3.6119,-3.6303,-3.5936,-3.5064,-3.4174,-3.3004,-3.1598,-3.1042,-3.0829,-3.0835,-3.1202,0.0,0.0,0.0,0.0,0.0,0.0,0.0,0.0,0.0,0.0,0.0,0.0,0.0,0.0,0.0,0.0,0.0,0.0,0.0,0.0,0.0,0.0,0.0,0.0,0.0,0.0,0.0,0.0,0.0,-3.4805,-3.4961,-3.4113,-3.5752,-3.6838,0.0,0.0,0.0,0.0,0.0,0.0,0.0,0.0,0.0,-4.1055,-4.1572,-4.2535,-4.4085,-4.5159,-4.6392,-4.7782,-4.8415,-4.9078,-4.971,-4.9331,-4.9363,-4.971,-4.9299,-4.8288,-4.6582,-4.3011,-4.0546,-3.906,0.0,0.0,0.0,0.0,-3.8676,-3.8695,-3.923,-3.8861,-3.8262,-3.848,0.0,0.0,0.0,0.0,0.0,0.0,0.0,-3.6089,-3.7266,-3.7901,-3.8725,-4.034,-4.0292,-3.9964,-4.0446,-3.9332,-3.7718,-3.6092,-3.5286,-3.4619,-3.3829,-3.2629,0.0,0.0,0.0,-3.3276,-3.4981,-3.5605,-3.634,-3.7514,-3.7221,-3.6817,-3.645,-3.5238,-3.4097,-3.3152,-3.2088,-3.1393,-3.121,-3.1446,-3.1955,0.0,0.0,0.0,0.0,0.0,0.0,0.0,0.0,0.0,0.0,0.0,0.0,0.0,0.0,0.0,0.0,0.0,0.0,0.0,0.0,0.0,0.0,0.0,0.0,0.0,0.0,0.0,0.0,-3.6484,-3.6684,-3.4472,-3.6857,-3.8233,0.0,0.0,0.0,0.0,0.0,0.0,-4.0624,-4.1985,-4.3499,-4.5294,-4.5818,-4.6966,-4.892,-4.9963,-5.129,-5.2839,-5.2839,-5.3218,-5.385,-5.3155,-5.3028,-5.3313,-5.2618,-5.2112,-5.1417,-4.6866,-4.3232,-4.0609,-4.0988,-4.0704,-4.0135,-4.0862,-4.1211,-4.1404,-4.2237,-4.188,-4.1054,-4.0827,-3.9919,-3.8602,-3.698,0.0,0.0,0.0,0.0,-3.758,-3.9546,-4.0114,-4.0727,-4.2959,-4.2988,-4.264,-4.2858,-4.1988,-4.0453,-3.7895,-3.7166,-3.6649,-3.5514,-3.4134,0.0,-3.4182,-3.432,-3.4861,-3.6413,-3.711,-3.7808,-3.8615,-3.8175,-3.7624,-3.7221,-3.6046,-3.4934,-3.4027,-3.2729,-3.1883,-3.1602,-3.1575,-3.1788,-3.2223,0.0,0.0,0.0,0.0,0.0,0.0,0.0,0.0,0.0,0.0,0.0,0.0,0.0,0.0,0.0,0.0,0.0,0.0,0.0,0.0,0.0,0.0,0.0,0.0,0.0,0.0,0.0,0.0,0.0,-3.3112,-3.7874,0.0,0.0,0.0,0.0,-4.1336,-4.2564,-4.3741,-4.4651,-4.7132,-4.8891,-4.9832,-5.1623,-5.326,-5.4703,-5.4767,-5.5873,-5.7895,-5.7895,-5.8274,-5.8906,-5.8211,-5.7548,-5.6915,-5.622,-5.5177,-5.3502,-4.8004,-4.4843,-4.3421,-4.2821,-4.2126,-4.1557,-4.2315,-4.2836,-4.3167,-4.3199,-4.3168,-4.3403,-4.5372,-4.4986,-4.3216,-4.0419,-3.9817,0.0,0.0,-4.0466,-4.0955,-4.1846,-4.2358,-4.3054,-4.4834,-4.4713,-4.4281,-4.4677,-4.4191,-4.2757,-3.9841,-3.8029,-3.6975,-3.6999,0.0,-3.5757,-3.5937,-3.5967,-3.6325,-3.7294,-3.747,-3.7808,-3.8615,-3.8652,-3.8028,-3.6486,-3.6266,-3.542,-3.3468,-3.2514,-3.2204,-3.26,-3.1895,-3.2297,-3.3935,-3.3325,0.0,0.0,0.0,0.0,0.0,0.0,0.0,0.0,0.0,0.0,0.0,0.0,0.0,0.0,0.0,0.0,0.0,0.0,0.0,0.0,0.0,0.0,0.0,0.0,0.0,0.0,0.0,0.0,-4.0262,-4.3408,0.0,-4.3802,-4.3538,-4.4161,-4.579,-4.6207,-4.7238,-4.9254,-5.1209,-5.2843,-5.401,-5.5156,-5.6398,-5.78,-5.7832,-5.8401,-5.957,-5.8685,-5.8401,-5.8622,-5.7927,-5.7453,-5.72,-5.6947,-5.6315,-5.5241,-5.2807,-5.0184,-4.7624,-4.6929,-4.5697,-4.4433,-4.5602,-4.573,-4.5442,-4.662,-4.6478,-4.5766,-4.4871,-4.3595,-4.2199,-4.1473,-4.1298,-4.1508,-4.2087,-4.2285,-4.2687,-4.379,-4.4284,-4.4752,-4.5917,-4.6184,-4.6096,-4.5767,-4.5215,-4.4325,-4.2737,-4.0709,-3.8934,-3.7954,-3.7152,-3.6458,-3.6042,-3.6431,-3.693,-3.7314,-3.7888,-3.8395,-3.8689,-3.8689,-3.8469,-3.7881,-3.7026,-3.601,-3.4929,-3.371,-3.2937,-3.273,-3.2966,-3.37,-3.4908,-3.4669,-3.5196,0.0,0.0,0.0,0.0,0.0,0.0,0.0,0.0,0.0,0.0,0.0,0.0,0.0,0.0,0.0,0.0,0.0,0.0,0.0,0.0,0.0,0.0,0.0,0.0,0.0,-4.1931,-4.4079,-4.5264,-4.7721,-4.9035,-4.8208,-4.7676,-4.8097,-4.9765,-5.0328,-5.1667,-5.3881,-5.5411,-5.6807,-5.7902,-5.8621,-5.9283,-6.0012,-6.0012,-6.0107,-6.0297,-5.938,-5.8843,-5.859,-5.8148,-5.78,-5.7579,-5.7579,-5.7168,-5.6505,-5.6031,-5.4324,-5.1891,-5.05,-4.8825,-4.7308,-4.8377,-4.8424,-4.816,-4.9635,-4.937,-4.8033,-4.6116,-4.4456,-4.3289,-4.3289,-4.3361,-4.3664,-4.4369,-4.4475,-4.4609,-4.5614,-4.5834,-4.5953,-4.6578,-4.7053,-4.7104,-4.6398,-4.5947,-4.5381,-4.4295,-4.2375,-4.0492,-3.9188,-3.8319,-3.7664,-3.7185,-3.7389,-3.7739,-3.8058,-3.8444,-3.8689,-3.8689,-3.8689,-3.8469,-3.7955,-3.7618,-3.6956,-3.5814,-3.5186,-3.4735,-3.441,-3.4671,-3.5392,-3.6604,-3.6688,-3.7271,-3.843,0.0,0.0,0.0,0.0,0.0,0.0,0.0,0.0,0.0,0.0,0.0,0.0,0.0,0.0,0.0,0.0,0.0,0.0,0.0,0.0,0.0,0.0,0.0,-4.087,-4.5418,-4.8348,-4.7353,-5.0623,-5.1884,-4.9299,-5.0642,-5.2113,-5.3228,-5.5209,-5.6947,-5.8338,-5.9633,-6.0676,-6.1371,-6.2067,-6.2098,-6.1403,-6.1403,-6.1024,-6.0297,-6.0265,-5.9918,-5.9286,-5.9286,-5.8938,-5.8306,-5.8274,-5.7895,-5.7295,-5.7263,-5.6852,-5.5936,-5.3218,-5.1259,-5.0074,-5.0466,-5.0788,-5.1285,-5.2125,-5.1446,-5.0121,-4.9392,-4.8166,-4.6841,-4.6079,-4.6219,-4.6667,-4.7135,-4.7004,-4.6847,-4.7261,-4.6998,-4.6684,-4.6952,-4.7143,-4.7191,-4.6644,-4.654,-4.6033,-4.4476,-4.2882,-4.1542,-4.0709,-3.9912,-3.944,-3.9472,-3.8846,0.0,-3.9557,-3.9103,-3.8726,-3.8726,-3.8726,-3.8102,-3.6515,-3.8044,-3.8126,-3.5897,-3.6759,-3.7414,-3.7597,-3.691,-3.7347,-3.912,-3.9205,-3.9269,-3.9392,0.0,0.0,0.0,0.0,0.0,0.0,0.0,0.0,0.0,0.0,0.0,0.0,0.0,0.0,0.0,0.0,0.0,0.0,0.0,0.0,0.0,-4.285,-4.5029,-4.4987,-4.8358,-5.1436,-5.3096,-5.5719,-5.7146,-5.6373,-5.709,-5.7965,-5.8782,-5.9539,-6.036,-6.1245,-6.1624,-6.1719,-6.1403,-6.2067,-6.2098,-6.1403,-6.1403,-6.1024,-6.0297,-5.9823,-5.9222,-5.8559,-5.8559,-5.8717,-5.9001,-5.8496,-5.8464,-5.8685,-5.818,-5.7729,-5.7292,-5.57,-5.3735,-5.1965,-5.2588,-5.234,-5.1688,-5.223,-5.1777,-5.0883,-5.0154,-4.926,-4.8365,-4.7636,-4.7755,-4.8084,-4.8055,-4.7739,-4.7453,-4.7436,-4.7143,-4.6906,-4.6998,-4.7312,-4.7542,-4.7409,-4.6902,-4.6359,-4.5924,-4.4548,-4.2991,-4.1615,-4.0745,-4.0021,-3.9512,-3.8849,-3.8506,-3.8725,-3.8706,-3.8909,-3.9496,-3.957,-3.9222,-3.8329,-3.8372,-3.7464,-3.5224,-3.5533,-3.556,-3.5037,-3.6528,-3.8206,-3.9998,-4.0104,-4.046,0.0,0.0,0.0,0.0,0.0,0.0,0.0,0.0,0.0,0.0,0.0,0.0,0.0,0.0,0.0,0.0,0.0,0.0,0.0,0.0,0.0,0.0,-4.6253,-4.9161,-5.0979,-5.2683,-5.476,-5.7552,-5.8798,-5.9581,-6.009,-6.0286,-6.0669,-6.1145,-6.1558,-6.2003,-6.2414,-6.2446,-6.2256,-6.1845,-6.2225,-6.2098,-6.1403,-6.1087,-6.0581,-5.9886,-5.9191,-5.8654,-5.8274,-5.8274,-5.8654,-5.9254,-5.8559,-5.8496,-5.8843,-5.8432,-5.8015,-5.7522,0.0,0.0,0.0,0.0,-5.3258,-5.2514,-5.2732,-5.2142,-5.1148,-5.0452,-4.9723,-4.8961,-4.8233,-4.8356,-4.8697,-4.847,-4.8175,-4.787,-4.8138,-4.7851,-4.7543,-4.7599,-4.7947,-4.8134,-4.7772,-4.7337,-4.6902,-4.6576,-4.5743,0.0,-4.3425,-4.1977,-4.0854,-4.0419,-3.954,-3.9021,-3.9349,-3.8999,-3.8872,-3.935,-3.951,-3.929,-3.8581,-3.9089,0.0,0.0,0.0,-3.7636,-3.7139,-3.8876,0.0,0.0,0.0,-4.2189,-4.2354,-4.2888,0.0,0.0,-4.2188,-4.2197,0.0,0.0,0.0,0.0,0.0,0.0,0.0,0.0,0.0,0.0,0.0,0.0,0.0,0.0,0.0,0.0,-4.9842,-5.309,-5.7464,-5.7715,-5.8341,-6.0729,-6.0438,-6.0505,-6.1369,-6.146,-6.1586,-6.1845,-6.2351,-6.2667,-6.2667,-6.2667,0.0,0.0,0.0,-6.2225,-6.1529,-6.0803,-6.0076,-5.9412,-5.8717,-5.8338,-5.8274,-5.8274,-5.8685,-5.938,-5.8685,-5.8464,-5.8622,-5.8557,-5.8046,-5.7217,-5.6262,-5.5725,-5.541,-5.4371,-5.3733,-5.34,-5.34,0.0,0.0,-5.0485,-4.9823,-4.9193,-4.8266,-4.8423,-4.8866,-4.8798,-4.8377,-4.8236,-4.9221,-4.8912,-4.8376,-4.8497,-4.872,-4.8677,-4.788,-4.7699,-4.7482,-4.6757,-4.6576,-4.6287,-4.5562,-4.3425,-4.1868,-4.1868,-4.0633,-4.0005,-4.0735,-3.9658,-3.8872,-3.8982,-3.9135,0.0,-3.8133,-3.9849,-4.0274,-3.8684,-4.0158,-4.1151,-4.1342,-4.2011,-4.2584,-4.3023,-4.3768,-4.388,-4.3393,-4.341,-4.3902,-4.4802,-4.405,-4.3401,0.0,0.0,0.0,0.0,0.0,0.0,0.0,0.0,0.0,0.0,0.0,0.0,0.0,0.0,0.0,-5.0198,-5.4535,-5.8185,-6.0459,-6.2079,-6.2368,-6.0808,-6.2229,-6.2927,-6.2053,-6.3066,-6.4051,-6.4721,-6.4374,-6.4121,-6.4121,-6.4121,-6.3584,-6.2477,-6.2983,-6.2951,-6.2225,-6.1529,-6.0803,-6.0107,-5.9444,0.0,-5.8274,-5.8274,-5.8938,-6.0076,-5.9412,-5.976,-6.0708,-6.0007,-5.8984,-5.7897,-5.6718,-5.6139,-5.581,-5.4754,-5.3989,-5.34,-5.34,-5.287,-5.1943,-5.0651,-5.0518,-5.0485,-4.8597,-4.9013,0.0,-4.9392,-4.9309,-4.9416,-4.987,-4.9536,-4.8972,-4.8605,-4.872,-4.8677,-4.788,-4.7699,-4.7663,-4.7518,-4.6939,-4.6468,-4.6287,-4.4258,-4.2702,-4.2813,-4.154,-4.0659,-4.0946,-4.0203,-3.9937,-4.0598,-4.0288,-3.9798,-3.9189,-3.967,-3.9444,-3.8002,-3.8229,-3.9088,-4.0463,-4.0059,-4.1109,-4.3905,-4.3499,-4.3859,-4.5124,-4.5233,-4.5428,-4.5657,-4.4868,-4.4877,0.0,0.0,0.0,0.0,0.0,0.0,0.0,0.0,0.0,0.0,0.0,-4.2058,-4.331,0.0,-5.0638,-5.3866,-5.7648,-6.0777,-6.2598,-6.4528,-6.5208,-6.3374,-6.3783,-6.4169,-6.3854,-6.4208,-6.4658,-6.5006,-6.4721,-6.4532,-6.4532,-6.4848,-6.4563,-6.3489,-6.3805,-6.3678,-6.2983,-6.1909,-6.1213,-6.0834,-6.0139,-5.9633,-5.9286,-5.8938,-5.9349,-6.0265,-5.9602,-6.0075,-6.1249,-6.0628,-5.9772,-5.8674,-5.7706,-5.6922,-5.6237,-5.5379,-5.4593,-5.393,-5.3533,-5.297,-5.2208,-5.1115,-5.0923,-5.0827,-4.9358,-4.94,-4.9881,-4.9505,-4.9491,-4.9661,-5.0329,-5.0311,-5.0103,-4.9938,-5.0001,-4.9872,-4.9075,-4.8894,-4.8894,-4.8894,-4.8242,-4.7699,-4.7699,-4.6033,-4.4479,-4.3795,-4.2741,-4.19,-4.1638,-4.0936,-4.0551,-4.0671,-4.0597,-4.0263,-3.9684,-3.9895,-3.9928,-3.9623,-3.9202,-3.9966,-4.2107,-4.1435,-4.2218,-4.4786,-4.4495,-4.4722,-4.5586,-4.5727,-4.5841,-4.588,-4.5546,-4.5741,0.0,0.0,0.0,0.0,0.0,0.0,0.0,-3.9677,-4.0416,-4.1648,-4.3648,-4.568,-4.7465,-5.066,-5.4082,-5.7329,-6.0322,-6.2612,-6.4016,-6.5847,-6.6784,-6.589,-6.5385,-6.5227,-6.5543,-6.5164,-6.4974,-6.51,-6.5006,-6.4974,-6.51,-6.5669,-6.5574,-6.4753,-6.4848,-6.4468,-6.3489,-6.2351,-6.1656,-6.1371,-6.0803,-6.0423,-6.0265,-5.9728,-5.9791,-6.0265,-5.9981,-6.0389,-6.1206,-6.1174,-6.0478,-5.9398,-5.8643,-5.7719,-5.6812,-5.5951,-5.5156,-5.4394,-5.3665,-5.297,-5.2274,-5.1512,-5.1293,-5.1127,-5.0149,-4.9853,-4.9898,-4.959,-4.9652,-4.9995,-5.0823,-5.1087,-5.1153,-5.1276,-5.1285,-5.1067,-5.0271,-5.009,-5.009,-5.009,-4.9438,-4.8931,-4.8931,-4.7699,-4.6332,-4.4996,-4.4016,-4.3251,-4.2736,-4.1889,-4.1204,-4.0799,-4.0745,-4.0502,-4.003,-4.0481,-4.0998,-4.1457,-4.1036,-4.1801,-4.402,-4.3503,-4.3903,-4.5475,-4.5568,-4.5586,-4.5586,-4.5727,-4.5841,-4.588,-4.6021,-4.6176,-4.3168,-4.1955,-4.0878,-4.1801,-4.1093,-4.1124,0.0,-4.5649,-4.5895,-4.6665,-4.8943,-5.1036,-5.1867,-5.5163,-5.8363,-6.0095,-6.3058,-6.5051,-6.4652,-6.5859,-6.6649,-6.6523,-6.6933,-6.6807,-6.5669,-6.6048,-6.6617,-6.7218,-6.6712,-6.6617,-6.7218,-6.7313,-6.6775,-6.548,-6.6048,-6.5448,-6.3489,-6.3331,-6.2635,-6.1403,-6.1308,-6.0929,-6.0297,-6.0234,-6.0234,-6.0329,-6.1344,-6.1752,-6.173,-6.2175,-6.1369,-5.9845,-5.9117,-5.8323,-5.7508,-5.6117,-5.5156,-5.4394,-5.3665,-5.297,-5.2274,-5.1512,-5.2029,-5.2472,-5.0452,-5.085,-5.181,-5.0426,-5.0515,-5.1157,-5.1485,-5.175,-5.1826,-5.142,-5.1285,-5.1067,-5.0271,-5.009,-5.009,-5.009,-4.9438,-4.8931,-4.8931,-4.8254,-4.7466,-4.664,-4.5219,-4.4273,-4.4416,-4.3094,-4.2235,-4.2396,-4.138,-4.0575,-4.0272,-4.1628,-4.2221,-4.1533,-4.2145,-4.3025,-4.4058,-4.4115,-4.4554,-4.5475,-4.5568,-4.5586,-4.5586,-4.5727,-4.5841,-4.588,-4.6021,-4.6176,-4.3455,-4.2663,-4.254,-4.3494,-4.451,-4.5895,-4.8419,-4.9589,-5.0359,-5.1036,-5.3652,-5.5899,-5.6176,-5.89,-6.1413,-6.2364,-6.4377,-6.5772,-6.5825,-6.6331,-6.6143,-6.4942,-6.5037,-6.5448,-6.6112,-6.6428,-6.6712,-6.6997,-6.6775,-6.6902,-6.7565,-6.7597,-6.7534,-6.7407,-6.6491,-6.5574,-6.4721,-6.3489,-6.2572,-6.2003,-6.2003,-6.1845,-6.1529,-6.1119,-6.1122,-6.1376,-6.1845,-6.234,-6.286,-6.2881,-6.2306,-6.1152,-5.9993,-5.9098,-5.8204,-5.6316,-5.5421,-5.499,-5.3831,-5.3235,-5.287,-5.2142,-5.216,-5.2236,-5.1214,-5.1234,-5.1581,-5.0955,-5.1158,-5.1607,-5.1858,-5.215,-5.2268,-5.2082,-5.2009,-5.19,-5.1574,-5.1502,-5.1502,-5.1502,-5.085,-5.0162,-4.9691,-4.9016,-4.8343,-4.7627,-4.6572,-4.5589,-4.4783,-4.4121,-4.348,-4.3005,-4.2335,-4.1863,-4.1743,-4.2412,-4.2832,-4.2947,-4.2833,-4.3427,-4.4787,-4.4517,-4.4687,-4.553,-4.5586,-4.5637,-4.5712,-4.5815,-4.5908,-4.6013,-4.617,-4.6245,-4.3587,-4.3494,-4.4479,-4.5895,-4.8019,-5.0236,-5.2206,-5.3683,-5.4853,-5.553,-5.7931,-5.9839,-5.9655,-6.1637,-6.3426,-6.4104,-6.5359,-6.6308,-6.6777,-6.6551,-6.5701,-6.3963,-6.3078,-6.3362,-6.5258,-6.5796,-6.6112,-6.6301,-6.6681,-6.7186,-6.785,-6.8071,-6.8419,-6.8956,-6.7123,-6.5954,-6.5574,-6.3678,-6.2635,-6.2446,-6.2446,-6.2446,-6.2414,-6.1719,-6.1567,-6.182,-6.2059,-6.2451,-6.2998,-6.3231,-6.2742,-6.1748,-6.049,-5.9661,-5.8966,-5.6945,-5.5984,-5.5421,-5.393,-5.34,-5.3301,-5.2786,-5.257,-5.2401,-5.1775,-5.1709,-5.173,-5.1246,-5.1418,-5.1858,-5.2054,-5.2293,-5.248,-5.248,-5.248,-5.248,-5.248,-5.248,-5.248,-5.248,-5.1828,-5.1104,-5.0524,-4.9713,-4.8967,-4.8429,-4.7782,-4.6835,-4.5517,-4.5142,-4.4586,-4.3659,-4.3491,-4.3291,-4.2832,-4.3214,-4.3634,-4.3978,-4.3694,-4.4059,-4.5362,-4.4919,-4.4974,-4.5586,-4.5586,-4.5687,-4.58,-4.5863,-4.5978,-4.6098,-4.624,-4.63,-4.3741,-4.451,-4.6326,-4.9682,-5.1559,-5.3468,-5.6792,-5.8608,-5.9778,-6.0455,-6.1717,-6.2487,-6.184,-6.307,-6.446,-6.5173,-6.6262,-6.7166,-6.7197,-6.6248,-6.5322,-6.4563,-6.2067,-6.0961,-6.2414,-6.3773,-6.4848,-6.5543,-6.6807,-6.7881,-6.8608,-6.9272,-6.962,-6.9651,-6.8261,-6.6902,-6.5574,-6.4152,-6.311,-6.2446,-6.2446,-6.2446,-6.2414,-6.1719,-6.1313,-6.118,-6.2382,-6.2353,-6.159,-6.2802,-6.2444,-6.1053,-6.0291,-5.9993,-5.9794,-5.827,-5.6846,-5.5421,-5.393,-5.34,-5.334,-5.314,-5.3449,-5.3604,-5.2135,-5.2566,-5.3101,-5.108,-5.1296,-5.2102,-5.2102,-5.2293,-5.248,-5.248,-5.248,-5.248,-5.248,-5.248,-5.248,-5.248,-5.1828,-5.1285,-5.1249,-5.0083,-4.9195,-4.9159,-4.8626,-4.7976,-4.7131,-4.6174,-4.5341,-4.4827,-4.5011,-4.4551,-4.2947,-4.4284,-4.4857,-4.4055,-4.4844,-4.5323,-4.54,-4.5494,-4.5547,-4.5586,-4.5586,-4.5687,-4.58,-4.5863,-4.5978,-4.6098,-4.624,-4.63,-4.4018,-4.6395,-4.9764,-5.2329,-5.5572,-5.8485,-6.0086,-6.1502,-6.2025,-6.0455,-6.0486,-6.0455,-5.9549,-6.0074,-6.1217,-6.2898,-6.4533,-6.5808,-6.6714,-6.6488,-6.529,-6.2762,-6.1624,-6.0834,-6.0392,-6.1182,-6.2414,-6.4058,-6.548,-6.6554,-6.7281,-6.8419,-6.924,-6.9683,-6.7439,-6.6238,-6.627,-6.3931,-6.2667,-6.2446,-6.2446,-6.2612,-6.2873,-6.2173,-6.2426,-6.3492,-6.3447,-6.3326,-6.3342,-6.3285,-6.2709,-6.1748,-6.102,-6.0423,-5.9926,-5.9429,-5.8336,-5.6846,-5.5388,-5.456,-5.403,-5.3485,-5.3308,-5.3246,-5.2838,-5.2889,-5.2986,-5.25,-5.2215,-5.215,-5.2293,-5.2434,-5.248,-5.248,-5.248,-5.248,-5.248,-5.248,-5.248,-5.248,-5.2263,-5.1937,-5.1393,-5.1035,-5.0477,-4.9581,-4.8378,-4.7463,-4.7457,-4.685,-4.6262,-4.5723,-4.591,-4.566,-4.4551,-4.4972,-4.5184,-4.4957,-4.5208,-4.5688,-4.6302,-4.6396,-4.6471,-4.6471,-4.6471,-4.6275,-4.5863,-4.6491,-4.6589,-4.6279,-4.7424,-4.7666,-4.6625,-5.0095,-5.4147,-5.6869,-5.9906,-6.2425,-6.3102,-6.3379,-6.2825,-6.0609,-5.9664,-5.8777,-5.7267,-5.7112,-5.8009,-6.04,-6.1792,-6.3496,-6.612,-6.5481,-6.4184,-6.2699,-6.0961,-5.976,-5.9349,-5.9475,-6.055,-6.292,-6.4879,-6.6143,-6.6586,-6.8166,-6.9367,-7.0062,-6.7123,-6.5985,-6.6933,-6.3963,-6.2446,-6.2446,-6.2446,-6.2456,-6.2428,-6.2236,-6.2672,-6.3555,-6.3588,-6.3594,-6.357,-6.3372,-6.2676,-6.1748,-6.1285,-6.0821,-6.0357,-6.0092,-5.9396,-5.8336,-5.6811,-5.5821,-5.5129,-5.4791,-5.45,-5.4182,-5.3998,-5.3894,-5.3776,-5.3508,-5.3275,-5.3159,-5.3302,-5.3132,-5.2915,-5.2915,-5.2697,-5.248,-5.248,-5.248,-5.248,-5.248,-5.248,-5.2335,-5.1837,-5.1697,-5.1334,-5.0374,-4.9048,-4.8124,-4.8203,-4.7679,-4.7297,-4.7162,-4.706,-4.6768,-4.6233,-4.6194,-4.6216,-4.6278,-4.6339,-4.6455,-4.6781,-4.6857,-4.674,-4.6432,-4.6432,-4.6422,-4.6385,-4.694,-4.7189,-4.7237,-4.8291,-4.8525,-5.1359,-5.5129,-5.8908,-6.2779,-6.4426,-6.5134,-6.5688,-6.421,-6.2302,-6.0824,-5.9024,-5.7019,-5.5008,-5.4355,-5.5034,-5.7901,-5.8779,-6.0823,-6.5533,-6.3696,-6.2572,-6.4405,-6.055,-5.8243,-5.9444,-5.8938,-5.9633,-6.2351,-6.5037,-6.6554,-6.6554,-6.8577,-7.003,-7.0662,-6.7407,-6.6301,-6.7629,-6.4247,-6.2509,-6.2446,-6.2446,-6.2011,-6.1244,-6.1884,-6.1994,-6.1742,-6.3064,-6.31,-6.2245,-6.2974,-6.2411,-6.1119,-6.1119,-6.1119,-6.102,-6.0324,-6.0026,-5.9857,-5.8346,-5.7291,-5.6592,-5.6879,-5.6669,-5.6178,-5.5504,-5.5446,-5.5359,-5.417,-5.4302,-5.4907,-5.4907,-5.4327,-5.3748,-5.3748,-5.3132,-5.2552,-5.2552,-5.2516,-5.248,-5.248,-5.248,-5.2526,-5.259,-5.2149,-5.1683,-5.138,-5.0599,-4.9846,-4.9452,-4.8664,-4.8409,-4.9014,-4.8372,-4.7876,-4.7799,-4.7799,-4.7859,-4.7963,-4.7987,-4.7702,-4.6973,-4.6972,-4.6624,-4.5757,-4.5757,-4.6283,-4.7289,-4.7328,-4.786,-4.8798,-4.8876,-4.8915,-5.3721,-5.7677,-6.1418,-6.301,-6.488,-6.6027,-6.4672,-6.2764,-6.0486,-5.7592,-5.436,-5.1568,-5.0216,-5.0704,-5.2442,-5.59,-5.9565,-6.3147,-6.6475,-6.7837,-6.7818,-6.627,-6.5416,-6.45,-6.3299,-6.2572,-6.2667,-6.39,-6.5132,-6.5827,-6.5827,-6.8798,-7.0094,-6.924,-6.8355,-6.8071,-6.8419,-6.548,-6.3457,-6.2446,-6.2446,-6.2714,-6.3189,-6.3382,-6.3551,-6.3694,-6.4586,-6.3914,-6.2245,-6.2974,-6.2411,-6.1119,-6.1119,-6.1119,-6.1086,-6.0887,-6.0784,-6.0662,-6.0672,-5.9174,-5.7296,-5.6983,-5.6664,-5.6309,-5.6599,-5.6204,-5.5554,-5.5455,-5.5207,-5.4907,-5.4907,-5.4762,-5.4581,-5.4581,-5.4001,-5.3385,-5.3385,-5.2915,-5.248,-5.248,-5.2536,-5.2627,-5.2717,-5.2236,-5.1867,-5.2122,-5.0933,-5.0172,-5.0581,-4.9882,-4.9299,-4.9114,-4.8907,-4.8525,-4.7876,-4.7843,-4.8154,-4.883,-4.8355,-4.8279,-4.8721,-4.874,-4.839,-4.765,-4.8269,-4.849,-4.8335,-4.8958,-4.912,-4.8837,-5.0126,-5.0399,-5.7903,-6.1448,-6.4479,-6.5505,-6.5818,-6.5411,-6.3041,-6.0455,-5.7438,-5.3497,-5.0553,-4.8289,-4.6809,-4.7512,-4.9564,-5.3326,-5.7398,-6.1586,-6.569,-6.7363,-6.7913,-6.7565,-6.7028,-6.6238,-6.51,-6.4911,-6.5006,-6.5416,-6.5796,-6.6143,-6.6428,-6.8893,-7.0094,-6.962,-6.8703,-6.7787,-6.687,-6.529,-6.3963,-6.2888,-6.277,-6.3164,-6.3894,-6.3432,-6.3523,-6.3902,-6.3968,-6.3305,-6.2212,-6.261,-6.2113,-6.1119,-6.1119,-6.1252,-6.1465,-6.1465,-6.1568,-6.1757,-6.1722,-6.0989,-5.9972,-5.9253,-5.8584,-5.8142,-5.8488,-5.7747,-5.684,-5.6993,-5.65,-5.5921,-5.5921,-5.5667,-5.5377,-5.5377,-5.4508,-5.3784,-5.4146,-5.3313,-5.248,-5.248,-5.2581,-5.2717,-5.2806,-5.2705,-5.2782,-5.3199,-5.2289,-5.1757,-5.233,-5.0871,-4.9758,-4.9648,-4.9633,-4.9442,-4.8945,-4.893,-4.9188,-4.9733,-4.9391,-4.9239,-4.9394,-4.9394,-4.9062,-4.8329,-4.8793,-4.9123,-4.9262,-4.9769,-4.9997,-4.9969,-5.0945,-5.1141,-6.288,-6.5346,-6.7319,-6.8489,-6.6735,-6.3995,-6.1071,-5.7623,-5.3805,-4.9409,-4.748,-4.5984,-4.4297,-4.4984,-4.7076,-5.0995,-5.4246,-5.8434,-6.4601,-6.5186,-6.5922,-6.864,-6.7376,-6.6238,-6.6112,-6.6649,-6.6997,-6.6997,-6.6997,-6.7218,-6.7723,-6.8988,-6.9967,-7.0599,-6.8924,-6.706,-6.51,-6.4974,-6.45,-6.3615,-6.3481,-6.3549,-6.3894,-6.3088,-6.2969,-6.3239,-6.2709,-6.2345,-6.2179,-6.2278,-6.1947,-6.1384,-6.1285,-6.1632,-6.2131,-6.2131,-6.2537,-6.298,-6.2473,-6.2784,-6.3231,-6.2117,-6.1212,-6.048,-6.0536,-5.9583,-5.8565,-5.8565,-5.7985,-5.7369,-5.7369,-5.6754,-5.6138,-5.6138,-5.5051,-5.4218,-5.4907,-5.3856,-5.2806,-5.2852,-5.2881,-5.2951,-5.304,-5.34,-5.387,-5.4296,-5.3943,-5.3746,-5.4078,-5.1801,-5.0266,-5.045,-5.0474,-5.0436,-5.0321,-5.0344,-5.0428,-5.0653,-5.0598,-5.0218,-4.9586,-4.9586,-4.9273,-4.8667,-4.8783,-4.9392,-5.0524,-5.0524,-5.0946,-5.1765,-5.1765,-5.1687,-6.5617,-6.702,-6.7812,-6.8027,-6.6027,-6.301,-5.9162,-5.4791,-5.0629,-4.7119,-4.462,-4.2778,-4.1977,-4.4008,-4.7182,-5.124,-5.483,-5.9412,-6.627,-6.7123,-6.7881,-7.0157,-7.0094,-6.9651,-6.9019,-6.9082,-6.9146,-6.9146,-6.9146,-6.8956,-6.8513,-6.924,-6.9746,-6.9872,-7.0094,-6.9493,-6.7976,-6.7376,-6.6143,-6.4342,-6.4084,-6.3999,-6.3894,-6.4224,-6.3956,-6.3305,-6.3802,-6.3305,-6.2212,-6.2842,-6.3007,-6.2842,-6.2212,-6.2366,-6.2906,-6.2906,-6.3178,-6.3785,-6.4561,-6.4599,-6.4195,-6.2882,-6.191,-6.1364,-6.1623,-6.0612,-5.9398,-5.9398,-5.8818,-5.8202,-5.8202,-5.7587,-5.6971,-5.6971,-5.6283,-5.5631,-5.5776,-5.5124,-5.452,-5.4578,-5.4127,-5.3924,-5.4359,-5.401,-5.3906,-5.4623,-5.4095,-5.3746,-5.4078,-5.3047,-5.203,-5.1467,-5.1391,-5.1085,-5.0359,-5.0412,-5.0785,-5.1535,-5.1027,-5.0606,-5.0471,-5.0471,-5.0538,-5.0596,-5.1256,-5.2154,-5.3313,-5.3313,-5.3396,-5.3561,-5.3561,-5.3171,-6.7473,-6.8427,-6.8766,-6.8089,-6.4795,-6.0671,-5.6577,-5.1801,-4.7225,-4.4049,-4.249,-4.1664,-4.1519,-4.3226,-4.5855,-4.9299,-5.2175,-5.6283,-6.2857,-6.5069,-6.6902,-6.9398,-7.0662,-7.1042,-7.0315,-7.0252,-7.0252,-7.0252,-7.0252,-7.0125,-6.9809,-7.0094,-7.0094,-6.9683,-7.003,-6.9525,-6.8134,-6.7439,-6.6586,-6.5574,-6.4924,-6.4739,-6.4963,-6.4243,-6.376,-6.3272,-6.2842,-6.2477,-6.2212,-6.2543,-6.2941,-6.3239,-6.2875,-6.3383,-6.4131,-6.3724,-6.4243,-6.5198,-6.5267,-6.5415,-6.5412,-6.4733,-6.3574,-6.2418,-6.2566,-6.1498,-6.0231,-6.0231,-5.9651,-5.9035,-5.9035,-5.842,-5.7804,-5.7804,-5.7188,-5.6391,-5.5595,-5.545,-5.539,-5.5051,-5.4984,-5.5043,-5.5377,-5.551,-5.5555,-5.5496,-5.5294,-5.5053,-5.4804,-5.4409,-5.3645,-5.2346,-5.2231,-5.2079,-5.162,-5.1676,-5.1743,-5.1765,-5.189,-5.1759,-5.1356,-5.1741,-5.2121,-5.2407,-5.2768,-5.3302,-5.399,-5.399,-5.399,-5.399,-5.399,-5.3795,-6.8705,-6.9382,-6.9382,-6.8212,-6.3718,-5.8516,-5.4422,-4.9242,-4.4533,-4.1485,-4.0876,-4.0949,-4.1146,-4.2315,-4.418,-4.6992,-4.9047,-5.2554,-5.897,-6.2161,-6.5006,-6.8103,-7.0315,-7.1389,-7.082,-7.0915,-7.0947,-7.0789,-7.0631,-7.0473,-7.0346,-7.0631,-7.0315,-6.9272,-6.9683,-6.924,-6.785,-6.7313,-6.6839,-6.6365,-6.5638,-6.5351,-6.5481,-6.4153,-6.3405,-6.3206,-6.1914,-6.1748,-6.2411,-6.2411,-6.2993,-6.3962,-6.3796,-6.4435,-6.5353,-6.4658,-6.5186,-6.6097,-6.5668,-6.5875,-6.6269,-6.6427,-6.5199,-6.3671,-6.349,-6.244,-6.1281,-6.1136,-6.0484,-5.9868,-5.9868,-5.9144,-5.8347,-5.8166,-5.7659,-5.6862,-5.5667,-5.5897,-5.6164,-5.5749,-5.5919,-5.6195,-5.6476,-5.6952,-5.7111,-5.6595,-5.6567,-5.6358,-5.5747,-5.5517,-5.4868,-5.3492,-5.3187,-5.2996,-5.2829,-5.29,-5.264,-5.2034,-5.2713,-5.2836,-5.2262,-5.2878,-5.3464,-5.393,-5.393,-5.4139,-5.4576,-5.4576,-5.4576,-5.4576,-5.4576,-5.4459,-6.9289,-6.9413,-6.8797,-6.8089,-6.3349,-5.7808,-5.3714,-4.8275,-4.3231,-4.0645,-3.9781,-3.9566,-3.9629,-4.083,-4.2695,-4.5539,-4.7245,-5.0595,-5.7484,-6.0329,-6.3173,-6.7218,-6.9588,-7.0852,-7.0789,-7.1358,-7.1452,-7.082,-7.0157,-6.9525,-6.8924,-7.0094,-6.9872,-6.785,-6.9683,-6.9999,-6.8608,-6.8545,-6.7534,-6.5638,-6.5863,-6.5287,-6.4056,-6.4186,-6.3868,-6.3239,-6.2411,-6.251,-6.3173,-6.3173,-6.44,-6.6051,-6.5379,-6.5527,-6.6035,-6.5931,-6.5652,-6.5455,-6.6423,-6.6531,-6.6366,-6.6668,-6.617,-6.5229,-6.4504,-6.3671,-6.2838,-6.2114,-6.1317,-6.0701,-6.0701,-5.9542,-5.8202,-5.7478,-5.7261,-5.7152,-5.7007,-5.7143,-5.7389,-5.781,-5.7439,-5.7332,-5.814,-5.7731,-5.7392,-5.769,-5.7084,-5.6549,-5.6511,-5.5861,-5.5326,-5.5174,-5.4448,-5.367,-5.2939,-5.2947,-5.2976,-5.2965,-5.3123,-5.3205,-5.3249,-5.3326,-5.3882,-5.4935,-5.4944,-5.5411,-5.6372,-5.6372,-5.6372,-5.6372,-5.6372,-5.5942,-6.7935,-6.9105,-6.9135,-6.7689,-6.2702,-5.7008,-5.2603,-4.6964,-4.2194,-4.0563,-3.9439,-3.9251,-4.0514,-4.0514,-4.1114,-4.3548,-4.3674,-4.5507,-5.1227,-5.3818,-5.7295,-6.3173,-6.608,-6.845,-7.0568,-7.1421,-7.1705,-7.1421,-7.0757,-7.003,-6.9335,-6.9809,-6.9556,-6.8292,-6.9904,-7.0094,-6.8703,-6.8703,-6.8254,-6.7301,-6.6413,-6.5609,-6.5013,-6.4506,-6.42,-6.3902,-6.3173,-6.3496,-6.4522,-6.4522,-6.5463,-6.6962,-6.6656,-6.6953,-6.7392,-6.6721,-6.6637,-6.6891,-6.6638,-6.6557,-6.6608,-6.6727,-6.6569,-6.617,-6.5374,-6.4541,-6.3744,-6.2947,-6.2476,-6.2114,-6.1643,-6.0339,-5.9035,-5.8709,-5.8275,-5.8109,-5.8631,-5.9054,-5.9255,-5.9065,-5.9241,-5.94,-5.929,-5.9239,-5.9045,-5.8661,-5.8345,-5.7925,-5.7428,-5.7084,-5.6893,-5.6893,-5.5708,-5.4753,-5.4459,-5.4479,-5.4296,-5.3859,-5.4477,-5.4628,-5.421,-5.473,-5.5527,-5.658,-5.6082,-5.6315,-5.7309,-5.684,-5.6606,-5.6606,-5.6606,-5.6684,-6.6057,-6.7997,-6.8674,-6.7258,-6.1994,-5.6118,-5.1827,-4.616,-4.1435,-4.0287,-3.9188,-3.9092,-4.0956,-4.0482,-4.0388,-4.2094,-4.1715,-4.2695,-4.6992,-4.9521,-5.3092,-5.8875,-6.1972,-6.5069,-6.8577,-7.0662,-7.1737,-7.1516,-7.0852,-7.022,-6.9714,-6.9304,-6.8956,-6.8703,-7.0062,-7.0094,-6.8703,-6.8482,-6.833,-6.8124,-6.6673,-6.5868,-6.5718,-6.4959,-6.4652,-6.4647,-6.3915,-6.4321,-6.5595,-6.5392,-6.6194,-6.765,-6.741,-6.7738,-6.8252,-6.7473,-6.741,-6.7624,-6.6899,-6.6728,-6.6786,-6.6786,-6.6786,-6.6641,-6.5844,-6.5048,-6.4178,-6.3128,-6.2838,-6.2657,-6.186,-6.081,-5.9905,-5.9651,-5.918,-5.8994,-5.9844,-6.0309,-6.0507,-6.039,-6.0867,-6.1178,-6.0773,-6.0951,-6.0828,-5.9988,-5.9644,-5.9185,-5.8345,-5.8039,-5.7886,-5.7886,-5.6855,-5.6052,-5.5811,-5.5834,-5.5638,-5.5086,-5.6097,-5.6433,-5.5901,-5.6563,-5.7263,-5.8024,-5.7439,-5.7467,-5.8168,-5.7621,-5.7348,-5.7348,-5.7348,-5.7621,-6.381,-6.5903,-6.695,-6.6919,-6.139,-5.5132,-5.1698,-4.5939,-4.0946,-3.9596,-3.8873,-3.8934,-4.0356,-4.0609,-4.0798,-4.1494,-4.2189,-4.3643,-4.6424,-4.9205,-5.2017,-5.4861,-5.7674,-6.0739,-6.4247,-6.8956,-7.1516,-7.0852,-7.0125,-6.9683,-6.9683,-6.8355,-6.7945,-6.8671,-7.0062,-7.0094,-6.8703,-6.7976,-6.7568,-6.7388,-6.648,-6.5996,-6.575,-6.5486,-6.5313,-6.5228,-6.4521,-6.5033,-6.6211,-6.5494,-6.647,-6.8327,-6.753,-6.7631,-6.8217,-6.8576,-6.7895,-6.6975,-6.733,-6.7198,-6.6786,-6.6786,-6.6786,-6.6641,-6.5844,-6.5048,-6.407,-6.2476,-6.2041,-6.186,-6.1027,-6.081,-6.0593,-5.9796,-5.9615,-5.975,-6.0367,-6.06,-6.0964,-6.1879,-6.2201,-6.2406,-6.2795,-6.2892,-6.2586,-6.1707,-6.0905,-6.0064,-5.9224,-5.8383,-5.7886,-5.7886,-5.7886,-5.7531,-5.6767,-5.6764,-5.6812,-5.6883,-5.7853,-5.8535,-5.8648,-5.8792,-5.8921,-5.9061,-5.9065,-5.9065,-5.9104,-5.9065,-5.9065,-5.9065,-5.9065,-5.9065,-5.6423,-5.8239,-5.9039,-5.8116,-5.473,-5.087,-4.7681,-4.3915,-4.0939,-4.0322,-3.9282,-3.9092,-4.0925,-4.0893,-4.1146,-4.2789,-4.3232,-4.3832,-4.5191,-4.8193,-5.1828,-5.6062,-6.2825,-6.7755,-6.9367,-7.003,-7.0473,-7.0757,-7.0094,-6.9493,-6.9019,-6.9493,-6.9651,-6.9367,-6.9809,-6.9809,-6.9367,-6.9146,-6.885,-6.8608,-6.7874,-6.7036,-6.6245,-6.6196,-6.6079,-6.6036,-6.58,-6.65,-6.7704,-6.7463,-6.8058,-6.9043,-6.8763,-6.8842,-6.9027,-6.9068,-6.8489,-6.7725,-6.7796,-6.7415,-6.6786,-6.6786,-6.6786,-6.6641,-6.5844,-6.541,-6.5011,-6.3925,-6.3635,-6.3563,-6.3345,-6.2838,-6.2512,-6.2802,-6.2658,-6.2735,-6.3714,-6.4398,-6.4847,-6.4781,-6.5057,-6.4985,-6.3962,-6.377,-6.3503,-6.2624,-6.228,-6.2013,-6.1745,-6.1478,-6.1096,-6.0485,-5.995,-5.906,-5.7685,-5.7646,-5.7751,-5.7929,-5.8363,-5.87,-5.8831,-5.8967,-5.9324,-5.9963,-5.9417,-5.9378,-6.0002,-5.9378,-5.9104,-5.9104,-5.9729,-6.0002,-5.0938,-5.3341,-5.4545,-5.362,-5.1271,-4.855,-4.5784,-4.3122,-4.1135,-4.0671,-3.9914,-3.9787,-4.1304,-4.1241,-4.1399,-4.2695,-4.2916,-4.3232,-4.418,-4.734,-5.1543,-5.6979,-6.3994,-6.8671,-6.9367,-7.0062,-7.0346,-7.003,-7.0062,-6.9556,-6.8355,-6.9367,-6.9904,-6.9683,-6.9967,-7.0094,-7.0094,-6.9491,-6.9202,-6.9135,-6.8339,-6.7542,-6.6845,-6.7112,-6.7199,-6.7127,-6.7127,-6.7811,0.0,-6.8502,-6.8798,-6.934,-6.906,-6.913,-6.9452,-6.9669,-6.9087,-6.8118,-6.8352,-6.7728,-6.6786,-6.6786,-6.6605,-6.6243,-6.5736,-6.5374,-6.5048,-6.4541,-6.4396,-6.4396,-6.4396,-6.4033,-6.3836,-6.4475,-6.4473,-6.4646,-6.5756,-6.6491,-6.6862,-6.6736,-6.6968,-6.6827,-6.5757,-6.5605,-6.5184,-6.4038,-6.3847,-6.3618,-6.2968,-6.2892,-6.2701,-6.2166,-6.1631,-6.0961,-6.0086,-5.9187,-5.871,-5.8858,-5.942,-5.9783,-5.9893,-6.0009,-6.0354,-6.0861,-6.0354,-6.0354,-6.09,-6.0354,-6.008,-6.008,-6.0627,-6.09,0.0,-5.0288,-5.2244,-5.2126,-4.9988,-4.7432,-4.5489,-4.3183,0.0,-4.0798,-4.064,-4.083,-4.1525,-4.162,-4.1652,-4.1778,-4.181,-4.2284,-4.3643,-4.7119,-5.1828,-5.799,-6.2414,-6.5195,-6.5732,-6.9367,-7.0852,-6.8924,-6.9936,-6.9746,-6.7692,-6.8324,-6.9051,-6.9651,-7.0346,-7.0694,-7.0694,-6.9212,-6.8652,-6.914,-6.8258,-6.7781,-6.7517,-6.8166,-6.8451,-6.8397,-6.8397,-6.8816,-6.934,-6.8603,-6.8744,-6.9305,-6.8568,-6.8744,-6.9522,-7.0237,-6.9515,-6.8255,-6.8992,-6.8126,-6.6786,-6.6786,-6.6279,-6.57,-6.57,-6.512,-6.4468,-6.4468,-6.4504,-6.4577,-6.4634,-6.4597,-6.471,-6.5111,-6.5367,-6.5827,-6.6762,-6.7125,-6.7464,-6.7986,-6.8088,-6.805,-6.8012,-6.7973,-6.7439,-6.5834,-6.5566,-6.5031,-6.3465,-6.3274,-6.3236,-6.3197,-6.3121,-6.3159,-6.3372,-6.1203,-5.986,-5.9823,-6.0942,-6.1568,-6.15,-6.1609,-6.172,-6.172,-6.172,-6.172,-6.172,-6.172,-6.172,-6.172,-6.172,-6.172,-4.2122,0.0,-4.379,-4.3158,-4.2482,-4.1903,0.0,-4.1009,-4.0763,-4.1272,-4.0956,-4.0988,-4.2189,-4.1968,-4.2126,-4.3706,-4.399,-4.4275,-4.5191,-5.1512,-5.78,-6.2509,-6.6744,-6.9146,-6.8735,-6.9588,-6.9967,-6.9493,-6.9272,-6.8735,-6.766,-6.8766,-6.9525,-6.9683,-6.9841,-6.9936,-6.9936,-6.9435,-6.8909,-6.8327,-6.8522,-6.8192,-6.7517,-6.8166,-6.8451,-6.8397,-6.8397,-6.8816,-6.9376,-6.92,-6.92,-6.9376,-6.9165,-6.9419,-6.9849,-7.0272,-6.9614,-6.8578,-6.9054,-6.8126,-6.6786,-6.6786,-6.6677,-6.6533,-6.6533,-6.5953,-6.5301,-6.5301,-6.5772,-6.6301,-6.6627,-6.6682,-6.6793,-6.7237,-6.7666,-6.8144,-6.8537,-6.9019,-6.95,-6.9775,-6.9807,-6.9616,-6.9005,-6.889,-6.8508,-6.7477,-6.7286,-6.7171,-6.6789,-6.6713,-6.6483,-6.5872,-6.5222,-6.4652,-6.418,-6.3145,-6.2356,-6.2002,-6.2296,-6.2227,-6.1699,-6.1671,-6.172,-6.172,-6.172,-6.172,-6.172,-6.172,-6.172,-6.172,-6.172,-6.172,-4.0949,-4.1107,-4.1194,-4.072,-4.0692,-4.0758,-4.0889,-4.0889,-4.0984,-4.1494,-4.1304,-4.1272,-4.2031,-4.1873,-4.2062,-4.3548,-4.3769,-4.5033,-4.8636,-5.4703,-6.0423,-6.4942,-6.8039,-7.003,-7.0599,-7.0662,-7.0536,-7.022,-7.0157,-6.9525,-6.8166,-6.943,-7.0093,-6.9937,-6.9905,-6.9905,-6.998,-6.9478,-6.8926,-6.8357,-6.8875,-6.8659,-6.794,-6.859,-6.8856,-6.8892,-6.8892,-6.9043,-6.9376,-6.9376,-6.9376,-6.9376,-6.9376,-6.956,-6.992,-6.9949,-6.9358,-6.857,-6.862,-6.7836,-6.6786,-6.6786,-6.6786,-6.6786,-6.6786,-6.675,-6.6714,-6.6714,-6.7433,-6.8247,-6.8438,-6.8367,-6.8341,-6.879,-6.9192,-6.961,-6.9992,-7.0688,-7.1286,-7.157,-7.1603,-7.145,-7.103,-7.061,-7.0037,-6.9196,-6.8738,-6.8356,-6.7935,-6.7897,-6.7706,-6.7286,-6.6536,-6.5981,-6.573,-6.5076,-6.4321,-6.3314,-6.339,-6.3109,-6.234,-6.2306,-6.211,-6.172,-6.172,-6.172,-6.172,-6.172,-6.172,-6.172,-6.172,-6.1915,-4.1649,-4.1746,-4.1715,-4.1295,-4.1299,-4.143,-4.143,-4.1525,-4.1588,-4.1588,-4.1588,-4.162,-4.1746,-4.1936,-4.2347,-4.3169,-4.3674,-4.6266,-5.2965,-5.72,-6.1308,-6.589,-6.7976,-6.962,-7.12,-7.1547,-7.1358,-7.0662,-7.1168,-7.0726,-6.8956,-7.0061,-7.0531,-7.0202,-7.0047,-7.0095,-7.0204,-6.9384,-6.8851,-6.8586,-6.9117,-6.902,-6.8397,-6.9118,-6.9376,-6.9376,-6.9376,-6.9376,-6.9376,-6.9376,-6.9376,-6.9376,-6.9376,-6.9633,-6.9955,-6.9593,-6.9245,-6.8805,-6.8186,-6.7619,-6.7148,-6.704,-6.7076,-6.7148,-6.7266,-6.781,-6.8463,-6.8523,-6.9143,-6.9831,-7.0,-6.9757,-6.9605,-7.0076,-7.0321,-7.0599,-7.1178,-7.1864,-7.2505,-7.2907,-7.2902,-7.2826,-7.2979,-7.2367,-7.1603,-7.0724,-7.0113,-6.9425,-6.8394,-6.8394,-6.8464,-6.8342,-6.7717,-6.7398,-6.7618,-6.7039,-6.6128,-6.4805,-6.45,-6.4028,-6.3243,-6.293,-6.2579,-6.211,-6.1954,-6.1954,-6.211,-6.211,-6.2032,-6.1915,-6.2032,-6.2423,-4.228,-4.2505,-4.222,-4.0986,-4.0767,-4.0767,-4.0767,-4.1178,-4.1588,-4.1588,-4.1588,-4.1778,-4.241,-4.3453,-4.4654,-4.595,-4.8162,-5.1512,-5.6757,-5.957,-6.2225,-6.5353,-6.8513,-7.0125,-6.924,-7.0252,-7.0631,-6.9904,-6.9936,-6.9872,-6.9556,-6.998,-7.0188,-7.017,-6.9746,-6.9616,-6.9519,-6.8875,-6.8249,-6.7809,-6.8326,-6.8501,-6.8397,-6.9118,-6.9376,-6.9376,-6.9376,-6.9376,-6.9376,-6.9376,-6.9376,-6.9376,-6.9376,-6.9812,-7.041,-7.0371,-7.0201,-6.9911,-6.8525,-6.838,-6.8706,-6.8054,-6.8271,-6.8935,-6.9274,-6.9937,-7.0616,-7.1011,-7.0496,-7.0,-7.0694,-7.0871,-7.0907,-7.1312,-7.1582,-7.1803,-7.2088,-7.1826,-7.1893,-7.283,-7.2406,-7.2138,-7.2864,-7.2902,-7.2482,-7.1642,-7.2024,-7.1833,-7.0228,-7.0648,-7.0898,-7.0345,-6.9596,-6.9258,-6.9611,-6.8898,-6.8402,-6.8394,-6.6438,-6.4925,-6.414,-6.2696,-6.254,-6.3867,-6.3164,-6.3164,-6.3906,-6.3906,-6.3516,-6.2813,-6.3555,-6.3594,-4.1838,-4.1841,-4.1588,-4.1551,-4.1649,-4.1525,-4.0767,-4.1114,-4.1683,-4.2094,-4.2189,-4.241,-4.3105,-4.4654,-4.6803,-4.9742,-5.287,-5.5967,-5.8938,-6.1498,-6.3963,-6.6365,-6.845,-6.9683,-6.9809,-7.125,-7.1945,-7.124,-7.1681,-7.1804,-7.1415,-7.0754,-7.047,-7.0659,-6.9669,-6.9296,-6.9704,-6.8932,-6.8554,-6.8611,-6.8879,-6.8967,-6.8967,-6.9302,-6.9376,-6.9376,-6.8919,-6.8744,-6.8744,-6.8744,-6.8744,-6.8779,-6.92,-6.9884,-7.0511,-7.0482,-7.0157,-6.9647,-6.8887,-6.8887,-6.9104,-6.8778,-6.8887,-6.9298,-6.966,-7.0323,-7.1154,-7.1812,-7.1902,-7.1886,-7.2285,-7.2246,-7.2136,-7.2312,-7.2447,-7.2542,-7.2797,-7.2954,-7.3306,-7.4027,-7.387,-7.3753,-7.4278,-7.3972,-7.3514,-7.3093,-7.3017,-7.2711,-7.1909,-7.1848,-7.1743,-7.141,-7.0465,-6.9888,-7.0078,-6.9401,-6.9049,-6.9195,-6.7758,-6.6739,-6.6366,-6.4726,-6.4179,-6.4999,-6.414,-6.3906,-6.4297,-6.4297,-6.4101,-6.3711,-6.4101,-6.4336,-4.1554,-4.1336,-4.1083,-4.1956,-4.2275,-4.2248,-4.1838,-4.2027,-4.2564,-4.3674,-4.3895,-4.4022,-4.4369,-4.655,-4.9552,-5.3439,-5.6979,-5.9791,-6.1308,-6.3678,-6.5954,-6.785,-6.8577,-6.9445,-7.0822,-7.2131,-7.2744,-7.2346,-7.3135,-7.3243,-7.2448,-7.1286,-7.063,-7.058,-6.9354,-6.8939,-6.9366,-6.8642,-6.8513,-6.9095,-6.9095,-6.9095,-6.9095,-6.9095,-6.92,-6.934,-6.8744,-6.8498,-6.8463,-6.8287,-6.8322,-6.8533,-6.8954,-6.9707,-7.0511,-7.0562,-7.0201,-6.9684,-6.9502,-6.9575,-6.9684,-6.9502,-6.9697,-6.9986,-7.0417,-7.1047,-7.1747,-7.2522,-7.3205,-7.3691,-7.3691,-7.3437,-7.3183,-7.3183,-7.3183,-7.3274,-7.3533,-7.3916,-7.4384,-7.5095,-7.5057,-7.5017,-7.5427,-7.4927,-7.4431,-7.424,-7.3858,-7.3471,-7.3117,-7.2778,-7.2544,-7.2465,-7.1549,-7.1009,-7.1068,-7.0261,-6.985,-7.0123,-6.8873,-6.8083,-6.8083,-6.6678,-6.5975,-6.617,-6.5546,-6.5194,-6.5194,-6.5194,-6.4999,-6.4609,-6.4999,-6.5351,-4.222,-4.2062,-4.1557,-4.1652,-4.1519,-4.2045,-4.4557,-4.4683,-4.4881,-4.7119,-4.753,-4.734,-4.6708,-4.99,-5.3597,-5.6441,-5.9854,-6.2857,-6.4911,-6.6459,-6.7913,-6.9367,-6.9588,-7.0058,-7.1164,-7.1334,-7.1564,-7.1821,-7.2515,-7.2283,-7.0861,-7.0917,-7.0389,-6.9026,-6.861,-6.8223,-6.78,-6.7148,-6.7333,-6.8287,-6.8287,-6.8287,-6.8287,-6.8287,-6.8708,-6.9376,-6.9305,-6.9305,-6.9235,-6.8533,-6.8638,-6.9235,-6.8568,-6.9141,-7.0547,-7.0878,-7.1131,-7.1241,-7.0553,-7.077,-7.1205,-7.0517,-7.1041,-7.2102,-7.2558,-7.2976,-7.3429,-7.3944,-7.4113,-7.4151,-7.4151,-7.4113,-7.4122,-7.4122,-7.4122,-7.4131,-7.44,-7.384,-7.3666,-7.4942,-7.4562,-7.4332,-7.5313,-7.5424,-7.5119,-7.4316,-7.4851,-7.4839,-7.3445,-7.3898,-7.4186,-7.379,-7.3678,-7.3724,-7.3985,-7.2549,-7.1994,-7.286,-6.9901,-6.8083,-6.8083,-6.7224,-6.7107,-6.7888,-6.7849,-6.7849,-6.7849,-6.7849,-6.7029,-6.5546,-6.7107,-6.7029,-4.0387,-4.083,-4.1178,-4.1929,-4.2365,-4.2987,-4.4638,-4.5803,-4.7233,-4.9394,-5.0153,-5.05,-5.069,-5.2365,-5.4925,-5.8559,-6.134,-6.3963,-6.6491,-6.7281,-6.7945,-6.8956,-6.967,-7.017,-7.063,-7.182,-7.2571,-7.2814,-7.2766,-7.2348,-7.1206,-6.9919,-6.872,-6.7694,-6.7221,-6.6948,-6.693,-6.7252,-6.7438,-6.748,-6.748,-6.748,-6.748,-6.748,-6.7901,-6.8603,-6.762,-6.776,-6.8603,-6.7796,-6.7936,-6.8673,-6.9139,-6.9743,-7.0582,-7.0883,-7.1175,-7.1458,-7.1168,-7.1428,-7.1854,-7.1623,-7.2028,-7.2705,-7.3141,-7.335,-7.3604,-7.4104,-7.4197,-7.4197,-7.4197,-7.4197,-7.4197,-7.4197,-7.4197,-7.4197,-7.4289,-7.4072,-7.4055,-7.4821,-7.4711,-7.4676,-7.5389,-7.5501,-7.5386,-7.5042,-7.5271,-7.5336,-7.4904,-7.4745,-7.4694,-7.4646,-7.4305,-7.4144,-7.4272,-7.3262,-7.3007,-7.3961,-7.1813,-7.0543,-7.0543,-6.9684,-6.9372,-6.9723,-6.9176,-6.8903,-6.8903,-6.8903,-6.8591,-6.7966,-6.8591,-6.8552,-3.9251,-3.9882,-4.0577,-4.1866,-4.2805,-4.4071,-4.6234,-4.7927,-4.9978,-5.2997,-5.3629,-5.3755,-5.404,-5.4451,-5.5904,-5.9412,-6.213,-6.469,-6.7249,-6.7787,-6.821,-6.9148,-6.956,-7.0123,-7.0764,-7.1927,-7.2655,-7.2812,-7.2296,-7.1498,-7.0463,-6.8739,-6.7394,-6.6712,-6.6179,-6.6051,-6.6551,-6.705,-6.716,-6.7023,-6.7023,-6.7129,-6.7374,-6.7374,-6.7831,-6.8533,-6.7445,-6.7585,-6.8533,-6.7725,-6.7725,-6.8287,-6.9351,-6.9991,-7.0341,-7.075,-7.1045,-7.1368,-7.162,-7.1927,-7.2189,-7.2365,-7.2705,-7.3141,-7.3401,-7.3604,-7.3789,-7.4104,-7.4197,-7.4197,-7.4197,-7.4197,-7.4197,-7.4197,-7.4197,-7.4197,-7.4197,-7.4197,-7.4335,-7.4737,-7.4819,-7.4939,-7.5392,-7.5501,-7.5501,-7.5501,-7.5532,-7.566,-7.587,-7.5555,-7.5407,-7.5583,-7.5002,-7.4755,-7.5093,-7.4131,-7.3914,-7.4835,-7.3576,-7.2534,-7.2026,-7.1441,-7.1128,-7.1128,-7.0777,-7.0621,-7.0621,-7.0621,-7.0348,-6.9801,-7.0387,-7.0348,-3.9251,-3.9503,-3.985,-4.1272,-4.2695,-4.5033,-4.99,-5.1411,-5.3215,-5.8338,-5.8243,-5.7042,-5.6347,-5.622,-5.6884,-5.897,-6.2225,-6.5227,-6.7313,-6.8229,-6.9072,-7.0034,-6.9626,-6.9944,-7.1951,-7.1582,-7.1314,-7.1449,-7.0774,-6.9704,-6.8152,-6.7359,-6.6677,-6.6069,-6.5565,-6.575,-6.67,-6.6215,-6.6286,-6.7023,-6.7023,-6.7445,-6.8217,-6.8217,-6.8638,-6.9376,-6.9376,-6.9376,-6.9305,-6.8533,-6.8217,-6.8287,-6.9095,-6.956,-6.9991,-7.0341,-7.0682,-7.111,-7.1891,-7.2189,-7.2248,-7.2761,-7.3141,-7.3503,-7.3503,-7.3838,-7.4197,-7.4197,-7.4197,-7.4197,-7.4197,-7.4197,-7.4197,-7.4197,-7.4197,-7.4197,-7.4197,-7.4197,-7.4297,-7.4737,-7.4819,-7.4939,-7.5392,-7.5501,-7.5501,-7.5501,-7.566,-7.587,-7.6095,-7.6297,-7.6475,-7.6669,-7.5988,-7.5899,-7.6832,-7.5363,-7.4831,-7.5735,-7.4993,-7.3744,-7.2104,-7.2026,-7.2026,-7.2026,-7.2885,-7.3315,-7.3315,-7.3315,-7.2417,-7.0738,-7.2495,-7.2378,-3.8871,-3.9534,-4.0735,-4.2631,-4.4875,-4.794,-5.2776,-5.3607,-5.4932,-6.0392,-6.0771,-5.9791,-5.859,-5.8369,-5.8748,-5.9823,-6.213,-6.4532,-6.6586,-6.7628,-6.8151,-6.7971,-6.9049,-6.9946,-7.0613,-7.0669,-7.0698,-7.0739,-6.9497,-6.8118,-6.6635,-6.5807,-6.5331,-6.5348,-6.5287,-6.575,-6.677,-6.7302,-6.762,-6.7866,-6.8428,-6.8217,-6.7374,-6.7374,-6.7796,-6.8533,-6.7971,-6.8357,-6.9376,-6.913,-6.9024,-6.906,-6.9305,-6.956,-6.9885,-7.0062,-7.0678,-7.1521,-7.1769,-7.2386,-7.3141,-7.3298,-7.3641,-7.3971,-7.3971,-7.4104,-7.4197,-7.4197,-7.4197,-7.4197,-7.4197,-7.4197,-7.4197,-7.4197,-7.4197,-7.4197,-7.4197,-7.4335,-7.4476,-7.4737,-7.4939,-7.5171,-7.5465,-7.5501,-7.5501,-7.5501,-7.566,-7.5928,-7.6273,-7.6475,-7.6632,-7.6687,-7.6493,-7.6466,-7.6805,-7.5845,-7.5629,-7.6591,-7.5293,-7.429,-7.3783,-7.3744,-7.3744,-7.3744,-7.4017,-7.3861,-7.3315,-7.3315,-7.2729,-7.1636,-7.2768,-7.3002,-3.9029,-3.9945,-4.1557,-4.3959,-4.6424,-4.971,-5.5146,-5.7769,-6.0012,-6.3394,-6.3552,-6.2541,-6.0866,-6.0076,-5.9918,-6.0613,-6.2426,-6.4247,-6.6065,-6.7163,-6.7847,-6.7801,-6.8875,-6.9471,-6.9322,-6.9378,-6.9222,-6.8635,-6.7463,-6.6497,-6.5911,-6.5117,-6.4991,-6.56,-6.5708,-6.6311,-6.737,-6.7899,-6.8357,-6.8673,-6.9165,-6.8884,-6.7936,-6.7936,-6.8217,-6.8638,-6.8147,-6.8498,-6.9376,-6.9376,-6.9376,-6.9449,-6.9705,-6.9956,-7.0131,-7.0543,-7.1232,-7.1915,-7.2212,-7.2834,-7.3503,-7.374,-7.3971,-7.4197,-7.4197,-7.4197,-7.4197,-7.4197,-7.4197,-7.4197,-7.4197,-7.4197,-7.4197,-7.4197,-7.4197,-7.4197,-7.4197,-7.4342,-7.4525,-7.4778,-7.5017,-7.5284,-7.5465,-7.5501,-7.5535,-7.5633,-7.587,-7.6135,-7.6475,-7.6632,-7.6687,-7.6687,-7.6687,-7.6721,-7.6777,-7.6378,-7.6359,-7.6965,-7.6067,-7.554,-7.554,-7.4876,-7.4642,-7.4993,-7.5032,-7.4798,-7.429,-7.429,-7.3666,-7.2534,-7.3744,-7.4095,-3.9692,-4.0704,-4.2473,-4.5381,-4.7972,-5.1353,-5.7231,-6.273,-6.6586,-6.6523,-6.6112,-6.51,-6.3015,-6.1561,-6.0866,-6.1403,-6.2812,-6.4382,-6.5675,-6.6668,-6.7654,-6.8668,-6.8741,-6.8557,-6.8039,-6.7945,-6.729,-6.5876,-6.5186,-6.5083,-6.5738,-6.5152,-6.5337,-6.6582,-6.6547,-6.7008,-6.8217,-6.8147,-6.8463,-6.9165,-6.9165,-6.9165,-6.9165,-6.9235,-6.927,-6.927,-6.934,-6.9376,-6.9376,-6.9305,-6.9344,-6.9455,-7.0024,-7.0332,-7.0468,-7.1475,-7.1998,-7.2233,-7.2997,-7.3401,-7.3641,-7.4056,-7.4197,-7.4197,-7.4197,-7.4197,-7.4197,-7.4197,-7.4197,-7.4197,-7.4197,-7.4197,-7.4197,-7.4197,-7.4197,-7.4243,-7.4243,-7.4387,-7.4649,-7.4778,-7.5056,-7.5284,-7.5465,-7.5535,-7.5599,-7.581,-7.6199,-7.6475,-7.6669,-7.6687,-7.6687,-7.6687,-7.6687,-7.6721,-7.6777,-7.6846,-7.6944,-7.7004,-7.7043,-7.7101,-7.7101,-7.5579,-7.511,-7.5891,-7.593,-7.5891,-7.5813,-7.5813,-7.4993,-7.3432,-7.5032,-7.5384,-4.1146,-4.2157,-4.4022,-4.7403,-5.2681,-5.7706,-6.017,-6.3773,-6.6459,-6.589,-6.6523,-6.6523,-6.4437,-6.3805,-6.3299,-6.2351,-6.2992,-6.4087,-6.5675,-6.6303,-6.6856,-6.7858,-6.7632,-6.7329,-6.7256,-6.6704,-6.5979,-6.5014,-6.5359,-6.5428,-6.4979,-6.5393,-6.6208,-6.7313,-6.6791,-6.7008,-6.8217,-6.7585,-6.7339,-6.7515,-6.7515,-6.7515,-6.755,-6.8182,-6.8463,-6.8498,-6.913,-6.9376,-6.934,-6.8708,-6.8752,-6.9171,-6.9376,-6.9741,-7.0292,-7.1195,-7.1938,-7.252,-7.2797,-7.335,-7.3923,-7.4151,-7.4197,-7.4197,-7.4197,-7.4197,-7.4197,-7.4197,-7.4197,-7.4197,-7.4197,-7.4197,-7.4197,-7.4197,-7.4335,-7.4432,-7.4432,-7.4774,-7.5056,-7.5133,-7.5321,-7.5465,-7.5501,-7.5595,-7.584,-7.6248,-7.6366,-7.6475,-7.6669,-7.6687,-7.6687,-7.6687,-7.6687,-7.6721,-7.6777,-7.6846,-7.6944,-7.7004,-7.7043,-7.7101,-7.7101,-7.675,-7.6633,-7.6828,-7.6828,-7.6477,-7.5813,-7.5813,-7.5266,-7.4251,-7.5305,-7.5696,-4.1588,-4.3105,-4.5855,-5.069,-5.6125,-6.0581,-6.1656,-6.3805,-6.5511,-6.5132,-6.6175,-6.6586,-6.4848,-6.4247,-6.3653,-6.2683,-6.3195,-6.4081,-6.509,-6.5727,-6.6287,-6.6766,-6.6598,-6.6324,-6.5945,-6.5531,-6.5014,-6.422,-6.4876,-6.529,-6.5255,-6.6056,-6.6907,-6.7591,-6.7318,-6.733,-6.762,-6.7234,-6.7023,-6.7023,-6.7023,-6.6813,-6.6497,-6.7269,-6.7655,-6.7655,-6.8076,-6.8645,-6.9283,-6.8893,-6.9059,-6.9721,-7.0401,-7.0701,-7.0748,-7.194,-7.2669,-7.3087,-7.3246,-7.3591,-7.4056,-7.4151,-7.4197,-7.4197,-7.4197,-7.4197,-7.4197,-7.4197,-7.4197,-7.4197,-7.4197,-7.4197,-7.4197,-7.4197,-7.4342,-7.4519,-7.4519,-7.4857,-7.5209,-7.5209,-7.5394,-7.5501,-7.5501,-7.5756,-7.6068,-7.6366,-7.6475,-7.6594,-7.6669,-7.6687,-7.6687,-7.6687,-7.6687,-7.6721,-7.6777,-7.6846,-7.6944,-7.7004,-7.7043,-7.7101,-7.7101,-7.7101,-7.7101,-7.7101,-7.7101,-7.6672,-7.5813,-7.6203,-7.5774,-7.4525,-7.6242,-7.6828,-4.1746,-4.418,-4.8035,-5.3566,-5.8116,-6.1371,-6.194,-6.3236,-6.4342,-6.4342,-6.5353,-6.5859,-6.4563,-6.3773,-6.3154,-6.274,-6.3302,-6.3856,-6.4383,-6.4971,-6.5551,-6.5876,-6.5669,-6.529,-6.4738,-6.4565,-6.4324,-6.3807,-6.4358,-6.5048,-6.5842,-6.6554,-6.7052,-6.7417,-6.7183,-6.6948,-6.6637,-6.6356,-6.6216,-6.6216,-6.6356,-6.6145,-6.5689,-6.6321,-6.6672,-6.6813,-6.7095,-6.7902,-6.898,-6.9113,-6.9569,-7.0266,-7.1662,-7.1855,-7.1545,-7.2881,-7.3476,-7.3615,-7.3765,-7.3864,-7.4009,-7.4151,-7.4197,-7.4197,-7.4197,-7.4197,-7.4197,-7.4197,-7.4197,-7.4197,-7.4197,-7.4197,-7.4197,-7.4243,-7.4387,-7.4563,-7.4563,-7.4937,-7.5247,-7.5246,-7.5394,-7.5497,-7.5599,-7.587,-7.6199,-7.6411,-7.6594,-7.6687,-7.6687,-7.6687,-7.6687,-7.6687,-7.6704,-7.6738,-7.6791,-7.6858,-7.6965,-7.7012,-7.7089,-7.7101,-7.7101,-7.7101,-7.7101,-7.7101,-7.7101,-7.675,-7.6047,-7.675,-7.636,-7.4993,-7.7179,-7.7804,-4.2378,-4.6329,-5.0911,-5.3566,-5.7358,-6.0455,-6.055,-6.2161,-6.3615,-6.3615,-6.4247,-6.4563,-6.3773,-6.3046,-6.2583,-6.2643,-6.2275,-6.2628,-6.4233,-6.4017,-6.42,-6.5731,-6.4703,-6.4117,-6.4634,-6.4117,-6.3979,-6.4496,-6.4634,-6.5048,-6.5842,-6.5475,-6.5734,-6.6651,-6.4845,-6.4253,-6.5022,-6.3688,-6.2986,-6.3021,-6.3723,-6.4355,-6.4882,-6.4987,-6.5408,-6.6145,-6.7298,-6.799,-6.8195,-6.8805,-6.9381,-7.0034,-7.0991,-7.1655,-7.2155,-7.3075,-7.3372,-7.3424,-7.3715,-7.3815,-7.3864,-7.4104,-7.4197,-7.4197,-7.4197,-7.4197,-7.4197,-7.4197,-7.4197,-7.4197,-7.4197,-7.4197,-7.4243,-7.4432,-7.4611,-7.4778,-7.4778,-7.5133,-7.5465,-7.5465,-7.5501,-7.5633,-7.5957,-7.6068,-7.6248,-7.6614,-7.6669,-7.6687,-7.6687,-7.6687,-7.6687,-7.6687,-7.6754,-7.6791,-7.6858,-7.6965,-7.7012,-7.7095,-7.7101,-7.7101,-7.7101,-7.7101,-7.7101,-7.7101,-7.7101,-7.7023,-7.6945,-7.7023,-7.6984,-7.675,-7.7101,-7.7218,-4.3927,-4.6487,-4.9615,-5.366,-5.6347,-5.8401,-5.9949,-6.1024,-6.1687,-6.1687,-6.194,-6.2288,-6.2793,-6.268,-6.255,-6.2297,-6.2451,-6.2932,-6.3801,-6.3692,-6.37,-6.4565,-6.4014,-6.3876,-6.4634,-6.4393,-6.4358,-6.4669,-6.5117,-6.5152,-6.4634,-6.5382,-6.5673,-6.5224,-6.4498,-6.4111,-6.4074,-6.2951,-6.2389,-6.2389,-6.274,-6.3091,-6.3442,-6.423,-6.503,-6.5809,-6.6459,-6.7393,-6.85,-6.9231,-6.9907,-7.0597,-7.1891,-7.231,-7.2295,-7.3075,-7.3424,-7.3527,-7.3765,-7.3864,-7.3961,-7.4151,-7.4197,-7.4197,-7.4197,-7.4197,-7.4197,-7.4197,-7.4197,-7.4197,-7.4197,-7.4289,-7.45,-7.5123,-7.5115,-7.5131,-7.5586,-7.5588,-7.5615,-7.6074,-7.5906,-7.5941,-7.6685,-7.6508,-7.6366,-7.6651,-7.6687,-7.6687,-7.6687,-7.6687,-7.6687,-7.6687,-7.6721,-7.6801,-7.687,-7.6944,-7.6995,-7.7095,-7.7101,-7.7101,-7.7101,-7.7101,-7.7101,-7.7101,-7.7101,-7.7101,-7.7101,-7.7609,-7.757,-7.7101,-7.8116,-7.8284,-4.4433,-4.5886,-4.7846,-5.2207,-5.4609,-5.6505,-5.8748,-5.9665,-6.0076,-6.0265,-6.0297,-6.0581,-6.1466,-6.1916,-6.2158,-6.2042,-6.2628,-6.3158,-6.3595,-6.36,-6.36,-6.36,-6.3427,-6.3531,-6.4083,-6.3945,-6.391,-6.4117,-6.4496,-6.4393,-6.3708,-6.452,-6.4702,-6.4007,-6.3658,-6.3372,-6.3021,-6.2213,-6.1897,-6.2108,-6.2108,-6.2345,-6.2652,-6.391,-6.4992,-6.5838,-6.6053,-6.7026,-6.8531,-6.9503,-7.0338,-7.1069,-7.2518,-7.2904,-7.2606,-7.3201,-7.3564,-7.3665,-7.3815,-7.3912,-7.4056,-7.4151,-7.4197,-7.4197,-7.4197,-7.4197,-7.4197,-7.4197,-7.4197,-7.4197,-7.4197,-7.4342,-7.467,-7.5399,-7.5352,-7.5361,-7.6046,-7.5814,-7.5653,-7.6265,-7.6082,-7.6062,-7.6916,-7.6698,-7.6454,-7.6669,-7.6687,-7.6687,-7.6687,-7.6687,-7.6687,-7.6687,-7.6704,-7.6786,-7.687,-7.6933,-7.6985,-7.7095,-7.7101,-7.7101,-7.7101,-7.7101,-7.7101,-7.7101,-7.7101,-7.7101,-7.7101,-7.7765,-7.7726,-7.714,-7.844,-7.8692,-4.2821,-4.478,-4.7024,-4.8035,-5.1764,-5.5399,-5.622,-5.7927,-5.9538,-6.017,-6.0297,-6.0139,-5.957,-6.0124,-6.0987,-6.1877,-6.2192,-6.2625,-6.3526,-6.36,-6.36,-6.36,-6.2979,-6.2565,-6.2599,-6.191,-6.1772,-6.253,-6.1944,-6.2223,-6.3823,-6.2057,-6.1743,-6.3275,-6.1345,-6.0668,-6.1406,-6.0633,-6.0598,-6.1371,-6.1371,-6.2011,-6.3315,-6.4126,-6.5154,-6.6296,-6.7139,-6.756,-6.7777,-6.9147,-7.0165,-7.0995,-7.1886,-7.2806,-7.354,-7.3578,-7.3665,-7.3815,-7.3961,-7.4009,-7.4056,-7.4151,-7.4197,-7.4197,-7.4197,-7.4197,-7.4197,-7.4197,-7.4197,-7.4197,-7.4197,-7.4342,-7.4563,-7.4812,-7.5055,-7.5247,-7.5504,-7.5501,-7.5501,-7.5539,-7.5699,-7.587,-7.6106,-7.6273,-7.6454,-7.6669,-7.6687,-7.6687,-7.6687,-7.6687,-7.6687,-7.6687,-7.677,-7.6805,-7.687,-7.6975,-7.702,-7.7101,-7.7101,-7.7101,-7.7101,-7.7101,-7.7101,-7.7101,-7.7101,-7.7101,-7.7101,-7.714,-7.714,-7.7101,-7.7176,-7.7222,-4.3358,-4.4085,-4.5191,-4.6803,-4.8857,-5.0911,-5.2491,-5.4451,-5.6157,-5.6852,-5.7706,-5.8401,-5.859,-6.0186,-6.1455,-6.13,-6.2336,-6.3268,-6.36,-6.36,-6.36,-6.36,-6.2944,-6.2668,-6.3151,-6.2496,-6.2393,-6.3151,-6.2496,-6.2154,-6.2437,-6.178,-6.1568,-6.1841,-6.1235,-6.0774,-6.0528,-5.9756,-5.9791,-6.0528,-6.0528,-6.1263,-6.2592,-6.386,-6.5109,-6.6455,-6.7649,-6.8171,-6.8282,-6.9818,-7.071,-7.1181,-7.2559,-7.3354,-7.3715,-7.3715,-7.3815,-7.3961,-7.4009,-7.4056,-7.4151,-7.4197,-7.4197,-7.4197,-7.4197,-7.4197,-7.4197,-7.4197,-7.4197,-7.4243,-7.4342,-7.494,-7.5766,-7.6617,-7.7341,-7.7529,-7.6494,-7.5844,-7.5653,-7.615,-7.6133,-7.6195,-7.6828,-7.6737,-7.6614,-7.6669,-7.6687,-7.6687,-7.6687,-7.6687,-7.692,-7.7464,-7.7576,-7.7603,-7.7728,-7.7763,-7.758,-7.7134,-7.7101,-7.7101,-7.7101,-7.7101,-7.7101,-7.7101,-7.7101,-7.7101,-7.7101,-7.7101,-7.7101,-7.7101,-7.7097,-7.707,-4.3769,-4.3706,-4.4275,-4.6582,-4.7182,-4.7846,-5.0405,-5.1859,-5.2965,-5.3882,-5.5209,-5.6467,-5.7522,-5.9447,-6.092,-6.092,-6.2232,-6.322,-6.322,-6.2979,-6.2841,-6.2841,-6.2186,-6.2013,-6.2772,-6.191,-6.1634,-6.2393,-6.1843,-6.1432,-6.1294,-6.1222,-6.1075,-6.0683,-6.0604,-6.0388,-6.0107,-5.9369,-5.9369,-6.0107,-6.0325,-6.1006,-6.2162,-6.3836,-6.5201,-6.6344,-6.7926,-6.8703,-6.8989,-7.0115,-7.0946,-7.164,-7.2808,-7.3504,-7.3864,-7.3864,-7.3961,-7.4056,-7.4056,-7.4104,-7.4197,-7.4197,-7.4197,-7.4197,-7.4197,-7.4197,-7.4272,-7.4535,-7.4657,-7.4794,-7.4891,-7.5338,-7.6082,-7.73,-7.8022,-7.8099,-7.6953,-7.6265,-7.5959,-7.6265,-7.6194,-7.6276,-7.6854,-7.682,-7.6687,-7.6687,-7.6687,-7.6687,-7.6687,-7.6687,-7.692,-7.7503,-7.758,-7.761,-7.7767,-7.7779,-7.755,-7.7134,-7.7101,-7.7218,-7.7531,-7.7257,-7.7257,-7.7531,-7.7257,-7.7101,-7.7101,-7.7101,-7.7257,-7.7531,-7.7222,-7.7181,0.0,0.0,0.0,-4.7087,-4.674,-4.6613,-4.9963,-5.0247,-5.0184,-5.1606,-5.3028,-5.4454,-5.6002,-5.7674,-5.9164,-6.0589,-6.1757,-6.2461,-6.2461,-6.1806,-6.1358,-6.1358,-6.0668,-6.053,-6.1254,-5.9944,-5.9357,-6.0185,-5.9633,-5.9698,-6.0665,-6.0167,-5.9844,-6.0036,-5.9334,-5.9334,-6.0072,-5.9334,-5.9369,-6.0107,-6.0722,-6.1315,-6.1969,-6.4213,-6.5533,-6.6239,-6.798,-6.9086,-6.9694,-6.9878,-7.0895,-7.2435,-7.2571,-7.3202,-7.4009,-7.4009,-7.4104,-7.4197,-7.4197,-7.4197,-7.4197,-7.4197,-7.4197,-7.4197,-7.4197,-7.4197,-7.4347,-7.5136,-7.5547,-7.5771,-7.5727,-7.5501,-7.5513,-7.6573,-7.68,-7.6761,-7.6761,-7.6761,-7.6494,-7.5688,-7.581,-7.6121,-7.6121,-7.6433,-7.6687,-7.6687,-7.6687,-7.6687,-7.6687,-7.6687,-7.6726,-7.6726,-7.6726,-7.6793,-7.6948,-7.696,-7.7053,-7.7173,-7.7179,-7.757,-7.839,-7.7648,-7.757,-7.839,-7.757,-7.714,-7.7101,-7.714,-7.757,-7.8395,-7.75,-7.7525,-4.4622,0.0,0.0,0.0,0.0,0.0,-4.4875,-4.6013,-4.734,-4.8731,-5.0532,-5.2289,-5.3744,-5.5799,-5.7508,-5.8436,-6.0299,-6.1634,-6.1634,-6.1944,-6.2151,-6.2151,-6.1461,-6.1289,-6.2082,-6.0254,-5.9633,-6.112,-5.9978,-5.9765,-6.0866,-6.0299,-5.9517,-5.8457,-5.8246,-5.8527,-5.9299,-5.8527,-5.8808,-6.0107,-6.0722,-6.1623,-6.2821,-6.4469,-6.5878,-6.7161,-6.8203,-6.9182,-7.006,-7.0667,-7.1611,-7.2753,-7.3399,-7.3869,-7.4151,-7.4151,-7.4151,-7.4197,-7.4197,-7.4197,-7.4197,-7.4197,-7.4197,-7.4197,-7.4197,-7.4197,-7.4272,-7.446,-7.4681,-7.521,-7.6759,-7.6732,-7.6804,-7.8939,-7.8978,-7.8557,-7.8557,-7.8199,-7.7418,-7.5993,-7.6068,-7.632,-7.632,-7.6516,-7.6687,-7.6687,-7.6687,-7.6687,-7.6687,-7.6687,-7.6959,-7.758,-7.7671,-7.7983,-7.8702,-7.8826,-7.8885,-7.8969,-7.8975,-7.9092,-7.9326,-7.9092,-7.8819,-7.839,-7.8155,-7.7726,-7.7101,-7.7726,-7.8155,-7.8395,-7.8711,-7.8969,-4.5286,-4.4938,-4.4812,-4.5191,0.0,0.0,-4.4306,-4.4907,-4.5507,-4.6044,-4.7782,-4.974,-5.1136,-5.3041,-5.4808,-5.6137,-5.78,-5.9495,-6.1082,-6.1151,-6.1047,-6.1047,-6.0358,-6.0082,-6.053,-5.9426,-5.9218,-6.0566,-5.9939,-5.9687,-6.0124,-5.9517,-5.8737,-5.7825,-5.7474,-5.7684,-5.8492,-5.7719,-5.8105,-5.965,-6.0581,-6.1568,-6.2713,-6.4756,-6.6192,-6.7112,-6.8315,-6.9332,-7.0284,-7.1116,-7.1986,-7.281,-7.3344,-7.3813,-7.4197,-7.4197,-7.4197,-7.4197,-7.4197,-7.4197,-7.4197,-7.4197,-7.4197,-7.4197,-7.4197,-7.4197,-7.4272,-7.4711,-7.5318,-7.6107,-7.7455,-7.7568,-7.7717,-7.9551,-7.9627,-7.9207,-7.8825,-7.8601,-7.8015,-7.6617,-7.6379,-7.6411,-7.6411,-7.6575,-7.6687,-7.6687,-7.6687,-7.6687,-7.6687,-7.6687,-7.6881,-7.7386,-7.7509,-7.7934,-7.887,-7.9354,-7.9635,-7.9717,-8.0029,-8.0224,-8.0224,-7.9873,-7.9444,-7.8936,-7.8585,-7.8311,-7.8194,-7.796,-7.802,-7.8392,-7.9958,-8.0257,-4.6044,-4.557,-4.5634,-4.7972,-4.6297,0.0,-4.6076,-4.5507,-4.4433,-4.3832,-4.5191,-4.6939,-4.8479,-4.9937,-5.1658,-5.3822,-5.4901,-5.6736,-6.0289,-5.9702,-5.8875,-5.8875,-5.8323,-5.7943,-5.8012,-5.8074,-5.8383,-5.9212,-5.9474,-5.9284,-5.8773,-5.8141,-5.7719,-5.7544,-5.6947,-5.6947,-5.7649,-5.6947,-5.7403,-5.9046,-6.032,-6.1329,-6.2146,-6.5106,-6.6418,-6.6537,-6.8271,-6.9439,-7.0271,-7.1074,-7.1854,-7.2585,-7.295,-7.3446,-7.4085,-7.416,-7.4197,-7.4197,-7.4197,-7.4197,-7.4197,-7.4197,-7.4197,-7.4197,-7.4197,-7.4197,-7.4394,-7.5343,-7.6486,-7.757,-7.7911,-7.8022,-7.8252,-7.9207,-7.9283,-7.8978,-7.829,-7.8315,-7.8199,-7.7331,-7.6752,-7.6433,-7.6433,-7.6594,-7.6687,-7.6687,-7.6764,-7.6803,-7.6726,-7.6764,-7.6842,-7.6842,-7.6887,-7.7364,-7.8402,-7.9286,-7.9838,-7.999,-8.0732,-8.1122,-8.1122,-8.0381,-7.9912,-7.9717,-7.8858,-7.878,-7.9561,-7.8194,-7.7957,-7.8777,-8.112,-8.1317,-4.7498,-4.7403,-4.715,-4.655,-4.6297,0.0,-4.4591,-4.4085,-4.3895,-4.3737,-4.4022,-4.4706,-4.614,-4.8029,-4.9926,-5.1526,-5.343,-5.5426,-5.7391,-5.7943,-5.8116,-5.8116,-5.8012,-5.8218,-5.8974,-5.7967,-5.7682,-5.8741,-5.8409,-5.7833,-5.7122,-5.7544,-5.7228,-5.5999,-5.6385,-5.6666,-5.6842,-5.6666,-5.749,-5.9345,-6.0394,-6.1433,-6.2479,-6.519,-6.6462,-6.6625,-6.8316,-6.9147,-6.9422,-6.9573,-7.0548,-7.2012,-7.3409,-7.3634,-7.3221,-7.3934,-7.4197,-7.4197,-7.4197,-7.4197,-7.4197,-7.4197,-7.4197,-7.4197,-7.4197,-7.4197,-7.4327,-7.48,-7.5774,-7.6846,-7.7795,-7.8022,-7.8366,-7.9895,-7.9245,-7.8404,-7.8939,-7.8276,-7.756,-7.7379,-7.6947,-7.6632,-7.6632,-7.6669,-7.6687,-7.6687,-7.7308,-7.7503,-7.6803,-7.7308,-7.7736,-7.7736,-7.7842,-7.8585,-8.0156,-8.0562,-8.1038,-8.1747,-8.1942,-8.2059,-8.2059,-8.1864,-8.1122,-7.9717,-7.8858,-7.8468,-7.8663,-7.9717,-8.0652,-8.1433,-8.194,-8.1981,-4.7972,-4.7909,-4.7814,-4.7435,-4.7056,0.0,0.0,-4.5001,-4.4559,-4.3832,-4.3949,-4.4385,-4.5043,-4.6649,-4.8308,-4.9767,-5.161,-5.3307,-5.4482,-5.587,-5.6633,-5.6349,-5.6349,-5.6413,-5.6507,-5.6634,-5.7171,-5.8191,-5.7588,-5.7017,-5.6631,-5.6631,-5.6104,-5.4946,-5.5648,-5.5859,-5.5472,-5.5859,-5.6987,-5.8839,-5.9889,-6.1185,-6.2718,-6.5374,-6.6636,-6.6791,-6.8403,-6.9116,-6.9241,-6.9691,-7.0104,-7.063,-7.232,-7.2921,-7.2996,-7.3897,-7.4197,-7.4197,-7.4197,-7.4197,-7.4197,-7.4197,-7.4197,-7.4197,-7.4197,-7.4342,-7.4563,-7.4737,-7.5665,-7.6691,-7.7184,-7.7984,-7.8863,-7.9704,-7.9245,-7.8634,-7.8634,-7.7969,-7.7279,-7.6854,-7.6742,-7.6842,-7.727,-7.7347,-7.7347,-7.7347,-7.8085,-7.8318,-7.7464,-7.8124,-7.8629,-7.8629,-7.8746,-7.9338,-8.0701,-8.1294,-8.1804,-8.2254,-8.2684,-8.2723,-8.2332,-8.2293,-8.1669,-8.0381,-7.9912,-7.9717,-7.9717,-8.0988,-8.1598,-8.1589,-8.2393,-8.2304,-4.9047,-4.8889,-4.892,-4.9047,-4.8446,-4.7624,0.0,0.0,0.0,-4.418,-4.4353,-4.4723,-4.4854,-4.6062,-4.748,-4.9127,-5.0513,-5.1616,-5.2414,-5.3852,-5.4689,-5.4329,-5.4113,-5.3897,-5.3634,-5.4929,-5.6124,-5.6877,-5.6315,-5.5929,-5.5929,-5.5507,-5.4911,-5.4103,-5.5016,-5.5121,-5.4314,-5.5145,-5.6517,-5.8355,-5.9486,-6.1056,-6.3137,-6.5627,-6.6875,-6.71,-6.8565,-6.9203,-6.9278,-6.9954,-6.9842,-6.9391,-7.1081,-7.2094,-7.277,-7.3634,-7.4085,-7.4197,-7.4197,-7.4197,-7.4197,-7.4197,-7.4243,-7.4243,-7.4243,-7.4563,-7.4859,-7.4859,-7.578,-7.6723,-7.6914,-7.8099,-7.9321,-7.9474,-7.9283,-7.8863,-7.8137,-7.7546,-7.6931,-7.6237,-7.6433,-7.692,-7.7619,-7.7736,-7.7736,-7.7736,-7.8474,-7.8785,-7.8085,-7.859,-7.9173,-7.9523,-7.947,-7.9856,-8.0974,-8.1782,-8.2218,-8.2293,-8.2918,-8.2996,-8.2332,-8.2137,-8.1708,-8.1005,-8.1005,-8.1005,-8.1005,-8.1829,-8.1913,-8.1429,-8.2599,-8.2504,-5.2523,-5.2523,-5.208,-5.0247,-5.0627,-5.0595,-4.7498,0.0,-4.6297,-4.4875,0.0,-4.4887,-4.5464,0.0,0.0,-5.0794,-5.1338,-5.1732,-5.2555,-5.2253,-5.2219,-5.2844,-5.1732,-5.1442,-5.2869,-5.3322,-5.3612,-5.3682,-5.3612,-5.3576,-5.3576,-5.4138,-5.4103,-5.3331,-5.4735,-5.5121,-5.4314,-5.5341,-5.6794,-5.8702,-5.9743,-6.1629,-6.4266,-6.6014,-6.7176,-6.7926,-6.8828,-6.9203,-6.9241,-6.9316,-6.9316,-6.9391,-7.1081,-7.1757,-7.1944,-7.277,-7.3559,-7.4197,-7.4197,-7.4197,-7.4197,-7.4197,-7.4335,-7.4476,-7.4476,-7.4774,-7.5171,-7.5133,-7.593,-7.6876,-7.764,-7.8557,-7.9474,-8.02,-7.9245,-7.8137,-7.8022,-7.7085,-7.6237,-7.6121,-7.6433,-7.6726,-7.6842,-7.6842,-7.6842,-7.6842,-7.758,-7.8124,-7.8008,-7.8085,-7.8746,-8.03,-7.9866,-8.0156,-8.1792,-8.2162,-8.2287,-8.2293,-8.2371,-8.2411,-8.2293,-8.1552,-8.1083,-8.1005,-8.1005,-8.1005,-8.1005,-8.1796,-8.2568,-8.319,-8.2567,-8.2582,-5.3218,-5.3376,-5.3376,-5.208,-5.1891,-5.1512,-4.9647,-4.8288,-4.7277,-4.6676,0.0,0.0,0.0,0.0,0.0,0.0,-5.0662,-5.1067,-5.1472,-5.0899,-5.0724,-5.1381,-5.0893,-5.0844,-5.164,-5.2187,-5.2312,-5.1891,-5.2664,-5.298,-5.2523,-5.3225,-5.3296,-5.2523,-5.4169,-5.4741,-5.3929,-5.5411,-5.7112,-5.8984,-5.988,-6.1492,-6.3722,-6.5304,-6.65,-6.7326,-6.8152,-6.879,-6.9203,-6.9203,-6.9203,-6.9316,-7.0555,-7.1306,-7.1794,-7.262,-7.3446,-7.4197,-7.4197,-7.4197,-7.4197,-7.4197,-7.4335,-7.4519,-7.4519,-7.4816,-7.5209,-7.5209,-7.593,-7.6761,-7.7144,-7.8252,-7.936,-7.9704,-7.9245,-7.8748,-7.8748,-7.8122,-7.7703,-7.8205,-7.8679,-7.8979,-7.8979,-7.8552,-7.8396,-7.8901,-7.929,-7.9523,-7.9523,-7.9523,-7.9989,-8.1232,-8.112,-8.1247,-8.2026,-8.2182,-8.2273,-8.2293,-8.2293,-8.2293,-8.2293,-8.1942,-8.1747,-8.1747,-8.1747,-8.1747,-8.1747,-8.2578,-8.3386,-8.4241,-8.3272,-8.3036,-5.3945,-5.4292,-5.4672,-5.3408,-5.2839,-5.2302,-5.1227,-5.0121,-4.911,-4.832,-4.9046,0.0,0.0,0.0,-5.0576,-5.0606,0.0,-5.106,-5.1269,-5.0573,-5.0152,-5.0659,-5.0465,-5.0309,-5.0276,-5.0943,-5.1154,-5.0592,-5.161,-5.2067,-5.1716,-5.2242,-5.2333,-5.1825,-5.3737,-5.4469,-5.3708,-5.5598,-5.7388,-5.9185,-5.9917,-6.1408,-6.3501,-6.4806,-6.6003,-6.7138,-6.7739,-6.8452,-6.9203,-6.9203,-6.9203,-6.9316,-7.0142,-7.1006,-7.1794,-7.262,-7.3446,-7.4197,-7.4197,-7.4197,-7.4197,-7.4289,-7.4432,-7.4606,-7.4691,-7.4977,-7.5284,-7.5246,-7.5814,-7.6494,-7.6953,-7.7984,-7.9054,-7.9513,-7.9436,-7.9283,-7.9283,-7.9114,-7.9131,-7.9787,-8.0268,-8.0766,-8.1193,-8.0377,-7.9872,-8.0494,-8.0416,-8.0416,-8.0882,-8.0533,-8.0688,-8.1776,-8.1748,-8.1749,-8.2065,-8.2162,-8.221,-8.2293,-8.2293,-8.2293,-8.2293,-8.2293,-8.2293,-8.2293,-8.2528,-8.2645,-8.2645,-8.3476,-8.4167,-8.4788,-8.4093,-8.3741,-5.562,-5.6062,-5.6473,-5.3787,-5.3566,-5.3502,-5.1448,-5.1986,-5.2175,-4.9426,-5.1187,-5.2615,-5.0625,-5.1645,-5.3067,-5.3801,-5.2831,0.0,0.0,-5.1786,-5.0873,-5.0873,-5.0206,-4.9434,-4.8731,-4.9328,-4.975,-4.9714,-4.975,-5.0136,-5.0873,-5.0943,-5.1105,-5.1334,-5.3564,-5.4543,-5.3992,-5.5829,-5.7603,-5.9185,-5.9852,-6.1643,-6.4388,-6.4799,-6.6089,-6.7964,-6.8002,-6.8452,-6.9203,-6.9203,-6.9203,-6.9316,-7.0142,-7.1006,-7.1794,-7.262,-7.3446,-7.4197,-7.4197,-7.4197,-7.4243,-7.4432,-7.4611,-7.4819,-7.5095,-7.5321,-7.5501,-7.5501,-7.5501,-7.5921,-7.7526,-7.8022,-7.8443,-8.0086,-7.9856,-7.9283,-7.9283,-7.9576,-7.9864,-7.9864,-8.0268,-8.1116,-8.2747,-8.1659,-8.0572,-8.061,-7.9872,-7.995,-8.1621,-8.0377,-7.9989,-8.1737,-8.1204,-8.1088,-8.2026,-8.2162,-8.221,-8.2293,-8.2293,-8.2293,-8.2293,-8.2293,-8.2293,-8.2293,-8.3074,-8.3465,-8.3465,-8.4336,-8.4753,-8.4788,-8.4688,-8.4676,-5.8085,-5.8559,-5.859,-5.5841,-5.5651,-5.5493,-5.2965,-5.3092,-5.3302,-5.1726,-5.2792,-5.3531,-5.2051,-5.2329,-5.2839,-5.2959,-5.2857,-5.2699,0.0,-5.1961,-5.1645,-5.1645,-5.0487,-4.9398,-4.8626,-4.8802,-4.8942,-4.8907,-4.9398,-4.982,-5.0066,-5.0592,-5.1281,-5.2042,-5.3531,-5.4491,-5.5056,-5.6392,-5.7867,-5.9456,-5.9953,-6.1385,-6.3574,-6.3981,-6.5266,-6.7213,-6.7213,-6.7964,-6.9203,-6.9203,-6.9203,-6.9353,-7.0743,-7.1456,-7.1794,-7.262,-7.3446,-7.4197,-7.4197,-7.4197,-7.4243,-7.4432,-7.4611,-7.4973,-7.5741,-7.612,-7.6303,-7.6303,-7.6723,-7.7144,-7.7144,-7.7984,-7.8978,-7.9551,-8.0353,-8.0964,-8.0964,-8.1727,-8.2603,-8.3143,-8.3638,-8.4146,-8.4728,-8.434,-8.3796,-8.3213,-8.1931,-8.1426,-8.2553,-8.1698,-8.1232,-8.1854,-8.2176,-8.2294,-8.2104,-8.2192,-8.228,-8.2293,-8.2293,-8.2293,-8.2293,-8.2293,-8.2567,-8.3074,-8.3933,-8.4636,-8.5221,-8.6054,-8.6744,-8.7288,-8.6629,-8.6079,-5.9128,-5.9602,-5.976,-5.7484,-5.7263,-5.6947,-5.4419,-5.4632,-5.4984,-5.3437,-5.4211,-5.4808,-5.3878,-5.3788,-5.3748,-5.3298,-5.3428,-5.3331,0.0,-5.2418,-5.2418,-5.2418,-5.1049,-4.9785,-4.9012,-4.8977,-4.8731,-4.817,-4.9082,-4.982,-5.0101,-5.0453,-5.137,-5.2981,-5.3742,-5.4697,-5.5707,-5.6689,-5.8021,-5.9615,-5.9838,-6.0993,-6.2929,-6.3308,-6.4599,-6.6593,-6.6721,-6.7701,-6.9203,-6.9203,-6.9203,-6.9391,-7.1081,-7.1719,-7.1869,-7.2958,-7.3897,-7.4648,-7.4648,-7.4798,-7.5108,-7.5387,-7.5565,-7.5845,-7.6732,-7.7035,-7.722,-7.7526,-7.7564,-7.7564,-7.7602,-7.8443,-7.936,-7.9665,-8.1003,-8.2263,-8.2375,-8.3099,-8.3905,-8.4568,-8.4731,-8.4884,-8.5195,-8.5233,-8.5156,-8.4884,-8.3408,-8.2631,-8.3446,-8.2592,-8.2009,-8.2281,-8.2841,-8.3003,-8.2559,-8.2405,-8.2293,-8.2293,-8.2567,-8.2723,-8.2723,-8.3308,-8.4206,-8.5338,-8.5885,-8.6783,-8.7954,-8.8125,-8.8346,-8.858,-8.7955,-8.7209]}]]